Wetterdaten: Samstag, 13.01.2018
Datum Zeit Temp. A. Feuchte A. Luftdruck Regen Wind Richtung Richtung Taupunkt Windben Empfang
13.01.2018 00:00 3,7 C 98 % 1026,7 hPa 0,0 l/m 0,0 km/h (0 Bft) O-NO 77 3,4 C 0,0 km/h (0 Bft) 100 %
13.01.2018 00:01 3,7 C 98 % 1026,7 hPa 0,0 l/m 0,4 km/h (0 Bft) O-SO 107 3,4 C 3,1 km/h (1 Bft) 100 %
13.01.2018 00:02 3,7 C 98 % 1026,7 hPa 0,0 l/m 0,0 km/h (0 Bft) O-SO 108 3,4 C 0,0 km/h (0 Bft) 100 %
13.01.2018 00:03 3,7 C 98 % 1026,7 hPa 0,0 l/m 0,1 km/h (0 Bft) O-SO 108 3,4 C 3,1 km/h (1 Bft) 100 %
13.01.2018 00:04 3,7 C 98 % 1026,7 hPa 0,0 l/m 2,9 km/h (1 Bft) O-SO 115 3,4 C 9,4 km/h (2 Bft) 100 %
13.01.2018 00:05 3,7 C 98 % 1026,7 hPa 0,0 l/m 0,1 km/h (0 Bft) O-SO 116 3,4 C 3,1 km/h (1 Bft) 96 %
13.01.2018 00:06 3,7 C 98 % 1026,7 hPa 0,0 l/m 0,8 km/h (0 Bft) O 101 3,4 C 3,1 km/h (1 Bft) 100 %
13.01.2018 00:07 3,7 C 98 % 1026,8 hPa 0,0 l/m 0,3 km/h (0 Bft) O 101 3,4 C 3,1 km/h (1 Bft) 100 %
13.01.2018 00:08 3,7 C 98 % 1026,8 hPa 0,0 l/m 0,1 km/h (0 Bft) O 101 3,4 C 3,1 km/h (1 Bft) 100 %
13.01.2018 00:09 3,7 C 98 % 1026,8 hPa 0,0 l/m 0,1 km/h (0 Bft) O 101 3,4 C 3,1 km/h (1 Bft) 100 %
13.01.2018 00:10 3,7 C 98 % 1026,8 hPa 0,0 l/m 0,0 km/h (0 Bft) O 101 3,4 C 0,0 km/h (0 Bft) 100 %
13.01.2018 00:11 3,7 C 98 % 1026,8 hPa 0,0 l/m 0,0 km/h (0 Bft) O 101 3,4 C 0,0 km/h (0 Bft) 100 %
13.01.2018 00:12 3,7 C 98 % 1026,8 hPa 0,0 l/m 0,1 km/h (0 Bft) O-SO 102 3,4 C 3,1 km/h (1 Bft) 100 %
13.01.2018 00:13 3,7 C 98 % 1026,8 hPa 0,0 l/m 0,1 km/h (0 Bft) O-SO 102 3,4 C 3,1 km/h (1 Bft) 100 %
13.01.2018 00:14 3,7 C 98 % 1026,8 hPa 0,0 l/m 0,5 km/h (0 Bft) SO 124 3,4 C 3,1 km/h (1 Bft) 100 %
13.01.2018 00:15 3,7 C 98 % 1026,8 hPa 0,0 l/m 0,0 km/h (0 Bft) SO 124 3,4 C 0,0 km/h (0 Bft) 100 %
13.01.2018 00:16 3,7 C 98 % 1026,8 hPa 0,0 l/m 0,0 km/h (0 Bft) O-SO 116 3,4 C 0,0 km/h (0 Bft) 100 %
13.01.2018 00:17 3,7 C 98 % 1026,8 hPa 0,0 l/m 0,0 km/h (0 Bft) O-SO 116 3,4 C 0,0 km/h (0 Bft) 100 %
13.01.2018 00:18 3,7 C 98 % 1026,8 hPa 0,0 l/m 0,1 km/h (0 Bft) O-SO 116 3,4 C 3,1 km/h (1 Bft) 100 %
13.01.2018 00:19 3,7 C 98 % 1026,8 hPa 0,0 l/m 0,0 km/h (0 Bft) O-SO 116 3,4 C 0,0 km/h (0 Bft) 100 %
13.01.2018 00:20 3,7 C 98 % 1026,8 hPa 0,0 l/m 0,1 km/h (0 Bft) O-SO 116 3,4 C 3,1 km/h (1 Bft) 100 %
13.01.2018 00:21 3,7 C 98 % 1026,7 hPa 0,0 l/m 0,0 km/h (0 Bft) O-SO 116 3,4 C 0,0 km/h (0 Bft) 100 %
13.01.2018 00:22 3,7 C 98 % 1026,7 hPa 0,0 l/m 0,1 km/h (0 Bft) O-SO 116 3,4 C 3,1 km/h (1 Bft) 100 %
13.01.2018 00:23 3,7 C 98 % 1026,7 hPa 0,0 l/m 0,1 km/h (0 Bft) O-SO 116 3,4 C 3,1 km/h (1 Bft) 100 %
13.01.2018 00:24 3,7 C 98 % 1026,7 hPa 0,0 l/m 0,3 km/h (0 Bft) O-SO 117 3,4 C 3,1 km/h (1 Bft) 100 %
13.01.2018 00:25 3,6 C 98 % 1026,7 hPa 0,0 l/m 0,1 km/h (0 Bft) O-SO 116 3,3 C 3,1 km/h (1 Bft) 100 %
13.01.2018 00:26 3,7 C 98 % 1026,7 hPa 0,0 l/m 0,0 km/h (0 Bft) O-SO 116 3,4 C 0,0 km/h (0 Bft) 100 %
13.01.2018 00:27 3,6 C 98 % 1026,7 hPa 0,0 l/m 0,0 km/h (0 Bft) O 96 3,3 C 0,0 km/h (0 Bft) 100 %
13.01.2018 00:28 3,7 C 98 % 1026,7 hPa 0,0 l/m 0,0 km/h (0 Bft) O 96 3,4 C 0,0 km/h (0 Bft) 100 %
13.01.2018 00:29 3,6 C 98 % 1026,7 hPa 0,0 l/m 0,1 km/h (0 Bft) O 96 3,3 C 3,1 km/h (1 Bft) 100 %
13.01.2018 00:30 3,7 C 98 % 1026,7 hPa 0,0 l/m 0,0 km/h (0 Bft) O 96 3,4 C 0,0 km/h (0 Bft) 100 %
13.01.2018 00:31 3,7 C 98 % 1026,7 hPa 0,0 l/m 0,1 km/h (0 Bft) NO 49 3,4 C 3,1 km/h (1 Bft) 100 %
13.01.2018 00:32 3,7 C 98 % 1026,7 hPa 0,0 l/m 0,0 km/h (0 Bft) NO 49 3,4 C 0,0 km/h (0 Bft) 100 %
13.01.2018 00:33 3,6 C 98 % 1026,7 hPa 0,0 l/m 0,0 km/h (0 Bft) NO 49 3,3 C 0,0 km/h (0 Bft) 100 %
13.01.2018 00:34 3,7 C 98 % 1026,7 hPa 0,0 l/m 0,0 km/h (0 Bft) NO 49 3,4 C 0,0 km/h (0 Bft) 100 %
13.01.2018 00:35 3,6 C 98 % 1026,7 hPa 0,0 l/m 0,1 km/h (0 Bft) NO 49 3,3 C 3,1 km/h (1 Bft) 100 %
13.01.2018 00:36 3,6 C 98 % 1026,7 hPa 0,0 l/m 0,2 km/h (0 Bft) NO 50 3,3 C 3,1 km/h (1 Bft) 100 %
13.01.2018 00:37 3,6 C 98 % 1026,7 hPa 0,0 l/m 0,1 km/h (0 Bft) NO 50 3,3 C 3,1 km/h (1 Bft) 100 %
13.01.2018 00:38 3,6 C 98 % 1026,7 hPa 0,0 l/m 0,0 km/h (0 Bft) NO 50 3,3 C 0,0 km/h (0 Bft) 100 %
13.01.2018 00:39 3,6 C 98 % 1026,7 hPa 0,0 l/m 0,0 km/h (0 Bft) NO 50 3,3 C 0,0 km/h (0 Bft) 100 %
13.01.2018 00:40 3,6 C 98 % 1026,7 hPa 0,0 l/m 0,0 km/h (0 Bft) NO 50 3,3 C 0,0 km/h (0 Bft) 100 %
13.01.2018 00:41 3,6 C 98 % 1026,7 hPa 0,0 l/m 0,0 km/h (0 Bft) NO 50 3,3 C 0,0 km/h (0 Bft) 100 %
13.01.2018 00:42 3,6 C 98 % 1026,7 hPa 0,0 l/m 0,0 km/h (0 Bft) NO 50 3,3 C 0,0 km/h (0 Bft) 100 %
13.01.2018 00:43 3,6 C 98 % 1026,7 hPa 0,0 l/m 0,0 km/h (0 Bft) NO 50 3,3 C 0,0 km/h (0 Bft) 100 %
13.01.2018 00:44 3,6 C 98 % 1026,7 hPa 0,0 l/m 0,0 km/h (0 Bft) NO 50 3,3 C 0,0 km/h (0 Bft) 100 %
13.01.2018 00:45 3,6 C 98 % 1026,7 hPa 0,0 l/m 0,0 km/h (0 Bft) NO 50 3,3 C 0,0 km/h (0 Bft) 100 %
13.01.2018 00:46 3,6 C 98 % 1026,7 hPa 0,0 l/m 0,0 km/h (0 Bft) NO 50 3,3 C 0,0 km/h (0 Bft) 100 %
13.01.2018 00:47 3,6 C 98 % 1026,7 hPa 0,0 l/m 0,4 km/h (0 Bft) O-NO 78 3,3 C 3,1 km/h (1 Bft) 100 %
13.01.2018 00:48 3,6 C 98 % 1026,7 hPa 0,0 l/m 0,5 km/h (0 Bft) O-NO 78 3,3 C 3,1 km/h (1 Bft) 100 %
13.01.2018 00:49 3,6 C 98 % 1026,7 hPa 0,0 l/m 0,1 km/h (0 Bft) O-NO 78 3,3 C 3,1 km/h (1 Bft) 100 %
13.01.2018 00:50 3,6 C 98 % 1026,7 hPa 0,0 l/m 0,1 km/h (0 Bft) O-NO 78 3,3 C 3,1 km/h (1 Bft) 100 %
13.01.2018 00:51 3,6 C 98 % 1026,7 hPa 0,0 l/m 0,1 km/h (0 Bft) O 89 3,3 C 3,1 km/h (1 Bft) 100 %
13.01.2018 00:52 3,6 C 98 % 1026,7 hPa 0,0 l/m 0,0 km/h (0 Bft) O 89 3,3 C 0,0 km/h (0 Bft) 100 %
13.01.2018 00:53 3,6 C 98 % 1026,7 hPa 0,0 l/m 0,5 km/h (0 Bft) O 101 3,3 C 3,1 km/h (1 Bft) 100 %
13.01.2018 00:54 3,7 C 98 % 1026,7 hPa 0,0 l/m 0,0 km/h (0 Bft) O 101 3,4 C 0,0 km/h (0 Bft) 100 %
13.01.2018 00:55 3,7 C 98 % 1026,6 hPa 0,0 l/m 0,1 km/h (0 Bft) O 98 3,4 C 3,1 km/h (1 Bft) 100 %
13.01.2018 00:56 3,7 C 98 % 1026,6 hPa 0,0 l/m 0,7 km/h (0 Bft) O-NO 64 3,4 C 3,1 km/h (1 Bft) 100 %
13.01.2018 00:57 3,7 C 98 % 1026,6 hPa 0,0 l/m 0,0 km/h (0 Bft) O-NO 63 3,4 C 0,0 km/h (0 Bft) 100 %
13.01.2018 00:58 3,7 C 98 % 1026,6 hPa 0,0 l/m 0,0 km/h (0 Bft) O-NO 63 3,4 C 0,0 km/h (0 Bft) 100 %
13.01.2018 00:59 3,7 C 98 % 1026,6 hPa 0,0 l/m 0,7 km/h (0 Bft) O-SO 105 3,4 C 3,1 km/h (1 Bft) 100 %
13.01.2018 01:00 3,7 C 98 % 1026,6 hPa 0,0 l/m 0,0 km/h (0 Bft) O-SO 105 3,4 C 0,0 km/h (0 Bft) 100 %
13.01.2018 01:01 3,7 C 98 % 1026,6 hPa 0,0 l/m 0,0 km/h (0 Bft) O-SO 105 3,4 C 0,0 km/h (0 Bft) 100 %
13.01.2018 01:02 3,7 C 98 % 1026,7 hPa 0,0 l/m 0,0 km/h (0 Bft) O-SO 105 3,4 C 0,0 km/h (0 Bft) 100 %
13.01.2018 01:03 3,7 C 98 % 1026,7 hPa 0,0 l/m 0,0 km/h (0 Bft) O-SO 105 3,4 C 0,0 km/h (0 Bft) 100 %
13.01.2018 01:04 3,7 C 98 % 1026,7 hPa 0,0 l/m 0,0 km/h (0 Bft) O-SO 105 3,4 C 0,0 km/h (0 Bft) 100 %
13.01.2018 01:05 3,7 C 98 % 1026,6 hPa 0,0 l/m 0,0 km/h (0 Bft) O-SO 105 3,4 C 0,0 km/h (0 Bft) 100 %
13.01.2018 01:06 3,7 C 98 % 1026,6 hPa 0,0 l/m 0,0 km/h (0 Bft) O-SO 105 3,4 C 0,0 km/h (0 Bft) 100 %
13.01.2018 01:07 3,6 C 98 % 1026,6 hPa 0,0 l/m 0,0 km/h (0 Bft) O-SO 105 3,3 C 0,0 km/h (0 Bft) 100 %
13.01.2018 01:08 3,7 C 98 % 1026,6 hPa 0,0 l/m 0,0 km/h (0 Bft) O-SO 105 3,4 C 0,0 km/h (0 Bft) 100 %
13.01.2018 01:09 3,7 C 98 % 1026,6 hPa 0,0 l/m 0,0 km/h (0 Bft) O-SO 104 3,4 C 0,0 km/h (0 Bft) 100 %
13.01.2018 01:10 3,7 C 98 % 1026,6 hPa 0,0 l/m 0,0 km/h (0 Bft) O-SO 104 3,4 C 0,0 km/h (0 Bft) 100 %
13.01.2018 01:11 3,6 C 98 % 1026,6 hPa 0,0 l/m 0,0 km/h (0 Bft) O-SO 104 3,3 C 0,0 km/h (0 Bft) 100 %
13.01.2018 01:12 3,6 C 98 % 1026,6 hPa 0,0 l/m 0,0 km/h (0 Bft) O-SO 104 3,3 C 0,0 km/h (0 Bft) 100 %
13.01.2018 01:13 3,6 C 98 % 1026,6 hPa 0,0 l/m 0,0 km/h (0 Bft) O-SO 104 3,3 C 0,0 km/h (0 Bft) 100 %
13.01.2018 01:14 3,7 C 98 % 1026,6 hPa 0,0 l/m 0,0 km/h (0 Bft) O-SO 104 3,4 C 0,0 km/h (0 Bft) 100 %
13.01.2018 01:15 3,6 C 98 % 1026,6 hPa 0,0 l/m 0,0 km/h (0 Bft) O-SO 104 3,3 C 0,0 km/h (0 Bft) 100 %
13.01.2018 01:16 3,6 C 98 % 1026,6 hPa 0,0 l/m 0,0 km/h (0 Bft) O-SO 104 3,3 C 0,0 km/h (0 Bft) 100 %
13.01.2018 01:17 3,6 C 98 % 1026,6 hPa 0,0 l/m 0,0 km/h (0 Bft) O-SO 104 3,3 C 0,0 km/h (0 Bft) 100 %
13.01.2018 01:18 3,6 C 98 % 1026,6 hPa 0,0 l/m 0,0 km/h (0 Bft) O-SO 104 3,3 C 0,0 km/h (0 Bft) 100 %
13.01.2018 01:19 3,6 C 98 % 1026,6 hPa 0,0 l/m 0,0 km/h (0 Bft) O-SO 104 3,3 C 0,0 km/h (0 Bft) 100 %
13.01.2018 01:20 3,6 C 98 % 1026,6 hPa 0,0 l/m 0,0 km/h (0 Bft) O-SO 104 3,3 C 0,0 km/h (0 Bft) 100 %
13.01.2018 01:21 3,6 C 98 % 1026,6 hPa 0,0 l/m 0,0 km/h (0 Bft) O-SO 104 3,3 C 0,0 km/h (0 Bft) 100 %
13.01.2018 01:22 3,6 C 98 % 1026,7 hPa 0,0 l/m 0,0 km/h (0 Bft) O-SO 104 3,3 C 0,0 km/h (0 Bft) 100 %
13.01.2018 01:23 3,6 C 98 % 1026,6 hPa 0,0 l/m 0,0 km/h (0 Bft) O-SO 104 3,3 C 0,0 km/h (0 Bft) 100 %
13.01.2018 01:24 3,6 C 98 % 1026,6 hPa 0,0 l/m 0,0 km/h (0 Bft) O-SO 104 3,3 C 0,0 km/h (0 Bft) 100 %
13.01.2018 01:25 3,6 C 98 % 1026,7 hPa 0,0 l/m 1,3 km/h (1 Bft) O 82 3,3 C 3,1 km/h (1 Bft) 100 %
13.01.2018 01:26 3,6 C 98 % 1026,7 hPa 0,0 l/m 0,0 km/h (0 Bft) O 82 3,3 C 0,0 km/h (0 Bft) 100 %
13.01.2018 01:27 3,6 C 98 % 1026,6 hPa 0,0 l/m 0,0 km/h (0 Bft) O 82 3,3 C 0,0 km/h (0 Bft) 100 %
13.01.2018 01:28 3,6 C 98 % 1026,6 hPa 0,0 l/m 0,0 km/h (0 Bft) O 82 3,3 C 0,0 km/h (0 Bft) 100 %
13.01.2018 01:29 3,6 C 98 % 1026,6 hPa 0,0 l/m 0,1 km/h (0 Bft) O 82 3,3 C 3,1 km/h (1 Bft) 100 %
13.01.2018 01:30 3,6 C 98 % 1026,6 hPa 0,0 l/m 0,1 km/h (0 Bft) O 82 3,3 C 3,1 km/h (1 Bft) 100 %
13.01.2018 01:31 3,6 C 98 % 1026,6 hPa 0,0 l/m 0,1 km/h (0 Bft) O 82 3,3 C 3,1 km/h (1 Bft) 100 %
13.01.2018 01:32 3,6 C 98 % 1026,6 hPa 0,0 l/m 0,0 km/h (0 Bft) O-SO 104 3,3 C 0,0 km/h (0 Bft) 100 %
13.01.2018 01:33 3,6 C 98 % 1026,5 hPa 0,0 l/m 0,1 km/h (0 Bft) O-SO 105 3,3 C 3,1 km/h (1 Bft) 100 %
13.01.2018 01:34 3,6 C 98 % 1026,6 hPa 0,0 l/m 0,0 km/h (0 Bft) O-SO 105 3,3 C 0,0 km/h (0 Bft) 100 %
13.01.2018 01:35 3,6 C 98 % 1026,6 hPa 0,0 l/m 0,0 km/h (0 Bft) O-SO 105 3,3 C 0,0 km/h (0 Bft) 100 %
13.01.2018 01:36 3,6 C 98 % 1026,7 hPa 0,0 l/m 0,3 km/h (0 Bft) O-NO 66 3,3 C 3,1 km/h (1 Bft) 100 %
13.01.2018 01:37 3,6 C 98 % 1026,6 hPa 0,0 l/m 0,0 km/h (0 Bft) O-NO 66 3,3 C 0,0 km/h (0 Bft) 100 %
13.01.2018 01:38 3,7 C 98 % 1026,6 hPa 0,0 l/m 0,0 km/h (0 Bft) O-NO 66 3,4 C 0,0 km/h (0 Bft) 100 %
13.01.2018 01:39 3,6 C 98 % 1026,6 hPa 0,0 l/m 0,0 km/h (0 Bft) O-NO 66 3,3 C 0,0 km/h (0 Bft) 100 %
13.01.2018 01:40 3,6 C 98 % 1026,6 hPa 0,0 l/m 0,0 km/h (0 Bft) O-NO 66 3,3 C 0,0 km/h (0 Bft) 100 %
13.01.2018 01:41 3,6 C 98 % 1026,6 hPa 0,0 l/m 0,0 km/h (0 Bft) O-NO 66 3,3 C 0,0 km/h (0 Bft) 100 %
13.01.2018 01:42 3,6 C 98 % 1026,6 hPa 0,0 l/m 0,0 km/h (0 Bft) O-NO 66 3,3 C 0,0 km/h (0 Bft) 100 %
13.01.2018 01:43 3,6 C 98 % 1026,6 hPa 0,0 l/m 0,0 km/h (0 Bft) O-NO 66 3,3 C 0,0 km/h (0 Bft) 100 %
13.01.2018 01:44 3,6 C 98 % 1026,6 hPa 0,0 l/m 0,0 km/h (0 Bft) O-NO 66 3,3 C 0,0 km/h (0 Bft) 100 %
13.01.2018 01:45 3,6 C 98 % 1026,6 hPa 0,0 l/m 0,6 km/h (0 Bft) SO 132 3,3 C 3,1 km/h (1 Bft) 100 %
13.01.2018 01:46 3,6 C 98 % 1026,6 hPa 0,0 l/m 0,0 km/h (0 Bft) SO 134 3,3 C 0,0 km/h (0 Bft) 100 %
13.01.2018 01:47 3,6 C 98 % 1026,6 hPa 0,0 l/m 0,0 km/h (0 Bft) SO 134 3,3 C 0,0 km/h (0 Bft) 100 %
13.01.2018 01:48 3,6 C 98 % 1026,5 hPa 0,0 l/m 0,0 km/h (0 Bft) SO 134 3,3 C 0,0 km/h (0 Bft) 100 %
13.01.2018 01:49 3,6 C 98 % 1026,5 hPa 0,0 l/m 0,8 km/h (0 Bft) SO 131 3,3 C 3,1 km/h (1 Bft) 100 %
13.01.2018 01:50 3,6 C 98 % 1026,6 hPa 0,0 l/m 0,0 km/h (0 Bft) O-SO 121 3,3 C 0,0 km/h (0 Bft) 100 %
13.01.2018 01:51 3,6 C 98 % 1026,6 hPa 0,0 l/m 0,4 km/h (0 Bft) O-SO 110 3,3 C 3,1 km/h (1 Bft) 100 %
13.01.2018 01:52 3,6 C 98 % 1026,5 hPa 0,0 l/m 0,1 km/h (0 Bft) O-SO 110 3,3 C 3,1 km/h (1 Bft) 100 %
13.01.2018 01:53 3,6 C 98 % 1026,6 hPa 0,0 l/m 0,1 km/h (0 Bft) O-SO 110 3,3 C 3,1 km/h (1 Bft) 100 %
13.01.2018 01:54 3,6 C 98 % 1026,6 hPa 0,0 l/m 2,2 km/h (1 Bft) O 93 3,3 C 6,3 km/h (2 Bft) 100 %
13.01.2018 01:55 3,6 C 98 % 1026,6 hPa 0,0 l/m 0,0 km/h (0 Bft) O-SO 117 3,3 C 0,0 km/h (0 Bft) 100 %
13.01.2018 01:56 3,6 C 98 % 1026,6 hPa 0,0 l/m 0,8 km/h (0 Bft) O-SO 106 3,3 C 3,1 km/h (1 Bft) 100 %
13.01.2018 01:57 3,6 C 98 % 1026,6 hPa 0,0 l/m 0,0 km/h (0 Bft) O-SO 106 3,3 C 0,0 km/h (0 Bft) 100 %
13.01.2018 01:58 3,6 C 98 % 1026,5 hPa 0,0 l/m 0,0 km/h (0 Bft) O-SO 107 3,3 C 0,0 km/h (0 Bft) 100 %
13.01.2018 01:59 3,6 C 98 % 1026,5 hPa 0,0 l/m 0,0 km/h (0 Bft) O-SO 107 3,3 C 0,0 km/h (0 Bft) 100 %
13.01.2018 02:00 3,6 C 98 % 1026,6 hPa 0,0 l/m 0,0 km/h (0 Bft) O-SO 106 3,3 C 0,0 km/h (0 Bft) 100 %
13.01.2018 02:01 3,6 C 98 % 1026,6 hPa 0,0 l/m 0,0 km/h (0 Bft) O-SO 106 3,3 C 0,0 km/h (0 Bft) 100 %
13.01.2018 02:02 3,6 C 98 % 1026,6 hPa 0,0 l/m 0,0 km/h (0 Bft) O-SO 106 3,3 C 0,0 km/h (0 Bft) 100 %
13.01.2018 02:03 3,6 C 98 % 1026,6 hPa 0,0 l/m 0,0 km/h (0 Bft) O-SO 106 3,3 C 0,0 km/h (0 Bft) 100 %
13.01.2018 02:04 3,6 C 98 % 1026,7 hPa 0,0 l/m 0,0 km/h (0 Bft) O-SO 106 3,3 C 0,0 km/h (0 Bft) 100 %
13.01.2018 02:05 3,6 C 98 % 1026,7 hPa 0,0 l/m 0,6 km/h (0 Bft) SO 135 3,3 C 3,1 km/h (1 Bft) 100 %
13.01.2018 02:06 3,6 C 98 % 1026,6 hPa 0,0 l/m 0,0 km/h (0 Bft) SO 134 3,3 C 0,0 km/h (0 Bft) 100 %
13.01.2018 02:07 3,6 C 98 % 1026,6 hPa 0,0 l/m 0,0 km/h (0 Bft) SO 133 3,3 C 0,0 km/h (0 Bft) 100 %
13.01.2018 02:08 3,6 C 98 % 1026,7 hPa 0,0 l/m 0,0 km/h (0 Bft) O 93 3,3 C 0,0 km/h (0 Bft) 100 %
13.01.2018 02:09 3,6 C 98 % 1026,6 hPa 0,0 l/m 0,3 km/h (0 Bft) O 96 3,3 C 3,1 km/h (1 Bft) 100 %
13.01.2018 02:10 3,6 C 98 % 1026,6 hPa 0,0 l/m 0,0 km/h (0 Bft) O 96 3,3 C 0,0 km/h (0 Bft) 100 %
13.01.2018 02:11 3,7 C 98 % 1026,6 hPa 0,0 l/m 0,0 km/h (0 Bft) O 96 3,4 C 0,0 km/h (0 Bft) 100 %
13.01.2018 02:12 3,6 C 98 % 1026,6 hPa 0,0 l/m 0,0 km/h (0 Bft) O 99 3,3 C 0,0 km/h (0 Bft) 100 %
13.01.2018 02:13 3,6 C 98 % 1026,6 hPa 0,0 l/m 0,0 km/h (0 Bft) O 99 3,3 C 0,0 km/h (0 Bft) 100 %
13.01.2018 02:14 3,6 C 98 % 1026,6 hPa 0,0 l/m 0,0 km/h (0 Bft) O 99 3,3 C 0,0 km/h (0 Bft) 100 %
13.01.2018 02:15 3,6 C 98 % 1026,6 hPa 0,0 l/m 0,0 km/h (0 Bft) O 99 3,3 C 0,0 km/h (0 Bft) 100 %
13.01.2018 02:16 3,6 C 98 % 1026,6 hPa 0,0 l/m 0,0 km/h (0 Bft) O 99 3,3 C 0,0 km/h (0 Bft) 100 %
13.01.2018 02:17 3,6 C 98 % 1026,6 hPa 0,0 l/m 0,0 km/h (0 Bft) O 98 3,3 C 0,0 km/h (0 Bft) 100 %
13.01.2018 02:18 3,6 C 98 % 1026,6 hPa 0,0 l/m 0,0 km/h (0 Bft) O 98 3,3 C 0,0 km/h (0 Bft) 100 %
13.01.2018 02:19 3,6 C 98 % 1026,6 hPa 0,0 l/m 0,0 km/h (0 Bft) O 98 3,3 C 0,0 km/h (0 Bft) 100 %
13.01.2018 02:20 3,6 C 98 % 1026,6 hPa 0,0 l/m 0,0 km/h (0 Bft) O 98 3,3 C 0,0 km/h (0 Bft) 100 %
13.01.2018 02:21 3,6 C 98 % 1026,6 hPa 0,0 l/m 0,0 km/h (0 Bft) O 98 3,3 C 0,0 km/h (0 Bft) 100 %
13.01.2018 02:22 3,6 C 98 % 1026,7 hPa 0,0 l/m 0,0 km/h (0 Bft) O 99 3,3 C 0,0 km/h (0 Bft) 100 %
13.01.2018 02:23 3,6 C 98 % 1026,7 hPa 0,0 l/m 0,0 km/h (0 Bft) O 99 3,3 C 0,0 km/h (0 Bft) 100 %
13.01.2018 02:24 3,6 C 98 % 1026,7 hPa 0,0 l/m 1,5 km/h (1 Bft) O-NO 63 3,3 C 3,1 km/h (1 Bft) 100 %
13.01.2018 02:25 3,6 C 98 % 1026,7 hPa 0,0 l/m 0,0 km/h (0 Bft) O-NO 63 3,3 C 0,0 km/h (0 Bft) 100 %
13.01.2018 02:26 3,6 C 98 % 1026,7 hPa 0,0 l/m 0,5 km/h (0 Bft) O 89 3,3 C 3,1 km/h (1 Bft) 100 %
13.01.2018 02:27 3,6 C 98 % 1026,7 hPa 0,0 l/m 0,0 km/h (0 Bft) O 87 3,3 C 0,0 km/h (0 Bft) 100 %
13.01.2018 02:28 3,6 C 98 % 1026,7 hPa 0,0 l/m 0,4 km/h (0 Bft) NO 44 3,3 C 3,1 km/h (1 Bft) 100 %
13.01.2018 02:29 3,6 C 98 % 1026,7 hPa 0,0 l/m 0,8 km/h (0 Bft) O-NO 75 3,3 C 3,1 km/h (1 Bft) 96 %
13.01.2018 02:30 3,6 C 97 % 1026,7 hPa 0,0 l/m 0,1 km/h (0 Bft) O 94 3,2 C 3,1 km/h (1 Bft) 100 %
13.01.2018 02:31 3,6 C 97 % 1026,7 hPa 0,0 l/m 0,0 km/h (0 Bft) O 90 3,2 C 0,0 km/h (0 Bft) 100 %
13.01.2018 02:32 3,6 C 97 % 1026,7 hPa 0,0 l/m 0,0 km/h (0 Bft) O 90 3,2 C 0,0 km/h (0 Bft) 100 %
13.01.2018 02:33 3,6 C 97 % 1026,7 hPa 0,0 l/m 0,1 km/h (0 Bft) O 90 3,2 C 3,1 km/h (1 Bft) 100 %
13.01.2018 02:34 3,6 C 97 % 1026,7 hPa 0,0 l/m 0,7 km/h (0 Bft) O-SO 117 3,2 C 3,1 km/h (1 Bft) 100 %
13.01.2018 02:35 3,7 C 97 % 1026,7 hPa 0,0 l/m 1,2 km/h (1 Bft) O-NO 66 3,3 C 6,3 km/h (2 Bft) 100 %
13.01.2018 02:36 3,7 C 97 % 1026,7 hPa 0,0 l/m 0,4 km/h (0 Bft) O-NO 67 3,3 C 3,1 km/h (1 Bft) 89 %
13.01.2018 02:37 3,7 C 97 % 1026,7 hPa 0,0 l/m 0,0 km/h (0 Bft) O-NO 63 3,3 C 0,0 km/h (0 Bft) 100 %
13.01.2018 02:38 3,7 C 97 % 1026,7 hPa 0,0 l/m 0,1 km/h (0 Bft) O-NO 64 3,3 C 3,1 km/h (1 Bft) 100 %
13.01.2018 02:39 3,7 C 97 % 1026,7 hPa 0,0 l/m 0,0 km/h (0 Bft) O-NO 64 3,3 C 0,0 km/h (0 Bft) 100 %
13.01.2018 02:40 3,7 C 97 % 1026,7 hPa 0,0 l/m 0,0 km/h (0 Bft) O-NO 64 3,3 C 0,0 km/h (0 Bft) 96 %
13.01.2018 02:41 3,6 C 97 % 1026,7 hPa 0,0 l/m 0,0 km/h (0 Bft) O-NO 64 3,2 C 0,0 km/h (0 Bft) 96 %
13.01.2018 02:42 3,7 C 97 % 1026,7 hPa 0,0 l/m 1,6 km/h (1 Bft) O-SO 108 3,3 C 3,1 km/h (1 Bft) 100 %
13.01.2018 02:43 3,7 C 97 % 1026,7 hPa 0,0 l/m 0,4 km/h (0 Bft) SO 133 3,3 C 3,1 km/h (1 Bft) 96 %
13.01.2018 02:44 3,7 C 97 % 1026,7 hPa 0,0 l/m 0,5 km/h (0 Bft) O-SO 119 3,3 C 3,1 km/h (1 Bft) 100 %
13.01.2018 02:45 3,7 C 97 % 1026,7 hPa 0,0 l/m 2,5 km/h (1 Bft) O 98 3,3 C 6,3 km/h (2 Bft) 96 %
13.01.2018 02:46 3,7 C 97 % 1026,7 hPa 0,0 l/m 1,5 km/h (1 Bft) NO 45 3,3 C 6,3 km/h (2 Bft) 100 %
13.01.2018 02:47 3,7 C 97 % 1026,7 hPa 0,0 l/m 1,3 km/h (1 Bft) O 79 3,3 C 3,1 km/h (1 Bft) 96 %
13.01.2018 02:48 3,7 C 97 % 1026,7 hPa 0,0 l/m 6,3 km/h (2 Bft) O 92 3,3 C 12,6 km/h (3 Bft) 100 %
13.01.2018 02:49 3,7 C 97 % 1026,7 hPa 0,0 l/m 1,9 km/h (1 Bft) SO 128 3,3 C 3,1 km/h (1 Bft) 96 %
13.01.2018 02:50 3,7 C 97 % 1026,7 hPa 0,0 l/m 1,1 km/h (1 Bft) O-SO 107 3,3 C 3,1 km/h (1 Bft) 100 %
13.01.2018 02:51 3,7 C 97 % 1026,7 hPa 0,0 l/m 0,5 km/h (0 Bft) N-NO 21 3,3 C 6,3 km/h (2 Bft) 96 %
13.01.2018 02:52 3,7 C 97 % 1026,7 hPa 0,0 l/m 3,9 km/h (1 Bft) O 79 3,3 C 6,3 km/h (2 Bft) 100 %
13.01.2018 02:53 3,7 C 97 % 1026,7 hPa 0,0 l/m 0,0 km/h (0 Bft) O 79 3,3 C 0,0 km/h (0 Bft) 96 %
13.01.2018 02:54 3,7 C 97 % 1026,7 hPa 0,0 l/m 0,1 km/h (0 Bft) O 79 3,3 C 3,1 km/h (1 Bft) 91 %
13.01.2018 02:55 3,7 C 97 % 1026,7 hPa 0,0 l/m 0,0 km/h (0 Bft) O 79 3,3 C 0,0 km/h (0 Bft) 100 %
13.01.2018 02:56 3,7 C 97 % 1026,7 hPa 0,0 l/m 0,0 km/h (0 Bft) O 79 3,3 C 0,0 km/h (0 Bft) 96 %
13.01.2018 02:57 3,7 C 97 % 1026,6 hPa 0,0 l/m 1,4 km/h (1 Bft) O-NO 77 3,3 C 3,1 km/h (1 Bft) 100 %
13.01.2018 02:58 3,7 C 97 % 1026,6 hPa 0,0 l/m 0,0 km/h (0 Bft) O-NO 77 3,3 C 0,0 km/h (0 Bft) 96 %
13.01.2018 02:59 3,7 C 97 % 1026,6 hPa 0,0 l/m 0,0 km/h (0 Bft) O-NO 77 3,3 C 0,0 km/h (0 Bft) 100 %
13.01.2018 03:00 3,7 C 97 % 1026,6 hPa 0,0 l/m 0,0 km/h (0 Bft) O-NO 77 3,3 C 0,0 km/h (0 Bft) 96 %
13.01.2018 03:01 3,7 C 97 % 1026,6 hPa 0,0 l/m 0,0 km/h (0 Bft) O-NO 77 3,3 C 0,0 km/h (0 Bft) 96 %
13.01.2018 03:02 3,7 C 97 % 1026,7 hPa 0,0 l/m 1,0 km/h (0 Bft) O-SO 105 3,3 C 3,1 km/h (1 Bft) 100 %
13.01.2018 03:03 3,7 C 97 % 1026,6 hPa 0,0 l/m 0,8 km/h (0 Bft) O-SO 110 3,3 C 3,1 km/h (1 Bft) 96 %
13.01.2018 03:04 3,7 C 97 % 1026,6 hPa 0,0 l/m 0,0 km/h (0 Bft) O-SO 110 3,3 C 0,0 km/h (0 Bft) 100 %
13.01.2018 03:05 3,7 C 97 % 1026,6 hPa 0,0 l/m 0,1 km/h (0 Bft) O-SO 109 3,3 C 3,1 km/h (1 Bft) 96 %
13.01.2018 03:06 3,7 C 97 % 1026,6 hPa 0,0 l/m 0,1 km/h (0 Bft) O-SO 110 3,3 C 3,1 km/h (1 Bft) 100 %
13.01.2018 03:07 3,7 C 97 % 1026,7 hPa 0,0 l/m 0,0 km/h (0 Bft) O-SO 109 3,3 C 0,0 km/h (0 Bft) 96 %
13.01.2018 03:08 3,7 C 97 % 1026,6 hPa 0,0 l/m 0,0 km/h (0 Bft) O-SO 109 3,3 C 0,0 km/h (0 Bft) 100 %
13.01.2018 03:09 3,7 C 97 % 1026,6 hPa 0,0 l/m 0,0 km/h (0 Bft) O-SO 110 3,3 C 0,0 km/h (0 Bft) 96 %
13.01.2018 03:10 3,7 C 97 % 1026,6 hPa 0,0 l/m 0,0 km/h (0 Bft) O-SO 109 3,3 C 0,0 km/h (0 Bft) 96 %
13.01.2018 03:11 3,7 C 97 % 1026,6 hPa 0,0 l/m 2,0 km/h (1 Bft) O 100 3,3 C 6,3 km/h (2 Bft) 100 %
13.01.2018 03:12 3,7 C 97 % 1026,6 hPa 0,0 l/m 0,4 km/h (0 Bft) O 100 3,3 C 3,1 km/h (1 Bft) 96 %
13.01.2018 03:13 3,6 C 97 % 1026,6 hPa 0,0 l/m 0,1 km/h (0 Bft) O 96 3,2 C 3,1 km/h (1 Bft) 100 %
13.01.2018 03:14 3,7 C 97 % 1026,5 hPa 0,0 l/m 0,1 km/h (0 Bft) O-NO 77 3,3 C 3,1 km/h (1 Bft) 96 %
13.01.2018 03:15 3,7 C 97 % 1026,5 hPa 0,0 l/m 0,0 km/h (0 Bft) O-NO 77 3,3 C 0,0 km/h (0 Bft) 100 %
13.01.2018 03:16 3,7 C 97 % 1026,5 hPa 0,0 l/m 0,0 km/h (0 Bft) O-NO 77 3,3 C 0,0 km/h (0 Bft) 100 %
13.01.2018 03:17 3,6 C 97 % 1026,5 hPa 0,0 l/m 0,0 km/h (0 Bft) O-NO 77 3,2 C 0,0 km/h (0 Bft) 100 %
13.01.2018 03:18 3,7 C 97 % 1026,5 hPa 0,0 l/m 0,0 km/h (0 Bft) O-NO 77 3,3 C 0,0 km/h (0 Bft) 100 %
13.01.2018 03:19 3,6 C 97 % 1026,6 hPa 0,0 l/m 0,0 km/h (0 Bft) O-NO 77 3,2 C 0,0 km/h (0 Bft) 100 %
13.01.2018 03:20 3,6 C 97 % 1026,6 hPa 0,0 l/m 0,0 km/h (0 Bft) O-NO 77 3,2 C 0,0 km/h (0 Bft) 100 %
13.01.2018 03:21 3,6 C 97 % 1026,6 hPa 0,0 l/m 0,0 km/h (0 Bft) O-NO 77 3,2 C 0,0 km/h (0 Bft) 100 %
13.01.2018 03:22 3,6 C 97 % 1026,6 hPa 0,0 l/m 0,0 km/h (0 Bft) O-NO 77 3,2 C 0,0 km/h (0 Bft) 100 %
13.01.2018 03:23 3,6 C 97 % 1026,5 hPa 0,0 l/m 0,1 km/h (0 Bft) O-NO 77 3,2 C 3,1 km/h (1 Bft) 100 %
13.01.2018 03:24 3,6 C 97 % 1026,6 hPa 0,0 l/m 0,0 km/h (0 Bft) O-NO 77 3,2 C 0,0 km/h (0 Bft) 100 %
13.01.2018 03:25 3,6 C 97 % 1026,5 hPa 0,0 l/m 0,0 km/h (0 Bft) O-NO 77 3,2 C 0,0 km/h (0 Bft) 100 %
13.01.2018 03:26 3,6 C 97 % 1026,5 hPa 0,0 l/m 0,0 km/h (0 Bft) O-NO 77 3,2 C 0,0 km/h (0 Bft) 100 %
13.01.2018 03:27 3,6 C 97 % 1026,5 hPa 0,0 l/m 0,0 km/h (0 Bft) O-NO 77 3,2 C 0,0 km/h (0 Bft) 100 %
13.01.2018 03:28 3,6 C 97 % 1026,5 hPa 0,0 l/m 0,1 km/h (0 Bft) O-NO 77 3,2 C 3,1 km/h (1 Bft) 100 %
13.01.2018 03:29 3,6 C 97 % 1026,5 hPa 0,0 l/m 0,0 km/h (0 Bft) O-NO 77 3,2 C 0,0 km/h (0 Bft) 100 %
13.01.2018 03:30 3,6 C 97 % 1026,5 hPa 0,0 l/m 0,0 km/h (0 Bft) O-NO 77 3,2 C 0,0 km/h (0 Bft) 100 %
13.01.2018 03:31 3,6 C 97 % 1026,5 hPa 0,0 l/m 0,2 km/h (0 Bft) O-NO 77 3,2 C 3,1 km/h (1 Bft) 100 %
13.01.2018 03:32 3,6 C 97 % 1026,5 hPa 0,0 l/m 0,0 km/h (0 Bft) O-NO 77 3,2 C 0,0 km/h (0 Bft) 100 %
13.01.2018 03:33 3,7 C 97 % 1026,5 hPa 0,0 l/m 0,0 km/h (0 Bft) O-NO 77 3,3 C 0,0 km/h (0 Bft) 100 %
13.01.2018 03:34 3,6 C 97 % 1026,5 hPa 0,0 l/m 0,0 km/h (0 Bft) O-NO 77 3,2 C 0,0 km/h (0 Bft) 100 %
13.01.2018 03:35 3,6 C 97 % 1026,6 hPa 0,0 l/m 0,0 km/h (0 Bft) O-NO 78 3,2 C 0,0 km/h (0 Bft) 100 %
13.01.2018 03:36 3,6 C 97 % 1026,6 hPa 0,0 l/m 0,0 km/h (0 Bft) O-NO 78 3,2 C 0,0 km/h (0 Bft) 100 %
13.01.2018 03:37 3,6 C 97 % 1026,6 hPa 0,0 l/m 0,0 km/h (0 Bft) O-NO 78 3,2 C 0,0 km/h (0 Bft) 100 %
13.01.2018 03:38 3,6 C 97 % 1026,6 hPa 0,0 l/m 0,0 km/h (0 Bft) O-NO 78 3,2 C 0,0 km/h (0 Bft) 100 %
13.01.2018 03:39 3,6 C 97 % 1026,5 hPa 0,0 l/m 0,0 km/h (0 Bft) O-NO 78 3,2 C 0,0 km/h (0 Bft) 100 %
13.01.2018 03:40 3,6 C 97 % 1026,5 hPa 0,0 l/m 0,0 km/h (0 Bft) O-NO 78 3,2 C 0,0 km/h (0 Bft) 100 %
13.01.2018 03:41 3,6 C 97 % 1026,5 hPa 0,0 l/m 0,5 km/h (0 Bft) O-NO 78 3,2 C 3,1 km/h (1 Bft) 100 %
13.01.2018 03:42 3,6 C 97 % 1026,5 hPa 0,0 l/m 0,0 km/h (0 Bft) O-NO 78 3,2 C 0,0 km/h (0 Bft) 100 %
13.01.2018 03:43 3,7 C 97 % 1026,5 hPa 0,0 l/m 0,0 km/h (0 Bft) O-NO 78 3,3 C 0,0 km/h (0 Bft) 100 %
13.01.2018 03:44 3,7 C 97 % 1026,5 hPa 0,0 l/m 0,1 km/h (0 Bft) O-SO 103 3,3 C 3,1 km/h (1 Bft) 100 %
13.01.2018 03:45 3,7 C 97 % 1026,5 hPa 0,0 l/m 0,0 km/h (0 Bft) O-SO 103 3,3 C 0,0 km/h (0 Bft) 100 %
13.01.2018 03:46 3,7 C 97 % 1026,5 hPa 0,0 l/m 0,0 km/h (0 Bft) O-SO 103 3,3 C 0,0 km/h (0 Bft) 100 %
13.01.2018 03:47 3,7 C 97 % 1026,5 hPa 0,0 l/m 0,0 km/h (0 Bft) O-SO 103 3,3 C 0,0 km/h (0 Bft) 100 %
13.01.2018 03:48 3,7 C 97 % 1026,5 hPa 0,0 l/m 0,0 km/h (0 Bft) O-SO 103 3,3 C 0,0 km/h (0 Bft) 97 %
13.01.2018 03:49 3,6 C 97 % 1026,5 hPa 0,0 l/m 0,0 km/h (0 Bft) O-SO 103 3,2 C 0,0 km/h (0 Bft) 100 %
13.01.2018 03:50 3,6 C 97 % 1026,5 hPa 0,0 l/m 0,0 km/h (0 Bft) O-SO 103 3,2 C 0,0 km/h (0 Bft) 100 %
13.01.2018 03:51 3,7 C 97 % 1026,5 hPa 0,0 l/m 0,0 km/h (0 Bft) O-SO 102 3,3 C 0,0 km/h (0 Bft) 100 %
13.01.2018 03:52 3,7 C 97 % 1026,5 hPa 0,0 l/m 0,0 km/h (0 Bft) O-SO 102 3,3 C 0,0 km/h (0 Bft) 100 %
13.01.2018 03:53 3,7 C 97 % 1026,5 hPa 0,0 l/m 2,1 km/h (1 Bft) O-SO 122 3,3 C 9,4 km/h (2 Bft) 100 %
13.01.2018 03:54 3,6 C 97 % 1026,5 hPa 0,0 l/m 0,0 km/h (0 Bft) O-SO 122 3,2 C 0,0 km/h (0 Bft) 100 %
13.01.2018 03:55 3,6 C 97 % 1026,5 hPa 0,0 l/m 0,0 km/h (0 Bft) O-SO 122 3,2 C 0,0 km/h (0 Bft) 100 %
13.01.2018 03:56 3,6 C 97 % 1026,5 hPa 0,0 l/m 0,1 km/h (0 Bft) O-SO 122 3,2 C 3,1 km/h (1 Bft) 100 %
13.01.2018 03:57 3,6 C 97 % 1026,5 hPa 0,0 l/m 0,0 km/h (0 Bft) O-SO 117 3,2 C 0,0 km/h (0 Bft) 100 %
13.01.2018 03:58 3,7 C 97 % 1026,5 hPa 0,0 l/m 0,0 km/h (0 Bft) O-SO 117 3,3 C 0,0 km/h (0 Bft) 100 %
13.01.2018 03:59 3,6 C 97 % 1026,5 hPa 0,0 l/m 0,0 km/h (0 Bft) O-SO 117 3,2 C 0,0 km/h (0 Bft) 96 %
13.01.2018 04:00 3,6 C 97 % 1026,5 hPa 0,0 l/m 0,5 km/h (0 Bft) O-SO 114 3,2 C 3,1 km/h (1 Bft) 100 %
13.01.2018 04:01 3,6 C 97 % 1026,5 hPa 0,0 l/m 1,6 km/h (1 Bft) O 96 3,2 C 3,1 km/h (1 Bft) 100 %
13.01.2018 04:02 3,6 C 97 % 1026,5 hPa 0,0 l/m 1,4 km/h (1 Bft) SO 141 3,2 C 6,3 km/h (2 Bft) 100 %
13.01.2018 04:03 3,6 C 97 % 1026,5 hPa 0,0 l/m 1,0 km/h (0 Bft) O-NO 71 3,2 C 6,3 km/h (2 Bft) 100 %
13.01.2018 04:04 3,6 C 97 % 1026,5 hPa 0,0 l/m 0,7 km/h (0 Bft) O-SO 115 3,2 C 6,3 km/h (2 Bft) 100 %
13.01.2018 04:05 3,6 C 97 % 1026,5 hPa 0,0 l/m 1,2 km/h (1 Bft) O-NO 75 3,2 C 3,1 km/h (1 Bft) 100 %
13.01.2018 04:06 3,6 C 97 % 1026,4 hPa 0,0 l/m 0,7 km/h (0 Bft) O-SO 122 3,2 C 3,1 km/h (1 Bft) 100 %
13.01.2018 04:07 3,6 C 97 % 1026,4 hPa 0,0 l/m 0,0 km/h (0 Bft) O-SO 122 3,2 C 0,0 km/h (0 Bft) 100 %
13.01.2018 04:08 3,6 C 97 % 1026,4 hPa 0,0 l/m 1,5 km/h (1 Bft) O 83 3,2 C 6,3 km/h (2 Bft) 100 %
13.01.2018 04:09 3,6 C 97 % 1026,4 hPa 0,0 l/m 0,2 km/h (0 Bft) O 84 3,2 C 3,1 km/h (1 Bft) 100 %
13.01.2018 04:10 3,6 C 97 % 1026,4 hPa 0,0 l/m 2,4 km/h (1 Bft) O 98 3,2 C 6,3 km/h (2 Bft) 100 %
13.01.2018 04:11 3,6 C 97 % 1026,4 hPa 0,0 l/m 0,0 km/h (0 Bft) O 98 3,2 C 0,0 km/h (0 Bft) 100 %
13.01.2018 04:12 3,6 C 97 % 1026,3 hPa 0,0 l/m 0,3 km/h (0 Bft) O 79 3,2 C 3,1 km/h (1 Bft) 100 %
13.01.2018 04:13 3,6 C 97 % 1026,3 hPa 0,0 l/m 0,7 km/h (0 Bft) O-SO 112 3,2 C 3,1 km/h (1 Bft) 100 %
13.01.2018 04:14 3,6 C 97 % 1026,3 hPa 0,0 l/m 0,0 km/h (0 Bft) O-SO 112 3,2 C 0,0 km/h (0 Bft) 100 %
13.01.2018 04:15 3,6 C 97 % 1026,3 hPa 0,0 l/m 2,2 km/h (1 Bft) O 96 3,2 C 6,3 km/h (2 Bft) 100 %
13.01.2018 04:16 3,6 C 97 % 1026,3 hPa 0,0 l/m 3,6 km/h (1 Bft) O 81 3,2 C 9,4 km/h (2 Bft) 100 %
13.01.2018 04:17 3,6 C 97 % 1026,3 hPa 0,0 l/m 1,5 km/h (1 Bft) O 84 3,2 C 6,3 km/h (2 Bft) 100 %
13.01.2018 04:18 3,6 C 97 % 1026,3 hPa 0,0 l/m 5,7 km/h (1 Bft) O-SO 103 3,2 C 12,6 km/h (3 Bft) 100 %
13.01.2018 04:19 3,6 C 96 % 1026,3 hPa 0,0 l/m 0,1 km/h (0 Bft) O-SO 103 3,0 C 3,1 km/h (1 Bft) 96 %
13.01.2018 04:20 3,6 C 96 % 1026,3 hPa 0,0 l/m 0,0 km/h (0 Bft) O-SO 103 3,0 C 0,0 km/h (0 Bft) 100 %
13.01.2018 04:21 3,6 C 96 % 1026,3 hPa 0,0 l/m 0,0 km/h (0 Bft) O-SO 103 3,0 C 0,0 km/h (0 Bft) 100 %
13.01.2018 04:22 3,6 C 96 % 1026,3 hPa 0,0 l/m 1,0 km/h (0 Bft) NO 37 3,0 C 6,3 km/h (2 Bft) 100 %
13.01.2018 04:23 3,6 C 96 % 1026,3 hPa 0,0 l/m 1,6 km/h (1 Bft) O 95 3,0 C 6,3 km/h (2 Bft) 100 %
13.01.2018 04:24 3,6 C 96 % 1026,3 hPa 0,0 l/m 2,6 km/h (1 Bft) O-SO 112 3,0 C 6,3 km/h (2 Bft) 100 %
13.01.2018 04:25 3,6 C 96 % 1026,3 hPa 0,0 l/m 0,1 km/h (0 Bft) O-SO 111 3,0 C 3,1 km/h (1 Bft) 100 %
13.01.2018 04:26 3,6 C 96 % 1026,4 hPa 0,0 l/m 1,0 km/h (0 Bft) O-SO 112 3,0 C 6,3 km/h (2 Bft) 100 %
13.01.2018 04:27 3,6 C 96 % 1026,4 hPa 0,0 l/m 2,3 km/h (1 Bft) O 86 3,0 C 6,3 km/h (2 Bft) 100 %
13.01.2018 04:28 3,6 C 96 % 1026,4 hPa 0,0 l/m 0,0 km/h (0 Bft) O 86 3,0 C 0,0 km/h (0 Bft) 100 %
13.01.2018 04:29 3,6 C 96 % 1026,4 hPa 0,0 l/m 0,5 km/h (0 Bft) NO 54 3,0 C 3,1 km/h (1 Bft) 100 %
13.01.2018 04:30 3,6 C 96 % 1026,4 hPa 0,0 l/m 3,3 km/h (1 Bft) NO 40 3,0 C 9,4 km/h (2 Bft) 100 %
13.01.2018 04:31 3,6 C 96 % 1026,4 hPa 0,0 l/m 4,8 km/h (1 Bft) O-NO 69 3,0 C 9,4 km/h (2 Bft) 100 %
13.01.2018 04:32 3,6 C 96 % 1026,4 hPa 0,0 l/m 3,6 km/h (1 Bft) O-NO 71 3,0 C 6,3 km/h (2 Bft) 100 %
13.01.2018 04:33 3,6 C 96 % 1026,4 hPa 0,0 l/m 0,7 km/h (0 Bft) O-NO 60 3,0 C 3,1 km/h (1 Bft) 100 %
13.01.2018 04:34 3,6 C 96 % 1026,4 hPa 0,0 l/m 4,8 km/h (1 Bft) O-SO 108 3,0 C 9,4 km/h (2 Bft) 100 %
13.01.2018 04:35 3,6 C 96 % 1026,4 hPa 0,0 l/m 1,7 km/h (1 Bft) O-SO 106 3,0 C 6,3 km/h (2 Bft) 100 %
13.01.2018 04:36 3,6 C 96 % 1026,4 hPa 0,0 l/m 0,1 km/h (0 Bft) O-SO 106 3,0 C 3,1 km/h (1 Bft) 100 %
13.01.2018 04:37 3,6 C 96 % 1026,4 hPa 0,0 l/m 0,9 km/h (0 Bft) O 91 3,0 C 3,1 km/h (1 Bft) 100 %
13.01.2018 04:38 3,7 C 96 % 1026,4 hPa 0,0 l/m 0,3 km/h (0 Bft) O-NO 68 3,1 C 3,1 km/h (1 Bft) 100 %
13.01.2018 04:39 3,7 C 96 % 1026,4 hPa 0,0 l/m 1,6 km/h (1 Bft) O-NO 74 3,1 C 3,1 km/h (1 Bft) 100 %
13.01.2018 04:40 3,7 C 96 % 1026,4 hPa 0,0 l/m 1,4 km/h (1 Bft) O-NO 65 3,1 C 6,3 km/h (2 Bft) 100 %
13.01.2018 04:41 3,7 C 96 % 1026,4 hPa 0,0 l/m 2,2 km/h (1 Bft) O-SO 104 3,1 C 6,3 km/h (2 Bft) 100 %
13.01.2018 04:42 3,7 C 96 % 1026,4 hPa 0,0 l/m 0,0 km/h (0 Bft) O-SO 106 3,1 C 0,0 km/h (0 Bft) 100 %
13.01.2018 04:43 3,7 C 96 % 1026,4 hPa 0,0 l/m 0,1 km/h (0 Bft) O-SO 106 3,1 C 3,1 km/h (1 Bft) 100 %
13.01.2018 04:44 3,7 C 96 % 1026,4 hPa 0,0 l/m 0,0 km/h (0 Bft) O-SO 106 3,1 C 0,0 km/h (0 Bft) 100 %
13.01.2018 04:45 3,7 C 96 % 1026,4 hPa 0,0 l/m 0,0 km/h (0 Bft) O-SO 106 3,1 C 0,0 km/h (0 Bft) 100 %
13.01.2018 04:46 3,6 C 96 % 1026,4 hPa 0,0 l/m 0,1 km/h (0 Bft) O 83 3,0 C 3,1 km/h (1 Bft) 100 %
13.01.2018 04:47 3,7 C 96 % 1026,4 hPa 0,0 l/m 0,0 km/h (0 Bft) O 84 3,1 C 0,0 km/h (0 Bft) 100 %
13.01.2018 04:48 3,6 C 96 % 1026,4 hPa 0,0 l/m 0,3 km/h (0 Bft) O 82 3,0 C 3,1 km/h (1 Bft) 100 %
13.01.2018 04:49 3,6 C 96 % 1026,4 hPa 0,0 l/m 0,0 km/h (0 Bft) O 82 3,0 C 0,0 km/h (0 Bft) 100 %
13.01.2018 04:50 3,6 C 96 % 1026,4 hPa 0,0 l/m 0,3 km/h (0 Bft) O 88 3,0 C 3,1 km/h (1 Bft) 100 %
13.01.2018 04:51 3,6 C 96 % 1026,4 hPa 0,0 l/m 0,2 km/h (0 Bft) O 88 3,0 C 3,1 km/h (1 Bft) 100 %
13.01.2018 04:52 3,6 C 96 % 1026,4 hPa 0,0 l/m 0,0 km/h (0 Bft) O 88 3,0 C 0,0 km/h (0 Bft) 100 %
13.01.2018 04:53 3,6 C 96 % 1026,3 hPa 0,0 l/m 0,0 km/h (0 Bft) O 88 3,0 C 0,0 km/h (0 Bft) 100 %
13.01.2018 04:54 3,6 C 96 % 1026,3 hPa 0,0 l/m 0,0 km/h (0 Bft) O 88 3,0 C 0,0 km/h (0 Bft) 100 %
13.01.2018 04:55 3,6 C 96 % 1026,3 hPa 0,0 l/m 0,0 km/h (0 Bft) O 88 3,0 C 0,0 km/h (0 Bft) 100 %
13.01.2018 04:56 3,6 C 96 % 1026,3 hPa 0,0 l/m 0,0 km/h (0 Bft) O 88 3,0 C 0,0 km/h (0 Bft) 100 %
13.01.2018 04:57 3,6 C 96 % 1026,3 hPa 0,0 l/m 0,7 km/h (0 Bft) O-NO 71 3,0 C 3,1 km/h (1 Bft) 100 %
13.01.2018 04:58 3,6 C 96 % 1026,3 hPa 0,0 l/m 0,4 km/h (0 Bft) O-NO 71 3,0 C 3,1 km/h (1 Bft) 100 %
13.01.2018 04:59 3,6 C 96 % 1026,3 hPa 0,0 l/m 1,8 km/h (1 Bft) O-NO 58 3,0 C 6,3 km/h (2 Bft) 100 %
13.01.2018 05:00 3,6 C 96 % 1026,2 hPa 0,0 l/m 0,8 km/h (0 Bft) O-NO 59 3,0 C 3,1 km/h (1 Bft) 100 %
13.01.2018 05:01 3,6 C 96 % 1026,3 hPa 0,0 l/m 0,0 km/h (0 Bft) O-NO 60 3,0 C 0,0 km/h (0 Bft) 100 %
13.01.2018 05:02 3,6 C 96 % 1026,3 hPa 0,0 l/m 0,1 km/h (0 Bft) O-NO 59 3,0 C 3,1 km/h (1 Bft) 100 %
13.01.2018 05:03 3,6 C 96 % 1026,3 hPa 0,0 l/m 0,0 km/h (0 Bft) O-NO 59 3,0 C 0,0 km/h (0 Bft) 100 %
13.01.2018 05:04 3,6 C 96 % 1026,3 hPa 0,0 l/m 0,0 km/h (0 Bft) O-NO 59 3,0 C 0,0 km/h (0 Bft) 100 %
13.01.2018 05:05 3,6 C 96 % 1026,3 hPa 0,0 l/m 0,1 km/h (0 Bft) O-NO 75 3,0 C 3,1 km/h (1 Bft) 100 %
13.01.2018 05:06 3,6 C 96 % 1026,2 hPa 0,0 l/m 0,3 km/h (0 Bft) O-NO 74 3,0 C 3,1 km/h (1 Bft) 100 %
13.01.2018 05:07 3,6 C 96 % 1026,3 hPa 0,0 l/m 0,3 km/h (0 Bft) O-NO 74 3,0 C 3,1 km/h (1 Bft) 100 %
13.01.2018 05:08 3,6 C 96 % 1026,2 hPa 0,0 l/m 0,0 km/h (0 Bft) O-NO 74 3,0 C 0,0 km/h (0 Bft) 100 %
13.01.2018 05:09 3,6 C 96 % 1026,2 hPa 0,0 l/m 0,8 km/h (0 Bft) O-NO 75 3,0 C 3,1 km/h (1 Bft) 100 %
13.01.2018 05:10 3,6 C 96 % 1026,2 hPa 0,0 l/m 0,0 km/h (0 Bft) O-NO 75 3,0 C 0,0 km/h (0 Bft) 100 %
13.01.2018 05:11 3,6 C 96 % 1026,2 hPa 0,0 l/m 0,0 km/h (0 Bft) O-NO 75 3,0 C 0,0 km/h (0 Bft) 100 %
13.01.2018 05:12 3,6 C 96 % 1026,2 hPa 0,0 l/m 0,0 km/h (0 Bft) O-NO 75 3,0 C 0,0 km/h (0 Bft) 100 %
13.01.2018 05:13 3,6 C 96 % 1026,2 hPa 0,0 l/m 0,1 km/h (0 Bft) O-NO 76 3,0 C 3,1 km/h (1 Bft) 100 %
13.01.2018 05:14 3,6 C 96 % 1026,1 hPa 0,0 l/m 0,1 km/h (0 Bft) O-NO 77 3,0 C 3,1 km/h (1 Bft) 100 %
13.01.2018 05:15 3,6 C 96 % 1026,1 hPa 0,0 l/m 0,1 km/h (0 Bft) O-NO 77 3,0 C 3,1 km/h (1 Bft) 100 %
13.01.2018 05:16 3,6 C 96 % 1026,2 hPa 0,0 l/m 0,0 km/h (0 Bft) O-NO 77 3,0 C 0,0 km/h (0 Bft) 100 %
13.01.2018 05:17 3,6 C 96 % 1026,2 hPa 0,0 l/m 0,0 km/h (0 Bft) O-NO 77 3,0 C 0,0 km/h (0 Bft) 100 %
13.01.2018 05:18 3,6 C 96 % 1026,1 hPa 0,0 l/m 0,0 km/h (0 Bft) O 95 3,0 C 0,0 km/h (0 Bft) 100 %
13.01.2018 05:19 3,6 C 96 % 1026,1 hPa 0,0 l/m 0,1 km/h (0 Bft) SO 127 3,0 C 3,1 km/h (1 Bft) 100 %
13.01.2018 05:20 3,6 C 96 % 1026,1 hPa 0,0 l/m 0,8 km/h (0 Bft) O 79 3,0 C 3,1 km/h (1 Bft) 100 %
13.01.2018 05:21 3,6 C 96 % 1026,1 hPa 0,0 l/m 0,0 km/h (0 Bft) O 79 3,0 C 0,0 km/h (0 Bft) 100 %
13.01.2018 05:22 3,6 C 96 % 1026,1 hPa 0,0 l/m 1,0 km/h (0 Bft) O-SO 107 3,0 C 3,1 km/h (1 Bft) 100 %
13.01.2018 05:23 3,6 C 96 % 1026,1 hPa 0,0 l/m 0,0 km/h (0 Bft) O-SO 107 3,0 C 0,0 km/h (0 Bft) 100 %
13.01.2018 05:24 3,6 C 96 % 1026,1 hPa 0,0 l/m 0,1 km/h (0 Bft) O-SO 107 3,0 C 3,1 km/h (1 Bft) 100 %
13.01.2018 05:25 3,6 C 96 % 1026,1 hPa 0,0 l/m 0,0 km/h (0 Bft) O-SO 107 3,0 C 0,0 km/h (0 Bft) 100 %
13.01.2018 05:26 3,6 C 96 % 1026,1 hPa 0,0 l/m 1,0 km/h (0 Bft) NO 54 3,0 C 6,3 km/h (2 Bft) 100 %
13.01.2018 05:27 3,6 C 96 % 1026,1 hPa 0,0 l/m 0,0 km/h (0 Bft) NO 54 3,0 C 0,0 km/h (0 Bft) 100 %
13.01.2018 05:28 3,6 C 96 % 1026,1 hPa 0,0 l/m 0,0 km/h (0 Bft) NO 54 3,0 C 0,0 km/h (0 Bft) 100 %
13.01.2018 05:29 3,6 C 96 % 1026,1 hPa 0,0 l/m 0,5 km/h (0 Bft) O-NO 78 3,0 C 3,1 km/h (1 Bft) 100 %
13.01.2018 05:30 3,6 C 96 % 1026,1 hPa 0,0 l/m 0,1 km/h (0 Bft) O-NO 75 3,0 C 3,1 km/h (1 Bft) 100 %
13.01.2018 05:31 3,6 C 96 % 1026,1 hPa 0,0 l/m 0,0 km/h (0 Bft) O-NO 74 3,0 C 0,0 km/h (0 Bft) 100 %
13.01.2018 05:32 3,6 C 96 % 1026,1 hPa 0,0 l/m 0,0 km/h (0 Bft) O-NO 78 3,0 C 0,0 km/h (0 Bft) 100 %
13.01.2018 05:33 3,6 C 96 % 1026,1 hPa 0,0 l/m 0,0 km/h (0 Bft) O-NO 78 3,0 C 0,0 km/h (0 Bft) 100 %
13.01.2018 05:34 3,5 C 96 % 1026,1 hPa 0,0 l/m 0,6 km/h (0 Bft) O 81 2,9 C 3,1 km/h (1 Bft) 100 %
13.01.2018 05:35 3,5 C 96 % 1026,1 hPa 0,0 l/m 0,0 km/h (0 Bft) O 81 2,9 C 0,0 km/h (0 Bft) 100 %
13.01.2018 05:36 3,5 C 96 % 1026,1 hPa 0,0 l/m 0,5 km/h (0 Bft) O-NO 75 2,9 C 3,1 km/h (1 Bft) 100 %
13.01.2018 05:37 3,5 C 96 % 1026,1 hPa 0,0 l/m 0,5 km/h (0 Bft) O-NO 75 2,9 C 3,1 km/h (1 Bft) 100 %
13.01.2018 05:38 3,5 C 96 % 1026,1 hPa 0,0 l/m 0,1 km/h (0 Bft) O 80 2,9 C 3,1 km/h (1 Bft) 100 %
13.01.2018 05:39 3,5 C 96 % 1026,1 hPa 0,0 l/m 0,3 km/h (0 Bft) O-NO 68 2,9 C 3,1 km/h (1 Bft) 100 %
13.01.2018 05:40 3,5 C 96 % 1026,1 hPa 0,0 l/m 0,0 km/h (0 Bft) O-NO 68 2,9 C 0,0 km/h (0 Bft) 100 %
13.01.2018 05:41 3,5 C 96 % 1026,1 hPa 0,0 l/m 0,0 km/h (0 Bft) O-NO 68 2,9 C 0,0 km/h (0 Bft) 100 %
13.01.2018 05:42 3,5 C 96 % 1026,1 hPa 0,0 l/m 0,1 km/h (0 Bft) O-NO 68 2,9 C 3,1 km/h (1 Bft) 100 %
13.01.2018 05:43 3,5 C 96 % 1026,1 hPa 0,0 l/m 0,1 km/h (0 Bft) O-NO 68 2,9 C 3,1 km/h (1 Bft) 100 %
13.01.2018 05:44 3,5 C 96 % 1026,1 hPa 0,0 l/m 0,0 km/h (0 Bft) O-NO 68 2,9 C 0,0 km/h (0 Bft) 100 %
13.01.2018 05:45 3,5 C 96 % 1026,1 hPa 0,0 l/m 0,0 km/h (0 Bft) O-NO 68 2,9 C 0,0 km/h (0 Bft) 100 %
13.01.2018 05:46 3,5 C 96 % 1026,1 hPa 0,0 l/m 0,4 km/h (0 Bft) SO 130 2,9 C 3,1 km/h (1 Bft) 100 %
13.01.2018 05:47 3,5 C 96 % 1026,1 hPa 0,0 l/m 0,1 km/h (0 Bft) SO 130 2,9 C 3,1 km/h (1 Bft) 100 %
13.01.2018 05:48 3,5 C 96 % 1026,1 hPa 0,0 l/m 0,6 km/h (0 Bft) SO 146 2,9 C 3,1 km/h (1 Bft) 100 %
13.01.2018 05:49 3,5 C 96 % 1026,1 hPa 0,0 l/m 0,0 km/h (0 Bft) SO 146 2,9 C 0,0 km/h (0 Bft) 100 %
13.01.2018 05:50 3,5 C 96 % 1026,1 hPa 0,0 l/m 0,0 km/h (0 Bft) SO 146 2,9 C 0,0 km/h (0 Bft) 96 %
13.01.2018 05:51 3,5 C 96 % 1026,1 hPa 0,0 l/m 0,0 km/h (0 Bft) SO 146 2,9 C 0,0 km/h (0 Bft) 100 %
13.01.2018 05:52 3,5 C 96 % 1026,0 hPa 0,0 l/m 1,9 km/h (1 Bft) O-NO 78 2,9 C 6,3 km/h (2 Bft) 100 %
13.01.2018 05:53 3,5 C 96 % 1026,0 hPa 0,0 l/m 0,0 km/h (0 Bft) O 79 2,9 C 0,0 km/h (0 Bft) 100 %
13.01.2018 05:54 3,5 C 96 % 1026,0 hPa 0,0 l/m 0,9 km/h (0 Bft) O 79 2,9 C 3,1 km/h (1 Bft) 100 %
13.01.2018 05:55 3,5 C 96 % 1026,1 hPa 0,0 l/m 0,1 km/h (0 Bft) O-SO 117 2,9 C 3,1 km/h (1 Bft) 100 %
13.01.2018 05:56 3,5 C 96 % 1026,1 hPa 0,0 l/m 2,7 km/h (1 Bft) O-SO 115 2,9 C 3,1 km/h (1 Bft) 96 %
13.01.2018 05:57 3,5 C 96 % 1026,0 hPa 0,0 l/m 1,2 km/h (1 Bft) O-NO 64 2,9 C 3,1 km/h (1 Bft) 100 %
13.01.2018 05:58 3,5 C 96 % 1026,0 hPa 0,0 l/m 4,1 km/h (1 Bft) O 99 2,9 C 6,3 km/h (2 Bft) 100 %
13.01.2018 05:59 3,5 C 96 % 1026,0 hPa 0,0 l/m 1,4 km/h (1 Bft) O-SO 107 2,9 C 6,3 km/h (2 Bft) 96 %
13.01.2018 06:00 3,5 C 96 % 1026,0 hPa 0,0 l/m 0,3 km/h (0 Bft) O-SO 106 2,9 C 3,1 km/h (1 Bft) 96 %
13.01.2018 06:01 3,5 C 96 % 1026,0 hPa 0,0 l/m 0,0 km/h (0 Bft) O-SO 105 2,9 C 0,0 km/h (0 Bft) 100 %
13.01.2018 06:02 3,5 C 96 % 1026,0 hPa 0,0 l/m 0,0 km/h (0 Bft) O-SO 105 2,9 C 0,0 km/h (0 Bft) 96 %
13.01.2018 06:03 3,5 C 96 % 1026,0 hPa 0,0 l/m 0,0 km/h (0 Bft) O-SO 105 2,9 C 0,0 km/h (0 Bft) 100 %
13.01.2018 06:04 3,5 C 96 % 1026,0 hPa 0,0 l/m 0,1 km/h (0 Bft) O-SO 105 2,9 C 3,1 km/h (1 Bft) 100 %
13.01.2018 06:05 3,5 C 96 % 1026,0 hPa 0,0 l/m 0,0 km/h (0 Bft) O-SO 105 2,9 C 0,0 km/h (0 Bft) 100 %
13.01.2018 06:06 3,5 C 96 % 1026,0 hPa 0,0 l/m 0,0 km/h (0 Bft) O-SO 105 2,9 C 0,0 km/h (0 Bft) 100 %
13.01.2018 06:07 3,5 C 96 % 1026,0 hPa 0,0 l/m 0,0 km/h (0 Bft) O-SO 105 2,9 C 0,0 km/h (0 Bft) 97 %
13.01.2018 06:08 3,5 C 96 % 1026,0 hPa 0,0 l/m 0,1 km/h (0 Bft) O 101 2,9 C 3,1 km/h (1 Bft) 96 %
13.01.2018 06:09 3,5 C 96 % 1026,0 hPa 0,0 l/m 0,0 km/h (0 Bft) O 101 2,9 C 0,0 km/h (0 Bft) 100 %
13.01.2018 06:10 3,5 C 96 % 1026,0 hPa 0,0 l/m 0,0 km/h (0 Bft) O 101 2,9 C 0,0 km/h (0 Bft) 93 %
13.01.2018 06:11 3,5 C 96 % 1026,0 hPa 0,0 l/m 0,0 km/h (0 Bft) O 101 2,9 C 0,0 km/h (0 Bft) 100 %
13.01.2018 06:12 3,4 C 96 % 1026,0 hPa 0,0 l/m 0,0 km/h (0 Bft) O 101 2,8 C 0,0 km/h (0 Bft) 96 %
13.01.2018 06:13 3,4 C 96 % 1026,0 hPa 0,0 l/m 0,0 km/h (0 Bft) O 101 2,8 C 0,0 km/h (0 Bft) 96 %
13.01.2018 06:14 3,5 C 96 % 1026,0 hPa 0,0 l/m 0,0 km/h (0 Bft) O 101 2,9 C 0,0 km/h (0 Bft) 100 %
13.01.2018 06:15 3,5 C 96 % 1026,0 hPa 0,0 l/m 0,0 km/h (0 Bft) O 101 2,9 C 0,0 km/h (0 Bft) 100 %
13.01.2018 06:16 3,5 C 96 % 1026,0 hPa 0,0 l/m 0,1 km/h (0 Bft) O 101 2,9 C 3,1 km/h (1 Bft) 96 %
13.01.2018 06:17 3,5 C 96 % 1026,0 hPa 0,0 l/m 0,0 km/h (0 Bft) O 101 2,9 C 0,0 km/h (0 Bft) 96 %
13.01.2018 06:18 3,5 C 96 % 1026,0 hPa 0,0 l/m 0,0 km/h (0 Bft) O 101 2,9 C 0,0 km/h (0 Bft) 100 %
13.01.2018 06:19 3,5 C 96 % 1026,0 hPa 0,0 l/m 0,0 km/h (0 Bft) O 101 2,9 C 0,0 km/h (0 Bft) 91 %
13.01.2018 06:20 3,5 C 96 % 1026,1 hPa 0,0 l/m 0,0 km/h (0 Bft) O 96 2,9 C 0,0 km/h (0 Bft) 100 %
13.01.2018 06:21 3,5 C 96 % 1026,1 hPa 0,0 l/m 0,0 km/h (0 Bft) O 96 2,9 C 0,0 km/h (0 Bft) 97 %
13.01.2018 06:22 3,5 C 96 % 1026,0 hPa 0,0 l/m 4,1 km/h (1 Bft) O-SO 103 2,9 C 9,4 km/h (2 Bft) 96 %
13.01.2018 06:23 3,4 C 96 % 1026,0 hPa 0,0 l/m 1,2 km/h (1 Bft) SO 127 2,8 C 3,1 km/h (1 Bft) 100 %
13.01.2018 06:24 3,5 C 96 % 1026,0 hPa 0,0 l/m 0,1 km/h (0 Bft) O-SO 121 2,9 C 3,1 km/h (1 Bft) 100 %
13.01.2018 06:25 3,5 C 96 % 1026,1 hPa 0,0 l/m 0,1 km/h (0 Bft) O-SO 121 2,9 C 3,1 km/h (1 Bft) 96 %
13.01.2018 06:26 3,5 C 96 % 1026,1 hPa 0,0 l/m 1,2 km/h (1 Bft) S-SO 150 2,9 C 6,3 km/h (2 Bft) 96 %
13.01.2018 06:27 3,5 C 96 % 1026,0 hPa 0,0 l/m 0,0 km/h (0 Bft) SO 128 2,9 C 0,0 km/h (0 Bft) 100 %
13.01.2018 06:28 3,5 C 96 % 1026,0 hPa 0,0 l/m 0,1 km/h (0 Bft) SO 128 2,9 C 3,1 km/h (1 Bft) 92 %
13.01.2018 06:29 3,5 C 96 % 1026,0 hPa 0,0 l/m 3,3 km/h (1 Bft) O-NO 77 2,9 C 9,4 km/h (2 Bft) 100 %
13.01.2018 06:30 3,5 C 96 % 1026,1 hPa 0,0 l/m 0,0 km/h (0 Bft) O-NO 77 2,9 C 0,0 km/h (0 Bft) 96 %
13.01.2018 06:31 3,5 C 96 % 1026,0 hPa 0,0 l/m 0,0 km/h (0 Bft) O-NO 77 2,9 C 0,0 km/h (0 Bft) 100 %
13.01.2018 06:32 3,5 C 96 % 1026,0 hPa 0,0 l/m 0,9 km/h (0 Bft) O-SO 111 2,9 C 3,1 km/h (1 Bft) 96 %
13.01.2018 06:33 3,5 C 96 % 1026,0 hPa 0,0 l/m 0,1 km/h (0 Bft) O-SO 108 2,9 C 3,1 km/h (1 Bft) 96 %
13.01.2018 06:34 3,5 C 96 % 1026,0 hPa 0,0 l/m 0,0 km/h (0 Bft) O-SO 108 2,9 C 0,0 km/h (0 Bft) 100 %
13.01.2018 06:35 3,5 C 96 % 1026,0 hPa 0,0 l/m 0,1 km/h (0 Bft) O-SO 109 2,9 C 3,1 km/h (1 Bft) 96 %
13.01.2018 06:36 3,5 C 96 % 1026,0 hPa 0,0 l/m 0,1 km/h (0 Bft) O-SO 109 2,9 C 3,1 km/h (1 Bft) 100 %
13.01.2018 06:37 3,5 C 96 % 1026,0 hPa 0,0 l/m 0,5 km/h (0 Bft) O-NO 72 2,9 C 3,1 km/h (1 Bft) 96 %
13.01.2018 06:38 3,5 C 96 % 1026,1 hPa 0,0 l/m 0,0 km/h (0 Bft) O-NO 72 2,9 C 0,0 km/h (0 Bft) 100 %
13.01.2018 06:39 3,5 C 96 % 1026,0 hPa 0,0 l/m 0,0 km/h (0 Bft) O-NO 72 2,9 C 0,0 km/h (0 Bft) 96 %
13.01.2018 06:40 3,5 C 96 % 1026,1 hPa 0,0 l/m 0,0 km/h (0 Bft) O-NO 72 2,9 C 0,0 km/h (0 Bft) 96 %
13.01.2018 06:41 3,5 C 96 % 1026,1 hPa 0,0 l/m 0,0 km/h (0 Bft) O-NO 72 2,9 C 0,0 km/h (0 Bft) 100 %
13.01.2018 06:42 3,5 C 96 % 1026,1 hPa 0,0 l/m 0,1 km/h (0 Bft) O-NO 72 2,9 C 3,1 km/h (1 Bft) 100 %
13.01.2018 06:43 3,5 C 96 % 1026,1 hPa 0,0 l/m 2,3 km/h (1 Bft) O-NO 77 2,9 C 9,4 km/h (2 Bft) 100 %
13.01.2018 06:44 3,5 C 96 % 1026,0 hPa 0,0 l/m 0,5 km/h (0 Bft) O-NO 71 2,9 C 3,1 km/h (1 Bft) 100 %
13.01.2018 06:45 3,5 C 96 % 1026,1 hPa 0,0 l/m 0,7 km/h (0 Bft) O 96 2,9 C 3,1 km/h (1 Bft) 100 %
13.01.2018 06:46 3,5 C 96 % 1026,1 hPa 0,0 l/m 0,1 km/h (0 Bft) O 87 2,9 C 3,1 km/h (1 Bft) 100 %
13.01.2018 06:47 3,5 C 96 % 1026,1 hPa 0,0 l/m 0,0 km/h (0 Bft) O 87 2,9 C 0,0 km/h (0 Bft) 100 %
13.01.2018 06:48 3,4 C 96 % 1026,1 hPa 0,0 l/m 1,8 km/h (1 Bft) SW 214 2,8 C 9,4 km/h (2 Bft) 100 %
13.01.2018 06:49 3,5 C 96 % 1026,1 hPa 0,0 l/m 0,1 km/h (0 Bft) SO 130 2,9 C 3,1 km/h (1 Bft) 100 %
13.01.2018 06:50 3,5 C 96 % 1026,1 hPa 0,0 l/m 0,8 km/h (0 Bft) O-SO 106 2,9 C 3,1 km/h (1 Bft) 100 %
13.01.2018 06:51 3,4 C 96 % 1026,1 hPa 0,0 l/m 0,0 km/h (0 Bft) O-SO 107 2,8 C 0,0 km/h (0 Bft) 100 %
13.01.2018 06:52 3,4 C 96 % 1026,1 hPa 0,0 l/m 0,4 km/h (0 Bft) O 90 2,8 C 3,1 km/h (1 Bft) 100 %
13.01.2018 06:53 3,4 C 96 % 1026,1 hPa 0,0 l/m 0,0 km/h (0 Bft) O 90 2,8 C 0,0 km/h (0 Bft) 100 %
13.01.2018 06:54 3,5 C 96 % 1026,1 hPa 0,0 l/m 0,6 km/h (0 Bft) O 94 2,9 C 3,1 km/h (1 Bft) 100 %
13.01.2018 06:55 3,4 C 96 % 1026,1 hPa 0,0 l/m 0,0 km/h (0 Bft) O 94 2,8 C 0,0 km/h (0 Bft) 100 %
13.01.2018 06:56 3,4 C 96 % 1026,1 hPa 0,0 l/m 0,1 km/h (0 Bft) O 92 2,8 C 3,1 km/h (1 Bft) 100 %
13.01.2018 06:57 3,4 C 96 % 1026,1 hPa 0,0 l/m 0,0 km/h (0 Bft) O 92 2,8 C 0,0 km/h (0 Bft) 100 %
13.01.2018 06:58 3,4 C 96 % 1026,1 hPa 0,0 l/m 1,2 km/h (1 Bft) O 101 2,8 C 6,3 km/h (2 Bft) 100 %
13.01.2018 06:59 3,4 C 96 % 1026,2 hPa 0,0 l/m 2,1 km/h (1 Bft) S-SO 148 2,8 C 6,3 km/h (2 Bft) 100 %
13.01.2018 07:00 3,4 C 96 % 1026,1 hPa 0,0 l/m 0,0 km/h (0 Bft) S-SO 148 2,8 C 0,0 km/h (0 Bft) 100 %
13.01.2018 07:01 3,4 C 96 % 1026,1 hPa 0,0 l/m 0,0 km/h (0 Bft) S-SO 148 2,8 C 0,0 km/h (0 Bft) 100 %
13.01.2018 07:02 3,4 C 96 % 1026,1 hPa 0,0 l/m 0,0 km/h (0 Bft) S-SO 148 2,8 C 0,0 km/h (0 Bft) 100 %
13.01.2018 07:03 3,4 C 96 % 1026,2 hPa 0,0 l/m 0,0 km/h (0 Bft) S-SO 147 2,8 C 0,0 km/h (0 Bft) 100 %
13.01.2018 07:04 3,4 C 96 % 1026,1 hPa 0,0 l/m 0,0 km/h (0 Bft) S-SO 148 2,8 C 0,0 km/h (0 Bft) 100 %
13.01.2018 07:05 3,4 C 96 % 1026,2 hPa 0,0 l/m 0,0 km/h (0 Bft) S-SO 148 2,8 C 0,0 km/h (0 Bft) 100 %
13.01.2018 07:06 3,4 C 96 % 1026,2 hPa 0,0 l/m 0,0 km/h (0 Bft) SO 146 2,8 C 0,0 km/h (0 Bft) 100 %
13.01.2018 07:07 3,4 C 96 % 1026,1 hPa 0,0 l/m 0,5 km/h (0 Bft) O 99 2,8 C 3,1 km/h (1 Bft) 100 %
13.01.2018 07:08 3,4 C 96 % 1026,2 hPa 0,0 l/m 0,5 km/h (0 Bft) O-SO 119 2,8 C 3,1 km/h (1 Bft) 100 %
13.01.2018 07:09 3,4 C 96 % 1026,2 hPa 0,0 l/m 1,0 km/h (0 Bft) O 79 2,8 C 3,1 km/h (1 Bft) 100 %
13.01.2018 07:10 3,4 C 96 % 1026,2 hPa 0,0 l/m 1,6 km/h (1 Bft) O-SO 111 2,8 C 6,3 km/h (2 Bft) 100 %
13.01.2018 07:11 3,4 C 96 % 1026,2 hPa 0,0 l/m 0,4 km/h (0 Bft) O-NO 61 2,8 C 3,1 km/h (1 Bft) 100 %
13.01.2018 07:12 3,4 C 96 % 1026,2 hPa 0,0 l/m 0,1 km/h (0 Bft) O-NO 62 2,8 C 3,1 km/h (1 Bft) 100 %
13.01.2018 07:13 3,5 C 96 % 1026,2 hPa 0,0 l/m 0,5 km/h (0 Bft) O 91 2,9 C 3,1 km/h (1 Bft) 100 %
13.01.2018 07:14 3,5 C 96 % 1026,2 hPa 0,0 l/m 1,6 km/h (1 Bft) O-SO 111 2,9 C 6,3 km/h (2 Bft) 100 %
13.01.2018 07:15 3,5 C 96 % 1026,1 hPa 0,0 l/m 0,4 km/h (0 Bft) O-SO 112 2,9 C 3,1 km/h (1 Bft) 100 %
13.01.2018 07:16 3,5 C 96 % 1026,2 hPa 0,0 l/m 0,1 km/h (0 Bft) O-SO 111 2,9 C 3,1 km/h (1 Bft) 100 %
13.01.2018 07:17 3,5 C 96 % 1026,1 hPa 0,0 l/m 2,4 km/h (1 Bft) O-SO 115 2,9 C 6,3 km/h (2 Bft) 100 %
13.01.2018 07:18 3,5 C 96 % 1026,2 hPa 0,0 l/m 3,7 km/h (1 Bft) O-SO 103 2,9 C 6,3 km/h (2 Bft) 100 %
13.01.2018 07:19 3,5 C 96 % 1026,2 hPa 0,0 l/m 0,4 km/h (0 Bft) O-SO 103 2,9 C 3,1 km/h (1 Bft) 100 %
13.01.2018 07:20 3,5 C 96 % 1026,2 hPa 0,0 l/m 0,5 km/h (0 Bft) O-NO 72 2,9 C 3,1 km/h (1 Bft) 100 %
13.01.2018 07:21 3,5 C 96 % 1026,1 hPa 0,0 l/m 2,9 km/h (1 Bft) O 94 2,9 C 6,3 km/h (2 Bft) 100 %
13.01.2018 07:22 3,5 C 96 % 1026,2 hPa 0,0 l/m 3,0 km/h (1 Bft) O 96 2,9 C 6,3 km/h (2 Bft) 100 %
13.01.2018 07:23 3,5 C 96 % 1026,1 hPa 0,0 l/m 2,1 km/h (1 Bft) O-SO 120 2,9 C 6,3 km/h (2 Bft) 100 %
13.01.2018 07:24 3,5 C 96 % 1026,1 hPa 0,0 l/m 0,3 km/h (0 Bft) SO 130 2,9 C 3,1 km/h (1 Bft) 100 %
13.01.2018 07:25 3,6 C 96 % 1026,2 hPa 0,0 l/m 1,2 km/h (1 Bft) O-SO 117 3,0 C 6,3 km/h (2 Bft) 100 %
13.01.2018 07:26 3,5 C 96 % 1026,2 hPa 0,0 l/m 0,4 km/h (0 Bft) O 92 2,9 C 3,1 km/h (1 Bft) 100 %
13.01.2018 07:27 3,6 C 96 % 1026,2 hPa 0,0 l/m 0,7 km/h (0 Bft) O 100 3,0 C 3,1 km/h (1 Bft) 100 %
13.01.2018 07:28 3,6 C 96 % 1026,2 hPa 0,0 l/m 2,8 km/h (1 Bft) O 81 3,0 C 9,4 km/h (2 Bft) 100 %
13.01.2018 07:29 3,6 C 96 % 1026,2 hPa 0,0 l/m 0,4 km/h (0 Bft) O-SO 105 3,0 C 3,1 km/h (1 Bft) 100 %
13.01.2018 07:30 3,6 C 96 % 1026,2 hPa 0,0 l/m 2,9 km/h (1 Bft) O-NO 77 3,0 C 6,3 km/h (2 Bft) 100 %
13.01.2018 07:31 3,6 C 96 % 1026,2 hPa 0,0 l/m 0,0 km/h (0 Bft) O-SO 115 3,0 C 0,0 km/h (0 Bft) 100 %
13.01.2018 07:32 3,6 C 96 % 1026,2 hPa 0,0 l/m 0,0 km/h (0 Bft) O-SO 115 3,0 C 0,0 km/h (0 Bft) 100 %
13.01.2018 07:33 3,6 C 96 % 1026,2 hPa 0,0 l/m 3,9 km/h (1 Bft) O 80 3,0 C 12,6 km/h (3 Bft) 100 %
13.01.2018 07:34 3,6 C 96 % 1026,2 hPa 0,0 l/m 0,3 km/h (0 Bft) O 85 3,0 C 3,1 km/h (1 Bft) 100 %
13.01.2018 07:35 3,6 C 96 % 1026,2 hPa 0,0 l/m 1,3 km/h (1 Bft) O 94 3,0 C 6,3 km/h (2 Bft) 100 %
13.01.2018 07:36 3,6 C 96 % 1026,2 hPa 0,0 l/m 1,2 km/h (1 Bft) O 99 3,0 C 6,3 km/h (2 Bft) 100 %
13.01.2018 07:37 3,6 C 96 % 1026,2 hPa 0,0 l/m 0,4 km/h (0 Bft) O 98 3,0 C 3,1 km/h (1 Bft) 100 %
13.01.2018 07:38 3,6 C 96 % 1026,2 hPa 0,0 l/m 3,9 km/h (1 Bft) O-NO 73 3,0 C 9,4 km/h (2 Bft) 100 %
13.01.2018 07:39 3,6 C 96 % 1026,2 hPa 0,0 l/m 2,3 km/h (1 Bft) O-NO 69 3,0 C 6,3 km/h (2 Bft) 100 %
13.01.2018 07:40 3,6 C 96 % 1026,2 hPa 0,0 l/m 4,5 km/h (1 Bft) O-NO 65 3,0 C 9,4 km/h (2 Bft) 100 %
13.01.2018 07:41 3,6 C 96 % 1026,1 hPa 0,0 l/m 1,2 km/h (1 Bft) O-NO 74 3,0 C 3,1 km/h (1 Bft) 100 %
13.01.2018 07:42 3,6 C 96 % 1026,1 hPa 0,0 l/m 0,5 km/h (0 Bft) O-SO 105 3,0 C 3,1 km/h (1 Bft) 100 %
13.01.2018 07:43 3,6 C 96 % 1026,2 hPa 0,0 l/m 0,0 km/h (0 Bft) O-SO 105 3,0 C 0,0 km/h (0 Bft) 100 %
13.01.2018 07:44 3,6 C 96 % 1026,1 hPa 0,0 l/m 0,0 km/h (0 Bft) O-SO 105 3,0 C 0,0 km/h (0 Bft) 100 %
13.01.2018 07:45 3,6 C 96 % 1026,1 hPa 0,0 l/m 0,5 km/h (0 Bft) NO 49 3,0 C 3,1 km/h (1 Bft) 100 %
13.01.2018 07:46 3,6 C 96 % 1026,1 hPa 0,0 l/m 2,4 km/h (1 Bft) NO 46 3,0 C 6,3 km/h (2 Bft) 100 %
13.01.2018 07:47 3,6 C 96 % 1026,1 hPa 0,0 l/m 0,0 km/h (0 Bft) NO 51 3,0 C 0,0 km/h (0 Bft) 100 %
13.01.2018 07:48 3,6 C 96 % 1026,2 hPa 0,0 l/m 0,0 km/h (0 Bft) NO 51 3,0 C 0,0 km/h (0 Bft) 100 %
13.01.2018 07:49 3,6 C 96 % 1026,1 hPa 0,0 l/m 1,3 km/h (1 Bft) O 98 3,0 C 3,1 km/h (1 Bft) 100 %
13.01.2018 07:50 3,6 C 96 % 1026,1 hPa 0,0 l/m 0,9 km/h (0 Bft) O 82 3,0 C 6,3 km/h (2 Bft) 100 %
13.01.2018 07:51 3,6 C 96 % 1026,2 hPa 0,0 l/m 1,8 km/h (1 Bft) O-NO 66 3,0 C 3,1 km/h (1 Bft) 100 %
13.01.2018 07:52 3,6 C 96 % 1026,2 hPa 0,0 l/m 0,5 km/h (0 Bft) O-SO 108 3,0 C 3,1 km/h (1 Bft) 100 %
13.01.2018 07:53 3,6 C 96 % 1026,2 hPa 0,0 l/m 0,0 km/h (0 Bft) S-SO 151 3,0 C 0,0 km/h (0 Bft) 100 %
13.01.2018 07:54 3,6 C 96 % 1026,2 hPa 0,0 l/m 0,0 km/h (0 Bft) S-SO 151 3,0 C 0,0 km/h (0 Bft) 100 %
13.01.2018 07:55 3,6 C 96 % 1026,2 hPa 0,0 l/m 0,8 km/h (0 Bft) NO 39 3,0 C 3,1 km/h (1 Bft) 100 %
13.01.2018 07:56 3,6 C 96 % 1026,2 hPa 0,0 l/m 0,0 km/h (0 Bft) NO 48 3,0 C 0,0 km/h (0 Bft) 100 %
13.01.2018 07:57 3,6 C 96 % 1026,2 hPa 0,0 l/m 2,5 km/h (1 Bft) O-NO 75 3,0 C 6,3 km/h (2 Bft) 100 %
13.01.2018 07:58 3,6 C 96 % 1026,2 hPa 0,0 l/m 1,3 km/h (1 Bft) O-SO 114 3,0 C 6,3 km/h (2 Bft) 100 %
13.01.2018 07:59 3,6 C 96 % 1026,2 hPa 0,0 l/m 2,4 km/h (1 Bft) O-SO 110 3,0 C 6,3 km/h (2 Bft) 100 %
13.01.2018 08:00 3,6 C 96 % 1026,2 hPa 0,0 l/m 0,0 km/h (0 Bft) O-SO 110 3,0 C 0,0 km/h (0 Bft) 100 %
13.01.2018 08:01 3,6 C 96 % 1026,1 hPa 0,0 l/m 0,2 km/h (0 Bft) O-SO 109 3,0 C 3,1 km/h (1 Bft) 100 %
13.01.2018 08:02 3,6 C 96 % 1026,2 hPa 0,0 l/m 2,0 km/h (1 Bft) O-SO 106 3,0 C 3,1 km/h (1 Bft) 100 %
13.01.2018 08:03 3,6 C 96 % 1026,1 hPa 0,0 l/m 0,2 km/h (0 Bft) O-SO 106 3,0 C 3,1 km/h (1 Bft) 100 %
13.01.2018 08:04 3,6 C 96 % 1026,2 hPa 0,0 l/m 4,7 km/h (1 Bft) O 95 3,0 C 12,6 km/h (3 Bft) 100 %
13.01.2018 08:05 3,6 C 96 % 1026,2 hPa 0,0 l/m 2,1 km/h (1 Bft) O-NO 71 3,0 C 9,4 km/h (2 Bft) 100 %
13.01.2018 08:06 3,6 C 96 % 1026,2 hPa 0,0 l/m 0,4 km/h (0 Bft) O-SO 113 3,0 C 3,1 km/h (1 Bft) 100 %
13.01.2018 08:07 3,6 C 96 % 1026,2 hPa 0,0 l/m 0,4 km/h (0 Bft) O 96 3,0 C 3,1 km/h (1 Bft) 100 %
13.01.2018 08:08 3,6 C 96 % 1026,2 hPa 0,0 l/m 0,0 km/h (0 Bft) O 94 3,0 C 0,0 km/h (0 Bft) 100 %
13.01.2018 08:09 3,6 C 96 % 1026,1 hPa 0,0 l/m 0,5 km/h (0 Bft) S-SO 158 3,0 C 3,1 km/h (1 Bft) 100 %
13.01.2018 08:10 3,6 C 96 % 1026,2 hPa 0,0 l/m 0,5 km/h (0 Bft) O 101 3,0 C 6,3 km/h (2 Bft) 100 %
13.01.2018 08:11 3,6 C 96 % 1026,1 hPa 0,0 l/m 1,0 km/h (0 Bft) O-SO 105 3,0 C 3,1 km/h (1 Bft) 100 %
13.01.2018 08:12 3,6 C 96 % 1026,2 hPa 0,0 l/m 0,5 km/h (0 Bft) O-SO 106 3,0 C 3,1 km/h (1 Bft) 100 %
13.01.2018 08:13 3,6 C 96 % 1026,2 hPa 0,0 l/m 2,1 km/h (1 Bft) O-NO 75 3,0 C 9,4 km/h (2 Bft) 100 %
13.01.2018 08:14 3,6 C 96 % 1026,2 hPa 0,0 l/m 2,5 km/h (1 Bft) NO 39 3,0 C 9,4 km/h (2 Bft) 100 %
13.01.2018 08:15 3,6 C 96 % 1026,1 hPa 0,0 l/m 1,4 km/h (1 Bft) O 84 3,0 C 9,4 km/h (2 Bft) 100 %
13.01.2018 08:16 3,6 C 96 % 1026,1 hPa 0,0 l/m 1,7 km/h (1 Bft) O-SO 112 3,0 C 6,3 km/h (2 Bft) 100 %
13.01.2018 08:17 3,6 C 96 % 1026,2 hPa 0,0 l/m 0,1 km/h (0 Bft) O-SO 111 3,0 C 3,1 km/h (1 Bft) 100 %
13.01.2018 08:18 3,6 C 96 % 1026,2 hPa 0,0 l/m 0,1 km/h (0 Bft) O 88 3,0 C 3,1 km/h (1 Bft) 100 %
13.01.2018 08:19 3,6 C 96 % 1026,2 hPa 0,0 l/m 0,9 km/h (0 Bft) O-SO 103 3,0 C 3,1 km/h (1 Bft) 100 %
13.01.2018 08:20 3,6 C 96 % 1026,1 hPa 0,0 l/m 1,2 km/h (1 Bft) O-SO 109 3,0 C 6,3 km/h (2 Bft) 100 %
13.01.2018 08:21 3,6 C 96 % 1026,1 hPa 0,0 l/m 2,4 km/h (1 Bft) O-NO 75 3,0 C 9,4 km/h (2 Bft) 100 %
13.01.2018 08:22 3,6 C 96 % 1026,2 hPa 0,0 l/m 3,3 km/h (1 Bft) O-SO 106 3,0 C 6,3 km/h (2 Bft) 100 %
13.01.2018 08:23 3,6 C 96 % 1026,2 hPa 0,0 l/m 1,7 km/h (1 Bft) O 87 3,0 C 6,3 km/h (2 Bft) 100 %
13.01.2018 08:24 3,6 C 96 % 1026,2 hPa 0,0 l/m 5,0 km/h (1 Bft) O 94 3,0 C 9,4 km/h (2 Bft) 100 %
13.01.2018 08:25 3,6 C 96 % 1026,2 hPa 0,0 l/m 3,1 km/h (1 Bft) SO 141 3,0 C 9,4 km/h (2 Bft) 100 %
13.01.2018 08:26 3,6 C 96 % 1026,2 hPa 0,0 l/m 4,7 km/h (1 Bft) O-NO 74 3,0 C 18,8 km/h (3 Bft) 100 %
13.01.2018 08:27 3,6 C 96 % 1026,2 hPa 0,0 l/m 2,9 km/h (1 Bft) O-SO 110 3,0 C 9,4 km/h (2 Bft) 100 %
13.01.2018 08:28 3,6 C 96 % 1026,2 hPa 0,0 l/m 1,0 km/h (0 Bft) O 89 3,0 C 6,3 km/h (2 Bft) 100 %
13.01.2018 08:29 3,6 C 96 % 1026,2 hPa 0,0 l/m 4,7 km/h (1 Bft) O-SO 115 3,0 C 6,3 km/h (2 Bft) 100 %
13.01.2018 08:30 3,6 C 96 % 1026,3 hPa 0,0 l/m 3,5 km/h (1 Bft) O-NO 63 3,0 C 9,4 km/h (2 Bft) 100 %
13.01.2018 08:31 3,6 C 96 % 1026,3 hPa 0,0 l/m 4,8 km/h (1 Bft) O-SO 106 3,0 C 9,4 km/h (2 Bft) 100 %
13.01.2018 08:32 3,6 C 96 % 1026,3 hPa 0,0 l/m 3,1 km/h (1 Bft) NO 51 3,0 C 12,6 km/h (3 Bft) 100 %
13.01.2018 08:33 3,6 C 96 % 1026,3 hPa 0,0 l/m 2,0 km/h (1 Bft) O-SO 107 3,0 C 9,4 km/h (2 Bft) 100 %
13.01.2018 08:34 3,6 C 96 % 1026,3 hPa 0,0 l/m 4,2 km/h (1 Bft) O 90 3,0 C 9,4 km/h (2 Bft) 100 %
13.01.2018 08:35 3,5 C 96 % 1026,3 hPa 0,0 l/m 5,0 km/h (1 Bft) O-NO 66 2,9 C 12,6 km/h (3 Bft) 100 %
13.01.2018 08:36 3,5 C 96 % 1026,3 hPa 0,0 l/m 0,3 km/h (0 Bft) O-NO 60 2,9 C 3,1 km/h (1 Bft) 100 %
13.01.2018 08:37 3,5 C 96 % 1026,3 hPa 0,0 l/m 6,0 km/h (2 Bft) O-NO 76 2,9 C 18,8 km/h (3 Bft) 100 %
13.01.2018 08:38 3,5 C 96 % 1026,3 hPa 0,0 l/m 8,5 km/h (2 Bft) O-NO 72 2,9 C 18,8 km/h (3 Bft) 100 %
13.01.2018 08:39 3,5 C 96 % 1026,3 hPa 0,0 l/m 1,5 km/h (1 Bft) O 86 2,9 C 3,1 km/h (1 Bft) 100 %
13.01.2018 08:40 3,5 C 96 % 1026,3 hPa 0,0 l/m 4,6 km/h (1 Bft) SO 141 2,9 C 9,4 km/h (2 Bft) 100 %
13.01.2018 08:41 3,5 C 96 % 1026,3 hPa 0,0 l/m 2,0 km/h (1 Bft) NO 36 2,9 C 6,3 km/h (2 Bft) 100 %
13.01.2018 08:42 3,5 C 96 % 1026,3 hPa 0,0 l/m 2,0 km/h (1 Bft) O-NO 66 2,9 C 9,4 km/h (2 Bft) 100 %
13.01.2018 08:43 3,4 C 96 % 1026,4 hPa 0,0 l/m 5,6 km/h (1 Bft) SO 141 2,8 C 18,8 km/h (3 Bft) 100 %
13.01.2018 08:44 3,5 C 96 % 1026,3 hPa 0,0 l/m 6,1 km/h (2 Bft) NO 56 2,9 C 12,6 km/h (3 Bft) 100 %
13.01.2018 08:45 3,4 C 96 % 1026,3 hPa 0,0 l/m 5,8 km/h (2 Bft) O-SO 105 2,8 C 15,7 km/h (3 Bft) 100 %
13.01.2018 08:46 3,4 C 96 % 1026,3 hPa 0,0 l/m 3,4 km/h (1 Bft) O 91 2,8 C 12,6 km/h (3 Bft) 100 %
13.01.2018 08:47 3,4 C 96 % 1026,3 hPa 0,0 l/m 0,4 km/h (0 Bft) O 86 2,8 C 3,1 km/h (1 Bft) 100 %
13.01.2018 08:48 3,4 C 96 % 1026,4 hPa 0,0 l/m 4,7 km/h (1 Bft) S-SO 161 2,8 C 9,4 km/h (2 Bft) 100 %
13.01.2018 08:49 3,4 C 96 % 1026,3 hPa 0,0 l/m 1,6 km/h (1 Bft) O-NO 77 2,8 C 6,3 km/h (2 Bft) 100 %
13.01.2018 08:50 3,4 C 96 % 1026,3 hPa 0,0 l/m 4,1 km/h (1 Bft) O-NO 60 2,8 C 9,4 km/h (2 Bft) 100 %
13.01.2018 08:51 3,4 C 96 % 1026,3 hPa 0,0 l/m 2,1 km/h (1 Bft) O-SO 119 2,8 C 6,3 km/h (2 Bft) 100 %
13.01.2018 08:52 3,4 C 96 % 1026,4 hPa 0,0 l/m 1,7 km/h (1 Bft) O 91 2,8 C 6,3 km/h (2 Bft) 100 %
13.01.2018 08:53 3,4 C 96 % 1026,3 hPa 0,0 l/m 2,0 km/h (1 Bft) O-NO 65 2,8 C 6,3 km/h (2 Bft) 100 %
13.01.2018 08:54 3,4 C 96 % 1026,2 hPa 0,0 l/m 2,5 km/h (1 Bft) O 79 2,8 C 6,3 km/h (2 Bft) 100 %
13.01.2018 08:55 3,4 C 96 % 1026,3 hPa 0,0 l/m 0,0 km/h (0 Bft) O 79 2,8 C 0,0 km/h (0 Bft) 100 %
13.01.2018 08:56 3,4 C 96 % 1026,3 hPa 0,0 l/m 1,2 km/h (1 Bft) O 86 2,8 C 9,4 km/h (2 Bft) 100 %
13.01.2018 08:57 3,4 C 96 % 1026,3 hPa 0,0 l/m 1,0 km/h (0 Bft) NO 51 2,8 C 6,3 km/h (2 Bft) 100 %
13.01.2018 08:58 3,4 C 96 % 1026,3 hPa 0,0 l/m 0,9 km/h (0 Bft) O-NO 72 2,8 C 6,3 km/h (2 Bft) 100 %
13.01.2018 08:59 3,4 C 96 % 1026,3 hPa 0,0 l/m 2,0 km/h (1 Bft) O 91 2,8 C 6,3 km/h (2 Bft) 100 %
13.01.2018 09:00 3,4 C 96 % 1026,3 hPa 0,0 l/m 1,3 km/h (1 Bft) O 85 2,8 C 3,1 km/h (1 Bft) 100 %
13.01.2018 09:01 3,4 C 96 % 1026,3 hPa 0,0 l/m 2,9 km/h (1 Bft) O 82 2,8 C 6,3 km/h (2 Bft) 100 %
13.01.2018 09:02 3,4 C 96 % 1026,3 hPa 0,0 l/m 3,5 km/h (1 Bft) O-NO 66 2,8 C 9,4 km/h (2 Bft) 100 %
13.01.2018 09:03 3,4 C 96 % 1026,2 hPa 0,0 l/m 2,0 km/h (1 Bft) O 88 2,8 C 6,3 km/h (2 Bft) 100 %
13.01.2018 09:04 3,4 C 96 % 1026,3 hPa 0,0 l/m 4,1 km/h (1 Bft) O-NO 73 2,8 C 9,4 km/h (2 Bft) 100 %
13.01.2018 09:05 3,4 C 96 % 1026,3 hPa 0,0 l/m 6,4 km/h (2 Bft) O 84 2,8 C 15,7 km/h (3 Bft) 100 %
13.01.2018 09:06 3,4 C 96 % 1026,3 hPa 0,0 l/m 5,8 km/h (2 Bft) O-SO 120 2,8 C 18,8 km/h (3 Bft) 100 %
13.01.2018 09:07 3,4 C 96 % 1026,3 hPa 0,0 l/m 0,4 km/h (0 Bft) O-SO 106 2,8 C 3,1 km/h (1 Bft) 100 %
13.01.2018 09:08 3,4 C 96 % 1026,3 hPa 0,0 l/m 4,1 km/h (1 Bft) N 3 2,8 C 9,4 km/h (2 Bft) 100 %
13.01.2018 09:09 3,4 C 96 % 1026,2 hPa 0,0 l/m 0,7 km/h (0 Bft) NO 41 2,8 C 3,1 km/h (1 Bft) 100 %
13.01.2018 09:10 3,4 C 96 % 1026,3 hPa 0,0 l/m 3,7 km/h (1 Bft) O-NO 73 2,8 C 15,7 km/h (3 Bft) 100 %
13.01.2018 09:11 3,4 C 96 % 1026,3 hPa 0,0 l/m 6,9 km/h (2 Bft) O 89 2,8 C 12,6 km/h (3 Bft) 100 %
13.01.2018 09:12 3,4 C 96 % 1026,3 hPa 0,0 l/m 0,1 km/h (0 Bft) O 89 2,8 C 3,1 km/h (1 Bft) 100 %
13.01.2018 09:13 3,4 C 96 % 1026,3 hPa 0,0 l/m 2,7 km/h (1 Bft) O-NO 67 2,8 C 9,4 km/h (2 Bft) 100 %
13.01.2018 09:14 3,4 C 96 % 1026,3 hPa 0,0 l/m 2,5 km/h (1 Bft) SW 216 2,8 C 9,4 km/h (2 Bft) 100 %
13.01.2018 09:15 3,4 C 96 % 1026,3 hPa 0,0 l/m 1,4 km/h (1 Bft) O 83 2,8 C 6,3 km/h (2 Bft) 100 %
13.01.2018 09:16 3,4 C 96 % 1026,3 hPa 0,0 l/m 7,1 km/h (2 Bft) SO 139 2,8 C 18,8 km/h (3 Bft) 100 %
13.01.2018 09:17 3,4 C 96 % 1026,3 hPa 0,0 l/m 1,9 km/h (1 Bft) O 82 2,8 C 6,3 km/h (2 Bft) 100 %
13.01.2018 09:18 3,4 C 96 % 1026,4 hPa 0,0 l/m 1,8 km/h (1 Bft) O 81 2,8 C 6,3 km/h (2 Bft) 100 %
13.01.2018 09:19 3,4 C 96 % 1026,3 hPa 0,0 l/m 0,3 km/h (0 Bft) O 85 2,8 C 3,1 km/h (1 Bft) 100 %
13.01.2018 09:20 3,4 C 96 % 1026,4 hPa 0,0 l/m 0,8 km/h (0 Bft) O-SO 122 2,8 C 6,3 km/h (2 Bft) 100 %
13.01.2018 09:21 3,4 C 96 % 1026,4 hPa 0,0 l/m 1,4 km/h (1 Bft) O 80 2,8 C 6,3 km/h (2 Bft) 100 %
13.01.2018 09:22 3,5 C 96 % 1026,3 hPa 0,0 l/m 1,3 km/h (1 Bft) O-SO 109 2,9 C 6,3 km/h (2 Bft) 96 %
13.01.2018 09:23 3,5 C 96 % 1026,4 hPa 0,0 l/m 1,3 km/h (1 Bft) O 98 2,9 C 9,4 km/h (2 Bft) 100 %
13.01.2018 09:24 3,5 C 96 % 1026,4 hPa 0,0 l/m 4,2 km/h (1 Bft) O-SO 103 2,9 C 12,6 km/h (3 Bft) 100 %
13.01.2018 09:25 3,5 C 96 % 1026,3 hPa 0,0 l/m 2,2 km/h (1 Bft) O-SO 113 2,9 C 6,3 km/h (2 Bft) 100 %
13.01.2018 09:26 3,6 C 96 % 1026,3 hPa 0,0 l/m 2,0 km/h (1 Bft) O-SO 108 3,0 C 6,3 km/h (2 Bft) 96 %
13.01.2018 09:27 3,6 C 96 % 1026,3 hPa 0,0 l/m 0,3 km/h (0 Bft) O-SO 108 3,0 C 3,1 km/h (1 Bft) 100 %
13.01.2018 09:28 3,6 C 96 % 1026,3 hPa 0,0 l/m 0,1 km/h (0 Bft) O-SO 108 3,0 C 3,1 km/h (1 Bft) 100 %
13.01.2018 09:31 3,6 C 96 % 1026,3 hPa 0,0 l/m 0,9 km/h (0 Bft) O-NO 66 3,0 C 3,1 km/h (1 Bft) 100 %
13.01.2018 09:32 3,6 C 96 % 1026,3 hPa 0,0 l/m 0,5 km/h (0 Bft) O 84 3,0 C 3,1 km/h (1 Bft) 96 %
13.01.2018 09:33 3,6 C 96 % 1026,4 hPa 0,0 l/m 2,7 km/h (1 Bft) S-SO 158 3,0 C 9,4 km/h (2 Bft) 100 %
13.01.2018 09:34 3,6 C 95 % 1026,4 hPa 0,0 l/m 2,1 km/h (1 Bft) O 91 2,9 C 9,4 km/h (2 Bft) 100 %
13.01.2018 09:35 3,6 C 95 % 1026,4 hPa 0,0 l/m 0,0 km/h (0 Bft) O-SO 103 2,9 C 0,0 km/h (0 Bft) 100 %
13.01.2018 09:36 3,6 C 95 % 1026,4 hPa 0,0 l/m 1,3 km/h (1 Bft) O-NO 75 2,9 C 3,1 km/h (1 Bft) 96 %
13.01.2018 09:37 3,6 C 95 % 1026,4 hPa 0,0 l/m 1,6 km/h (1 Bft) O 88 2,9 C 6,3 km/h (2 Bft) 100 %
13.01.2018 09:38 3,6 C 95 % 1026,4 hPa 0,0 l/m 2,2 km/h (1 Bft) O 97 2,9 C 9,4 km/h (2 Bft) 96 %
13.01.2018 09:39 3,6 C 95 % 1026,4 hPa 0,0 l/m 5,3 km/h (1 Bft) O-NO 61 2,9 C 12,6 km/h (3 Bft) 100 %
13.01.2018 09:40 3,6 C 95 % 1026,4 hPa 0,0 l/m 2,9 km/h (1 Bft) O 100 2,9 C 9,4 km/h (2 Bft) 96 %
13.01.2018 09:41 3,5 C 95 % 1026,4 hPa 0,0 l/m 1,9 km/h (1 Bft) O 96 2,8 C 6,3 km/h (2 Bft) 96 %
13.01.2018 09:42 3,5 C 95 % 1026,4 hPa 0,0 l/m 0,8 km/h (0 Bft) NO 49 2,8 C 6,3 km/h (2 Bft) 100 %
13.01.2018 09:43 3,5 C 95 % 1026,4 hPa 0,0 l/m 2,0 km/h (1 Bft) O-SO 114 2,8 C 6,3 km/h (2 Bft) 96 %
13.01.2018 09:44 3,5 C 95 % 1026,4 hPa 0,0 l/m 4,8 km/h (1 Bft) O 84 2,8 C 15,7 km/h (3 Bft) 100 %
13.01.2018 09:45 3,5 C 95 % 1026,4 hPa 0,0 l/m 0,4 km/h (0 Bft) O-NO 75 2,8 C 3,1 km/h (1 Bft) 96 %
13.01.2018 09:46 3,5 C 95 % 1026,4 hPa 0,0 l/m 4,6 km/h (1 Bft) O-SO 115 2,8 C 15,7 km/h (3 Bft) 100 %
13.01.2018 09:47 3,5 C 95 % 1026,4 hPa 0,0 l/m 4,6 km/h (1 Bft) O 101 2,8 C 9,4 km/h (2 Bft) 96 %
13.01.2018 09:48 3,4 C 95 % 1026,4 hPa 0,0 l/m 1,6 km/h (1 Bft) NO 51 2,7 C 6,3 km/h (2 Bft) 100 %
13.01.2018 09:49 3,4 C 95 % 1026,4 hPa 0,0 l/m 3,1 km/h (1 Bft) O-NO 72 2,7 C 6,3 km/h (2 Bft) 96 %
13.01.2018 09:50 3,4 C 95 % 1026,4 hPa 0,0 l/m 0,3 km/h (0 Bft) O 79 2,7 C 3,1 km/h (1 Bft) 96 %
13.01.2018 09:51 3,4 C 95 % 1026,5 hPa 0,0 l/m 0,3 km/h (0 Bft) O-SO 120 2,7 C 3,1 km/h (1 Bft) 100 %
13.01.2018 09:52 3,4 C 95 % 1026,4 hPa 0,0 l/m 1,0 km/h (0 Bft) O-NO 77 2,7 C 6,3 km/h (2 Bft) 96 %
13.01.2018 09:53 3,4 C 95 % 1026,4 hPa 0,0 l/m 2,4 km/h (1 Bft) N-NO 15 2,7 C 6,3 km/h (2 Bft) 100 %
13.01.2018 09:54 3,4 C 95 % 1026,5 hPa 0,0 l/m 2,4 km/h (1 Bft) O 87 2,7 C 6,3 km/h (2 Bft) 96 %
13.01.2018 09:55 3,4 C 95 % 1026,4 hPa 0,0 l/m 1,8 km/h (1 Bft) O 84 2,7 C 6,3 km/h (2 Bft) 100 %
13.01.2018 09:56 3,3 C 95 % 1026,5 hPa 0,0 l/m 1,2 km/h (1 Bft) O 101 2,6 C 3,1 km/h (1 Bft) 96 %
13.01.2018 09:57 3,3 C 95 % 1026,4 hPa 0,0 l/m 0,8 km/h (0 Bft) SO 143 2,6 C 3,1 km/h (1 Bft) 96 %
13.01.2018 09:58 3,3 C 95 % 1026,4 hPa 0,0 l/m 1,6 km/h (1 Bft) O 97 2,6 C 9,4 km/h (2 Bft) 100 %
13.01.2018 09:59 3,3 C 95 % 1026,4 hPa 0,0 l/m 1,4 km/h (1 Bft) O 84 2,6 C 6,3 km/h (2 Bft) 96 %
13.01.2018 10:00 3,3 C 95 % 1026,5 hPa 0,0 l/m 0,0 km/h (0 Bft) O 84 2,6 C 0,0 km/h (0 Bft) 100 %
13.01.2018 10:01 3,3 C 95 % 1026,4 hPa 0,0 l/m 0,6 km/h (0 Bft) O-NO 72 2,6 C 3,1 km/h (1 Bft) 93 %
13.01.2018 10:02 3,3 C 95 % 1026,4 hPa 0,0 l/m 1,2 km/h (1 Bft) O-SO 117 2,6 C 3,1 km/h (1 Bft) 100 %
13.01.2018 10:03 3,3 C 95 % 1026,4 hPa 0,0 l/m 1,3 km/h (1 Bft) O 89 2,6 C 3,1 km/h (1 Bft) 96 %
13.01.2018 10:04 3,3 C 95 % 1026,4 hPa 0,0 l/m 2,1 km/h (1 Bft) SO 129 2,6 C 12,6 km/h (3 Bft) 100 %
13.01.2018 10:05 3,3 C 95 % 1026,4 hPa 0,0 l/m 5,0 km/h (1 Bft) O-NO 77 2,6 C 12,6 km/h (3 Bft) 96 %
13.01.2018 10:06 3,3 C 95 % 1026,4 hPa 0,0 l/m 0,9 km/h (0 Bft) O 84 2,6 C 3,1 km/h (1 Bft) 96 %
13.01.2018 10:07 3,3 C 95 % 1026,5 hPa 0,0 l/m 3,9 km/h (1 Bft) O-SO 113 2,6 C 9,4 km/h (2 Bft) 100 %
13.01.2018 10:08 3,3 C 95 % 1026,4 hPa 0,0 l/m 0,8 km/h (0 Bft) O-SO 108 2,6 C 3,1 km/h (1 Bft) 92 %
13.01.2018 10:09 3,3 C 95 % 1026,4 hPa 0,0 l/m 4,2 km/h (1 Bft) O-SO 102 2,6 C 12,6 km/h (3 Bft) 100 %
13.01.2018 10:10 3,3 C 94 % 1026,4 hPa 0,0 l/m 0,2 km/h (0 Bft) O 95 2,4 C 3,1 km/h (1 Bft) 96 %
13.01.2018 10:11 3,3 C 94 % 1026,5 hPa 0,0 l/m 2,4 km/h (1 Bft) W 264 2,4 C 9,4 km/h (2 Bft) 100 %
13.01.2018 10:12 3,3 C 95 % 1026,5 hPa 0,0 l/m 0,3 km/h (0 Bft) W 271 2,6 C 3,1 km/h (1 Bft) 100 %
13.01.2018 10:13 3,3 C 95 % 1026,5 hPa 0,0 l/m 2,9 km/h (1 Bft) O 86 2,6 C 6,3 km/h (2 Bft) 100 %
13.01.2018 10:14 3,3 C 95 % 1026,5 hPa 0,0 l/m 3,7 km/h (1 Bft) O-SO 103 2,6 C 6,3 km/h (2 Bft) 100 %
13.01.2018 10:15 3,3 C 95 % 1026,5 hPa 0,0 l/m 0,8 km/h (0 Bft) O 101 2,6 C 3,1 km/h (1 Bft) 100 %
13.01.2018 10:16 3,3 C 95 % 1026,5 hPa 0,0 l/m 3,0 km/h (1 Bft) O 100 2,6 C 9,4 km/h (2 Bft) 100 %
13.01.2018 10:17 3,3 C 95 % 1026,5 hPa 0,0 l/m 0,0 km/h (0 Bft) O 96 2,6 C 0,0 km/h (0 Bft) 100 %
13.01.2018 10:18 3,4 C 94 % 1026,4 hPa 0,0 l/m 0,8 km/h (0 Bft) O-NO 69 2,5 C 3,1 km/h (1 Bft) 100 %
13.01.2018 10:19 3,4 C 94 % 1026,5 hPa 0,0 l/m 2,7 km/h (1 Bft) O 95 2,5 C 6,3 km/h (2 Bft) 100 %
13.01.2018 10:20 3,4 C 94 % 1026,6 hPa 0,0 l/m 2,2 km/h (1 Bft) O-SO 110 2,5 C 9,4 km/h (2 Bft) 100 %
13.01.2018 10:21 3,4 C 94 % 1026,6 hPa 0,0 l/m 4,4 km/h (1 Bft) O-SO 112 2,5 C 9,4 km/h (2 Bft) 100 %
13.01.2018 10:22 3,4 C 94 % 1026,6 hPa 0,0 l/m 1,4 km/h (1 Bft) NO 48 2,5 C 3,1 km/h (1 Bft) 98 %
13.01.2018 10:23 3,4 C 94 % 1026,6 hPa 0,0 l/m 0,0 km/h (0 Bft) NO 48 2,5 C 0,0 km/h (0 Bft) 100 %
13.01.2018 10:24 3,4 C 94 % 1026,6 hPa 0,0 l/m 2,8 km/h (1 Bft) O 92 2,5 C 6,3 km/h (2 Bft) 100 %
13.01.2018 10:25 3,4 C 94 % 1026,6 hPa 0,0 l/m 0,3 km/h (0 Bft) O-SO 113 2,5 C 3,1 km/h (1 Bft) 100 %
13.01.2018 10:26 3,4 C 94 % 1026,5 hPa 0,0 l/m 0,0 km/h (0 Bft) O-SO 113 2,5 C 0,0 km/h (0 Bft) 100 %
13.01.2018 10:27 3,4 C 94 % 1026,5 hPa 0,0 l/m 1,9 km/h (1 Bft) O 83 2,5 C 9,4 km/h (2 Bft) 100 %
13.01.2018 10:28 3,4 C 94 % 1026,5 hPa 0,0 l/m 1,1 km/h (1 Bft) SO 139 2,5 C 3,1 km/h (1 Bft) 100 %
13.01.2018 10:29 3,4 C 94 % 1026,5 hPa 0,0 l/m 1,2 km/h (1 Bft) O-NO 63 2,5 C 12,6 km/h (3 Bft) 100 %
13.01.2018 10:30 3,4 C 94 % 1026,5 hPa 0,0 l/m 5,4 km/h (1 Bft) O-SO 110 2,5 C 12,6 km/h (3 Bft) 100 %
13.01.2018 10:31 3,4 C 94 % 1026,6 hPa 0,0 l/m 5,4 km/h (1 Bft) O-SO 107 2,5 C 12,6 km/h (3 Bft) 100 %
13.01.2018 10:32 3,4 C 94 % 1026,6 hPa 0,0 l/m 1,2 km/h (1 Bft) O-NO 60 2,5 C 3,1 km/h (1 Bft) 100 %
13.01.2018 10:33 3,4 C 94 % 1026,6 hPa 0,0 l/m 0,5 km/h (0 Bft) O-SO 103 2,5 C 3,1 km/h (1 Bft) 100 %
13.01.2018 10:34 3,4 C 94 % 1026,5 hPa 0,0 l/m 8,8 km/h (2 Bft) O-SO 103 2,5 C 18,8 km/h (3 Bft) 100 %
13.01.2018 10:35 3,4 C 94 % 1026,6 hPa 0,0 l/m 0,0 km/h (0 Bft) O-SO 103 2,5 C 0,0 km/h (0 Bft) 100 %
13.01.2018 10:36 3,4 C 94 % 1026,6 hPa 0,0 l/m 1,8 km/h (1 Bft) O 98 2,5 C 3,1 km/h (1 Bft) 100 %
13.01.2018 10:37 3,4 C 94 % 1026,5 hPa 0,0 l/m 3,8 km/h (1 Bft) O-NO 66 2,5 C 9,4 km/h (2 Bft) 100 %
13.01.2018 10:38 3,4 C 94 % 1026,5 hPa 0,0 l/m 1,1 km/h (1 Bft) O-NO 60 2,5 C 3,1 km/h (1 Bft) 100 %
13.01.2018 10:39 3,4 C 94 % 1026,5 hPa 0,0 l/m 0,3 km/h (0 Bft) O 82 2,5 C 3,1 km/h (1 Bft) 100 %
13.01.2018 10:40 3,4 C 94 % 1026,6 hPa 0,0 l/m 5,9 km/h (2 Bft) W-NW 290 2,5 C 15,7 km/h (3 Bft) 100 %
13.01.2018 10:41 3,4 C 93 % 1026,6 hPa 0,0 l/m 0,9 km/h (0 Bft) W-SW 253 2,4 C 6,3 km/h (2 Bft) 100 %
13.01.2018 10:42 3,4 C 93 % 1026,6 hPa 0,0 l/m 2,6 km/h (1 Bft) SO 126 2,4 C 12,6 km/h (3 Bft) 100 %
13.01.2018 10:43 3,4 C 93 % 1026,6 hPa 0,0 l/m 0,9 km/h (0 Bft) SO 142 2,4 C 9,4 km/h (2 Bft) 100 %
13.01.2018 10:44 3,4 C 93 % 1026,6 hPa 0,0 l/m 0,0 km/h (0 Bft) SO 142 2,4 C 0,0 km/h (0 Bft) 100 %
13.01.2018 10:45 3,4 C 93 % 1026,6 hPa 0,0 l/m 4,7 km/h (1 Bft) O-NO 77 2,4 C 15,7 km/h (3 Bft) 100 %
13.01.2018 10:46 3,4 C 93 % 1026,7 hPa 0,0 l/m 4,4 km/h (1 Bft) S-SW 206 2,4 C 15,7 km/h (3 Bft) 100 %
13.01.2018 10:47 3,5 C 93 % 1026,7 hPa 0,0 l/m 3,7 km/h (1 Bft) O-SO 110 2,5 C 6,3 km/h (2 Bft) 100 %
13.01.2018 10:48 3,5 C 93 % 1026,6 hPa 0,0 l/m 2,6 km/h (1 Bft) O-NO 72 2,5 C 6,3 km/h (2 Bft) 96 %
13.01.2018 10:49 3,5 C 93 % 1026,7 hPa 0,0 l/m 2,6 km/h (1 Bft) O-SO 110 2,5 C 12,6 km/h (3 Bft) 100 %
13.01.2018 10:50 3,5 C 93 % 1026,7 hPa 0,0 l/m 8,5 km/h (2 Bft) O 90 2,5 C 18,8 km/h (3 Bft) 100 %
13.01.2018 10:51 3,5 C 93 % 1026,6 hPa 0,0 l/m 4,7 km/h (1 Bft) NO 53 2,5 C 15,7 km/h (3 Bft) 100 %
13.01.2018 10:52 3,5 C 93 % 1026,7 hPa 0,0 l/m 7,3 km/h (2 Bft) O-NO 72 2,5 C 15,7 km/h (3 Bft) 100 %
13.01.2018 10:53 3,5 C 93 % 1026,6 hPa 0,0 l/m 6,9 km/h (2 Bft) O-NO 70 2,5 C 18,8 km/h (3 Bft) 100 %
13.01.2018 10:54 3,6 C 93 % 1026,7 hPa 0,0 l/m 3,1 km/h (1 Bft) O 92 2,6 C 9,4 km/h (2 Bft) 100 %
13.01.2018 10:55 3,6 C 93 % 1026,7 hPa 0,0 l/m 0,5 km/h (0 Bft) O-NO 66 2,6 C 3,1 km/h (1 Bft) 100 %
13.01.2018 10:56 3,6 C 93 % 1026,7 hPa 0,0 l/m 3,0 km/h (1 Bft) SW 228 2,6 C 9,4 km/h (2 Bft) 100 %
13.01.2018 10:57 3,6 C 93 % 1026,7 hPa 0,0 l/m 7,5 km/h (2 Bft) O-SO 122 2,6 C 18,8 km/h (3 Bft) 100 %
13.01.2018 10:58 3,6 C 93 % 1026,7 hPa 0,0 l/m 3,8 km/h (1 Bft) O 96 2,6 C 12,6 km/h (3 Bft) 100 %
13.01.2018 10:59 3,6 C 93 % 1026,7 hPa 0,0 l/m 0,0 km/h (0 Bft) N 8 2,6 C 0,0 km/h (0 Bft) 100 %
13.01.2018 11:00 3,6 C 93 % 1026,7 hPa 0,0 l/m 4,1 km/h (1 Bft) O-NO 75 2,6 C 9,4 km/h (2 Bft) 100 %
13.01.2018 11:01 3,6 C 93 % 1026,7 hPa 0,0 l/m 2,7 km/h (1 Bft) S-SO 154 2,6 C 6,3 km/h (2 Bft) 100 %
13.01.2018 11:02 3,6 C 93 % 1026,7 hPa 0,0 l/m 0,0 km/h (0 Bft) S-SO 154 2,6 C 0,0 km/h (0 Bft) 100 %
13.01.2018 11:03 3,6 C 93 % 1026,6 hPa 0,0 l/m 0,0 km/h (0 Bft) SO 145 2,6 C 0,0 km/h (0 Bft) 100 %
13.01.2018 11:04 3,7 C 92 % 1026,7 hPa 0,0 l/m 2,5 km/h (1 Bft) O 93 2,5 C 6,3 km/h (2 Bft) 100 %
13.01.2018 11:05 3,6 C 92 % 1026,7 hPa 0,0 l/m 4,6 km/h (1 Bft) O-SO 111 2,4 C 12,6 km/h (3 Bft) 100 %
13.01.2018 11:06 3,6 C 92 % 1026,7 hPa 0,0 l/m 1,0 km/h (0 Bft) O-NO 72 2,4 C 6,3 km/h (2 Bft) 100 %
13.01.2018 11:07 3,6 C 92 % 1026,7 hPa 0,0 l/m 4,5 km/h (1 Bft) O-SO 105 2,4 C 9,4 km/h (2 Bft) 100 %
13.01.2018 11:08 3,6 C 92 % 1026,7 hPa 0,0 l/m 0,9 km/h (0 Bft) O-NO 74 2,4 C 3,1 km/h (1 Bft) 100 %
13.01.2018 11:09 3,7 C 92 % 1026,7 hPa 0,0 l/m 5,5 km/h (1 Bft) O-SO 105 2,5 C 15,7 km/h (3 Bft) 100 %
13.01.2018 11:10 3,7 C 92 % 1026,7 hPa 0,0 l/m 0,7 km/h (0 Bft) O-SO 103 2,5 C 3,1 km/h (1 Bft) 100 %
13.01.2018 11:11 3,6 C 92 % 1026,7 hPa 0,0 l/m 2,0 km/h (1 Bft) O 90 2,4 C 6,3 km/h (2 Bft) 100 %
13.01.2018 11:12 3,7 C 92 % 1026,7 hPa 0,0 l/m 4,2 km/h (1 Bft) O-SO 105 2,5 C 9,4 km/h (2 Bft) 100 %
13.01.2018 11:13 3,7 C 92 % 1026,7 hPa 0,0 l/m 0,1 km/h (0 Bft) O-NO 75 2,5 C 3,1 km/h (1 Bft) 100 %
13.01.2018 11:14 3,7 C 92 % 1026,6 hPa 0,0 l/m 0,1 km/h (0 Bft) O-NO 75 2,5 C 3,1 km/h (1 Bft) 100 %
13.01.2018 11:15 3,7 C 92 % 1026,7 hPa 0,0 l/m 8,0 km/h (2 Bft) O-SO 109 2,5 C 18,8 km/h (3 Bft) 100 %
13.01.2018 11:16 3,7 C 92 % 1026,6 hPa 0,0 l/m 1,2 km/h (1 Bft) SO 124 2,5 C 6,3 km/h (2 Bft) 100 %
13.01.2018 11:17 3,7 C 92 % 1026,5 hPa 0,0 l/m 0,0 km/h (0 Bft) SO 124 2,5 C 0,0 km/h (0 Bft) 100 %
13.01.2018 11:18 3,7 C 92 % 1026,6 hPa 0,0 l/m 0,0 km/h (0 Bft) SO 124 2,5 C 0,0 km/h (0 Bft) 100 %
13.01.2018 11:19 3,7 C 92 % 1026,6 hPa 0,0 l/m 0,3 km/h (0 Bft) SO 124 2,5 C 3,1 km/h (1 Bft) 100 %
13.01.2018 11:20 3,7 C 92 % 1026,6 hPa 0,0 l/m 1,7 km/h (1 Bft) O-NO 75 2,5 C 6,3 km/h (2 Bft) 100 %
13.01.2018 11:21 3,8 C 92 % 1026,6 hPa 0,0 l/m 2,2 km/h (1 Bft) O 98 2,6 C 6,3 km/h (2 Bft) 100 %
13.01.2018 11:22 3,8 C 92 % 1026,6 hPa 0,0 l/m 0,1 km/h (0 Bft) O 96 2,6 C 3,1 km/h (1 Bft) 100 %
13.01.2018 11:23 3,8 C 92 % 1026,5 hPa 0,0 l/m 0,2 km/h (0 Bft) O 86 2,6 C 3,1 km/h (1 Bft) 100 %
13.01.2018 11:24 3,8 C 92 % 1026,6 hPa 0,0 l/m 7,7 km/h (2 Bft) O-NO 58 2,6 C 18,8 km/h (3 Bft) 100 %
13.01.2018 11:25 3,8 C 92 % 1026,6 hPa 0,0 l/m 3,8 km/h (1 Bft) O 93 2,6 C 6,3 km/h (2 Bft) 100 %
13.01.2018 11:26 3,8 C 92 % 1026,6 hPa 0,0 l/m 5,0 km/h (1 Bft) O 86 2,6 C 12,6 km/h (3 Bft) 100 %
13.01.2018 11:27 3,8 C 91 % 1026,6 hPa 0,0 l/m 5,2 km/h (1 Bft) O-SO 109 2,5 C 12,6 km/h (3 Bft) 100 %
13.01.2018 11:28 3,8 C 91 % 1026,6 hPa 0,0 l/m 0,5 km/h (0 Bft) O 92 2,5 C 3,1 km/h (1 Bft) 100 %
13.01.2018 11:29 3,8 C 91 % 1026,5 hPa 0,0 l/m 0,8 km/h (0 Bft) O-SO 103 2,5 C 6,3 km/h (2 Bft) 100 %
13.01.2018 11:30 3,8 C 91 % 1026,5 hPa 0,0 l/m 1,8 km/h (1 Bft) SO 139 2,5 C 6,3 km/h (2 Bft) 100 %
13.01.2018 11:31 3,8 C 92 % 1026,6 hPa 0,0 l/m 0,2 km/h (0 Bft) O 96 2,6 C 3,1 km/h (1 Bft) 100 %
13.01.2018 11:32 3,8 C 92 % 1026,6 hPa 0,0 l/m 1,3 km/h (1 Bft) O 98 2,6 C 3,1 km/h (1 Bft) 100 %
13.01.2018 11:33 3,8 C 92 % 1026,6 hPa 0,0 l/m 0,0 km/h (0 Bft) O 98 2,6 C 0,0 km/h (0 Bft) 100 %
13.01.2018 11:34 3,8 C 91 % 1026,6 hPa 0,0 l/m 1,4 km/h (1 Bft) O 101 2,5 C 6,3 km/h (2 Bft) 100 %
13.01.2018 11:35 3,8 C 91 % 1026,6 hPa 0,0 l/m 3,0 km/h (1 Bft) NO 53 2,5 C 9,4 km/h (2 Bft) 100 %
13.01.2018 11:36 3,8 C 91 % 1026,6 hPa 0,0 l/m 0,2 km/h (0 Bft) NO 52 2,5 C 3,1 km/h (1 Bft) 100 %
13.01.2018 11:37 3,8 C 91 % 1026,6 hPa 0,0 l/m 0,5 km/h (0 Bft) O-SO 115 2,5 C 6,3 km/h (2 Bft) 100 %
13.01.2018 11:38 3,8 C 91 % 1026,5 hPa 0,0 l/m 0,2 km/h (0 Bft) O-SO 115 2,5 C 3,1 km/h (1 Bft) 99 %
13.01.2018 11:39 3,8 C 91 % 1026,6 hPa 0,0 l/m 0,0 km/h (0 Bft) S 170 2,5 C 0,0 km/h (0 Bft) 100 %
13.01.2018 11:40 3,8 C 91 % 1026,5 hPa 0,0 l/m 3,4 km/h (1 Bft) O-NO 75 2,5 C 6,3 km/h (2 Bft) 100 %
13.01.2018 11:41 3,8 C 91 % 1026,5 hPa 0,0 l/m 1,2 km/h (1 Bft) O 87 2,5 C 6,3 km/h (2 Bft) 100 %
13.01.2018 11:42 3,8 C 91 % 1026,5 hPa 0,0 l/m 0,9 km/h (0 Bft) O 83 2,5 C 6,3 km/h (2 Bft) 100 %
13.01.2018 11:43 3,8 C 91 % 1026,5 hPa 0,0 l/m 2,4 km/h (1 Bft) SO 133 2,5 C 9,4 km/h (2 Bft) 100 %
13.01.2018 11:44 3,8 C 91 % 1026,5 hPa 0,0 l/m 3,1 km/h (1 Bft) O 101 2,5 C 6,3 km/h (2 Bft) 100 %
13.01.2018 11:45 3,8 C 91 % 1026,5 hPa 0,0 l/m 0,5 km/h (0 Bft) O 100 2,5 C 3,1 km/h (1 Bft) 100 %
13.01.2018 11:46 3,8 C 91 % 1026,4 hPa 0,0 l/m 0,0 km/h (0 Bft) O 100 2,5 C 0,0 km/h (0 Bft) 100 %
13.01.2018 11:47 3,8 C 91 % 1026,4 hPa 0,0 l/m 0,0 km/h (0 Bft) O 94 2,5 C 0,0 km/h (0 Bft) 100 %
13.01.2018 11:48 3,8 C 91 % 1026,4 hPa 0,0 l/m 0,7 km/h (0 Bft) O-SO 108 2,5 C 6,3 km/h (2 Bft) 100 %
13.01.2018 11:49 3,8 C 91 % 1026,4 hPa 0,0 l/m 2,2 km/h (1 Bft) O-SO 105 2,5 C 9,4 km/h (2 Bft) 100 %
13.01.2018 11:50 3,8 C 91 % 1026,4 hPa 0,0 l/m 0,0 km/h (0 Bft) O-SO 108 2,5 C 0,0 km/h (0 Bft) 100 %
13.01.2018 11:51 3,8 C 91 % 1026,4 hPa 0,0 l/m 2,2 km/h (1 Bft) O 92 2,5 C 6,3 km/h (2 Bft) 100 %
13.01.2018 11:52 3,8 C 91 % 1026,4 hPa 0,0 l/m 0,3 km/h (0 Bft) O 92 2,5 C 3,1 km/h (1 Bft) 100 %
13.01.2018 11:53 3,8 C 91 % 1026,4 hPa 0,0 l/m 0,5 km/h (0 Bft) O 101 2,5 C 3,1 km/h (1 Bft) 100 %
13.01.2018 11:54 3,8 C 91 % 1026,4 hPa 0,0 l/m 1,2 km/h (1 Bft) SO 141 2,5 C 3,1 km/h (1 Bft) 100 %
13.01.2018 11:55 3,8 C 91 % 1026,3 hPa 0,0 l/m 0,8 km/h (0 Bft) O-SO 117 2,5 C 3,1 km/h (1 Bft) 100 %
13.01.2018 11:56 3,9 C 91 % 1026,3 hPa 0,0 l/m 0,3 km/h (0 Bft) O-SO 113 2,6 C 3,1 km/h (1 Bft) 100 %
13.01.2018 11:57 3,9 C 91 % 1026,4 hPa 0,0 l/m 5,4 km/h (1 Bft) O 79 2,6 C 9,4 km/h (2 Bft) 100 %
13.01.2018 11:58 3,9 C 91 % 1026,4 hPa 0,0 l/m 0,8 km/h (0 Bft) N-NO 30 2,6 C 3,1 km/h (1 Bft) 100 %
13.01.2018 11:59 3,9 C 91 % 1026,3 hPa 0,0 l/m 0,0 km/h (0 Bft) O-NO 75 2,6 C 0,0 km/h (0 Bft) 100 %
13.01.2018 12:00 3,9 C 91 % 1026,3 hPa 0,0 l/m 0,9 km/h (0 Bft) S-SO 167 2,6 C 3,1 km/h (1 Bft) 100 %
13.01.2018 12:01 3,9 C 91 % 1026,4 hPa 0,0 l/m 3,5 km/h (1 Bft) O 99 2,6 C 6,3 km/h (2 Bft) 100 %
13.01.2018 12:02 3,9 C 91 % 1026,4 hPa 0,0 l/m 0,0 km/h (0 Bft) O 99 2,6 C 0,0 km/h (0 Bft) 100 %
13.01.2018 12:03 4,0 C 91 % 1026,3 hPa 0,0 l/m 0,0 km/h (0 Bft) O 101 2,7 C 0,0 km/h (0 Bft) 100 %
13.01.2018 12:04 3,9 C 91 % 1026,3 hPa 0,0 l/m 4,8 km/h (1 Bft) O 81 2,6 C 12,6 km/h (3 Bft) 100 %
13.01.2018 12:05 4,0 C 90 % 1026,3 hPa 0,0 l/m 4,9 km/h (1 Bft) O-SO 105 2,5 C 6,3 km/h (2 Bft) 100 %
13.01.2018 12:06 3,9 C 90 % 1026,3 hPa 0,0 l/m 4,2 km/h (1 Bft) SO 128 2,4 C 6,3 km/h (2 Bft) 100 %
13.01.2018 12:07 3,9 C 90 % 1026,2 hPa 0,0 l/m 0,5 km/h (0 Bft) O-SO 110 2,4 C 3,1 km/h (1 Bft) 100 %
13.01.2018 12:08 4,0 C 90 % 1026,3 hPa 0,0 l/m 0,3 km/h (0 Bft) O-SO 117 2,5 C 3,1 km/h (1 Bft) 100 %
13.01.2018 12:09 4,0 C 91 % 1026,3 hPa 0,0 l/m 1,3 km/h (1 Bft) O 93 2,7 C 3,1 km/h (1 Bft) 100 %
13.01.2018 12:10 4,0 C 91 % 1026,2 hPa 0,0 l/m 2,8 km/h (1 Bft) O 83 2,7 C 6,3 km/h (2 Bft) 100 %
13.01.2018 12:11 4,1 C 90 % 1026,3 hPa 0,0 l/m 1,8 km/h (1 Bft) O 100 2,6 C 6,3 km/h (2 Bft) 100 %
13.01.2018 12:12 4,1 C 90 % 1026,2 hPa 0,0 l/m 2,0 km/h (1 Bft) O-NO 77 2,6 C 3,1 km/h (1 Bft) 100 %
13.01.2018 12:13 4,1 C 90 % 1026,2 hPa 0,0 l/m 1,3 km/h (1 Bft) O-SO 108 2,6 C 6,3 km/h (2 Bft) 100 %
13.01.2018 12:14 4,1 C 90 % 1026,2 hPa 0,0 l/m 1,2 km/h (1 Bft) O 96 2,6 C 3,1 km/h (1 Bft) 100 %
13.01.2018 12:15 4,1 C 90 % 1026,2 hPa 0,0 l/m 2,7 km/h (1 Bft) O 82 2,6 C 6,3 km/h (2 Bft) 100 %
13.01.2018 12:16 4,1 C 90 % 1026,2 hPa 0,0 l/m 1,6 km/h (1 Bft) NO 35 2,6 C 3,1 km/h (1 Bft) 96 %
13.01.2018 12:17 4,1 C 90 % 1026,2 hPa 0,0 l/m 0,6 km/h (0 Bft) SO 135 2,6 C 3,1 km/h (1 Bft) 100 %
13.01.2018 12:18 4,2 C 90 % 1026,2 hPa 0,0 l/m 0,6 km/h (0 Bft) SO 129 2,7 C 3,1 km/h (1 Bft) 100 %
13.01.2018 12:19 4,2 C 90 % 1026,2 hPa 0,0 l/m 0,2 km/h (0 Bft) SO 127 2,7 C 3,1 km/h (1 Bft) 100 %
13.01.2018 12:20 4,2 C 90 % 1026,2 hPa 0,0 l/m 0,0 km/h (0 Bft) SO 127 2,7 C 0,0 km/h (0 Bft) 100 %
13.01.2018 12:21 4,2 C 90 % 1026,2 hPa 0,0 l/m 1,7 km/h (1 Bft) O-NO 58 2,7 C 3,1 km/h (1 Bft) 100 %
13.01.2018 12:22 4,3 C 90 % 1026,2 hPa 0,0 l/m 0,1 km/h (0 Bft) O-SO 102 2,8 C 3,1 km/h (1 Bft) 100 %
13.01.2018 12:23 4,3 C 90 % 1026,2 hPa 0,0 l/m 1,4 km/h (1 Bft) O-NO 71 2,8 C 3,1 km/h (1 Bft) 100 %
13.01.2018 12:24 4,3 C 90 % 1026,1 hPa 0,0 l/m 4,0 km/h (1 Bft) NO 44 2,8 C 9,4 km/h (2 Bft) 100 %
13.01.2018 12:25 4,3 C 90 % 1026,1 hPa 0,0 l/m 2,9 km/h (1 Bft) O-SO 117 2,8 C 6,3 km/h (2 Bft) 100 %
13.01.2018 12:26 4,3 C 89 % 1026,1 hPa 0,0 l/m 1,6 km/h (1 Bft) O-SO 105 2,7 C 6,3 km/h (2 Bft) 100 %
13.01.2018 12:27 4,3 C 89 % 1026,1 hPa 0,0 l/m 0,1 km/h (0 Bft) O 98 2,7 C 3,1 km/h (1 Bft) 100 %
13.01.2018 12:28 4,3 C 89 % 1026,2 hPa 0,0 l/m 3,5 km/h (1 Bft) O-SO 118 2,7 C 9,4 km/h (2 Bft) 100 %
13.01.2018 12:29 4,3 C 89 % 1026,2 hPa 0,0 l/m 3,3 km/h (1 Bft) O-SO 111 2,7 C 9,4 km/h (2 Bft) 100 %
13.01.2018 12:30 4,3 C 89 % 1026,2 hPa 0,0 l/m 0,8 km/h (0 Bft) O 80 2,7 C 3,1 km/h (1 Bft) 100 %
13.01.2018 12:31 4,3 C 89 % 1026,1 hPa 0,0 l/m 0,3 km/h (0 Bft) O 81 2,7 C 3,1 km/h (1 Bft) 100 %
13.01.2018 12:32 4,3 C 89 % 1026,1 hPa 0,0 l/m 2,2 km/h (1 Bft) O-SO 113 2,7 C 6,3 km/h (2 Bft) 100 %
13.01.2018 12:33 4,3 C 89 % 1026,1 hPa 0,0 l/m 1,4 km/h (1 Bft) O-SO 106 2,7 C 6,3 km/h (2 Bft) 100 %
13.01.2018 12:34 4,3 C 89 % 1026,1 hPa 0,0 l/m 3,3 km/h (1 Bft) O 95 2,7 C 9,4 km/h (2 Bft) 96 %
13.01.2018 12:35 4,3 C 89 % 1026,1 hPa 0,0 l/m 0,6 km/h (0 Bft) S-SO 153 2,7 C 3,1 km/h (1 Bft) 94 %
13.01.2018 12:36 4,3 C 89 % 1026,1 hPa 0,0 l/m 2,8 km/h (1 Bft) O 101 2,7 C 9,4 km/h (2 Bft) 100 %
13.01.2018 12:37 4,2 C 89 % 1026,1 hPa 0,0 l/m 1,6 km/h (1 Bft) O-SO 108 2,6 C 3,1 km/h (1 Bft) 100 %
13.01.2018 12:38 4,2 C 89 % 1026,1 hPa 0,0 l/m 0,3 km/h (0 Bft) O-SO 108 2,6 C 3,1 km/h (1 Bft) 100 %
13.01.2018 12:39 4,2 C 89 % 1026,1 hPa 0,0 l/m 0,8 km/h (0 Bft) O-NO 60 2,6 C 3,1 km/h (1 Bft) 100 %
13.01.2018 12:40 4,2 C 89 % 1026,1 hPa 0,0 l/m 3,7 km/h (1 Bft) O-SO 111 2,6 C 6,3 km/h (2 Bft) 97 %
13.01.2018 12:41 4,2 C 89 % 1026,1 hPa 0,0 l/m 2,3 km/h (1 Bft) O-SO 109 2,6 C 6,3 km/h (2 Bft) 100 %
13.01.2018 12:42 4,2 C 89 % 1026,1 hPa 0,0 l/m 2,1 km/h (1 Bft) O-NO 69 2,6 C 6,3 km/h (2 Bft) 100 %
13.01.2018 12:43 4,2 C 89 % 1026,1 hPa 0,0 l/m 0,4 km/h (0 Bft) O 96 2,6 C 3,1 km/h (1 Bft) 100 %
13.01.2018 12:44 4,2 C 89 % 1026,1 hPa 0,0 l/m 0,0 km/h (0 Bft) O 91 2,6 C 0,0 km/h (0 Bft) 97 %
13.01.2018 12:45 4,3 C 89 % 1026,1 hPa 0,0 l/m 0,0 km/h (0 Bft) O 91 2,7 C 0,0 km/h (0 Bft) 100 %
13.01.2018 12:46 4,3 C 89 % 1026,1 hPa 0,0 l/m 4,6 km/h (1 Bft) O-SO 109 2,7 C 9,4 km/h (2 Bft) 96 %
13.01.2018 12:47 4,3 C 89 % 1026,1 hPa 0,0 l/m 1,0 km/h (0 Bft) O-SO 111 2,7 C 6,3 km/h (2 Bft) 100 %
13.01.2018 12:48 4,3 C 89 % 1026,1 hPa 0,0 l/m 0,2 km/h (0 Bft) O-SO 105 2,7 C 3,1 km/h (1 Bft) 96 %
13.01.2018 12:49 4,3 C 89 % 1026,1 hPa 0,0 l/m 4,8 km/h (1 Bft) NO 34 2,7 C 9,4 km/h (2 Bft) 100 %
13.01.2018 12:50 4,3 C 89 % 1026,1 hPa 0,0 l/m 2,6 km/h (1 Bft) SO 124 2,7 C 9,4 km/h (2 Bft) 96 %
13.01.2018 12:51 4,3 C 89 % 1026,1 hPa 0,0 l/m 3,6 km/h (1 Bft) O-SO 122 2,7 C 12,6 km/h (3 Bft) 96 %
13.01.2018 12:52 4,3 C 89 % 1026,1 hPa 0,0 l/m 1,7 km/h (1 Bft) O 80 2,7 C 3,1 km/h (1 Bft) 100 %
13.01.2018 12:53 4,3 C 89 % 1026,0 hPa 0,0 l/m 0,0 km/h (0 Bft) O 80 2,7 C 0,0 km/h (0 Bft) 96 %
13.01.2018 12:54 4,3 C 89 % 1026,1 hPa 0,0 l/m 1,7 km/h (1 Bft) O 82 2,7 C 3,1 km/h (1 Bft) 100 %
13.01.2018 12:55 4,3 C 89 % 1026,1 hPa 0,0 l/m 0,0 km/h (0 Bft) O 82 2,7 C 0,0 km/h (0 Bft) 96 %
13.01.2018 12:56 4,3 C 89 % 1026,1 hPa 0,0 l/m 0,0 km/h (0 Bft) O 82 2,7 C 0,0 km/h (0 Bft) 100 %
13.01.2018 12:57 4,3 C 89 % 1026,0 hPa 0,0 l/m 0,8 km/h (0 Bft) O-NO 70 2,7 C 3,1 km/h (1 Bft) 96 %
13.01.2018 12:58 4,3 C 89 % 1026,0 hPa 0,0 l/m 0,1 km/h (0 Bft) O 94 2,7 C 3,1 km/h (1 Bft) 100 %
13.01.2018 12:59 4,3 C 89 % 1026,0 hPa 0,0 l/m 0,0 km/h (0 Bft) O 93 2,7 C 0,0 km/h (0 Bft) 96 %
13.01.2018 13:00 4,3 C 89 % 1026,0 hPa 0,0 l/m 0,0 km/h (0 Bft) O 94 2,7 C 0,0 km/h (0 Bft) 100 %
13.01.2018 13:01 4,4 C 89 % 1026,0 hPa 0,0 l/m 0,1 km/h (0 Bft) O-NO 70 2,7 C 3,1 km/h (1 Bft) 97 %
13.01.2018 13:02 4,4 C 89 % 1026,0 hPa 0,0 l/m 0,1 km/h (0 Bft) O-NO 70 2,7 C 3,1 km/h (1 Bft) 96 %
13.01.2018 13:03 4,4 C 89 % 1026,0 hPa 0,0 l/m 0,5 km/h (0 Bft) NO 46 2,7 C 6,3 km/h (2 Bft) 100 %
13.01.2018 13:04 4,4 C 89 % 1026,0 hPa 0,0 l/m 1,2 km/h (1 Bft) NO 56 2,7 C 6,3 km/h (2 Bft) 96 %
13.01.2018 13:05 4,4 C 88 % 1026,0 hPa 0,0 l/m 4,2 km/h (1 Bft) O 88 2,6 C 6,3 km/h (2 Bft) 100 %
13.01.2018 13:06 4,4 C 88 % 1026,0 hPa 0,0 l/m 3,3 km/h (1 Bft) NO 49 2,6 C 9,4 km/h (2 Bft) 96 %
13.01.2018 13:07 4,3 C 88 % 1026,0 hPa 0,0 l/m 0,9 km/h (0 Bft) SO 130 2,5 C 6,3 km/h (2 Bft) 100 %
13.01.2018 13:08 4,3 C 88 % 1025,9 hPa 0,0 l/m 2,2 km/h (1 Bft) O-SO 110 2,5 C 9,4 km/h (2 Bft) 96 %
13.01.2018 13:09 4,3 C 88 % 1025,9 hPa 0,0 l/m 6,1 km/h (2 Bft) O-SO 115 2,5 C 18,8 km/h (3 Bft) 100 %
13.01.2018 13:10 4,3 C 87 % 1026,0 hPa 0,0 l/m 5,0 km/h (1 Bft) O 93 2,3 C 15,7 km/h (3 Bft) 100 %
13.01.2018 13:11 4,3 C 87 % 1025,9 hPa 0,0 l/m 0,5 km/h (0 Bft) O 95 2,3 C 3,1 km/h (1 Bft) 100 %
13.01.2018 13:12 4,3 C 88 % 1025,9 hPa 0,0 l/m 2,2 km/h (1 Bft) O 90 2,5 C 6,3 km/h (2 Bft) 100 %
13.01.2018 13:13 4,3 C 88 % 1025,9 hPa 0,0 l/m 0,0 km/h (0 Bft) O 90 2,5 C 0,0 km/h (0 Bft) 100 %
13.01.2018 13:14 4,3 C 88 % 1026,0 hPa 0,0 l/m 0,3 km/h (0 Bft) O-NO 58 2,5 C 3,1 km/h (1 Bft) 100 %
13.01.2018 13:15 4,3 C 88 % 1026,0 hPa 0,0 l/m 0,7 km/h (0 Bft) O-NO 74 2,5 C 6,3 km/h (2 Bft) 100 %
13.01.2018 13:16 4,3 C 88 % 1025,9 hPa 0,0 l/m 3,5 km/h (1 Bft) NO 40 2,5 C 9,4 km/h (2 Bft) 100 %
13.01.2018 13:17 4,3 C 88 % 1026,0 hPa 0,0 l/m 0,3 km/h (0 Bft) O-NO 75 2,5 C 3,1 km/h (1 Bft) 100 %
13.01.2018 13:18 4,3 C 88 % 1026,0 hPa 0,0 l/m 2,9 km/h (1 Bft) O 89 2,5 C 9,4 km/h (2 Bft) 100 %
13.01.2018 13:19 4,3 C 88 % 1025,9 hPa 0,0 l/m 0,4 km/h (0 Bft) O 89 2,5 C 3,1 km/h (1 Bft) 100 %
13.01.2018 13:20 4,2 C 88 % 1025,9 hPa 0,0 l/m 3,4 km/h (1 Bft) O-SO 113 2,4 C 9,4 km/h (2 Bft) 100 %
13.01.2018 13:21 4,2 C 88 % 1025,9 hPa 0,0 l/m 3,4 km/h (1 Bft) O-SO 112 2,4 C 9,4 km/h (2 Bft) 100 %
13.01.2018 13:22 4,2 C 88 % 1025,9 hPa 0,0 l/m 1,0 km/h (0 Bft) O 86 2,4 C 3,1 km/h (1 Bft) 100 %
13.01.2018 13:23 4,2 C 88 % 1025,9 hPa 0,0 l/m 3,1 km/h (1 Bft) NO 41 2,4 C 9,4 km/h (2 Bft) 100 %
13.01.2018 13:24 4,2 C 88 % 1025,9 hPa 0,0 l/m 1,6 km/h (1 Bft) N-NO 21 2,4 C 6,3 km/h (2 Bft) 100 %
13.01.2018 13:25 4,2 C 89 % 1025,9 hPa 0,0 l/m 1,7 km/h (1 Bft) O 84 2,6 C 3,1 km/h (1 Bft) 100 %
13.01.2018 13:26 4,2 C 89 % 1025,8 hPa 0,0 l/m 1,2 km/h (1 Bft) NO 46 2,6 C 3,1 km/h (1 Bft) 100 %
13.01.2018 13:27 4,2 C 89 % 1025,9 hPa 0,0 l/m 2,1 km/h (1 Bft) SO 128 2,6 C 9,4 km/h (2 Bft) 100 %
13.01.2018 13:28 4,2 C 89 % 1025,8 hPa 0,0 l/m 1,2 km/h (1 Bft) N-NO 23 2,6 C 6,3 km/h (2 Bft) 100 %
13.01.2018 13:29 4,1 C 89 % 1025,9 hPa 0,0 l/m 1,6 km/h (1 Bft) O 101 2,5 C 3,1 km/h (1 Bft) 100 %
13.01.2018 13:31 4,1 C 89 % 1025,9 hPa 0,0 l/m 0,0 km/h (0 Bft) SW 217 2,5 C 0,0 km/h (0 Bft) 100 %
13.01.2018 13:32 4,1 C 89 % 1025,9 hPa 0,0 l/m 0,0 km/h (0 Bft) SO 135 2,5 C 0,0 km/h (0 Bft) 100 %
13.01.2018 13:33 4,1 C 89 % 1025,9 hPa 0,0 l/m 4,5 km/h (1 Bft) O-NO 69 2,5 C 15,7 km/h (3 Bft) 100 %
13.01.2018 13:34 4,1 C 89 % 1025,8 hPa 0,0 l/m 3,3 km/h (1 Bft) O-NO 68 2,5 C 6,3 km/h (2 Bft) 100 %
13.01.2018 13:35 4,1 C 89 % 1025,8 hPa 0,0 l/m 4,2 km/h (1 Bft) O-SO 117 2,5 C 12,6 km/h (3 Bft) 100 %
13.01.2018 13:36 4,1 C 89 % 1025,8 hPa 0,0 l/m 1,8 km/h (1 Bft) O-SO 108 2,5 C 6,3 km/h (2 Bft) 100 %
13.01.2018 13:37 4,0 C 89 % 1025,8 hPa 0,0 l/m 3,9 km/h (1 Bft) O-SO 103 2,4 C 12,6 km/h (3 Bft) 100 %
13.01.2018 13:38 4,0 C 89 % 1025,8 hPa 0,0 l/m 4,1 km/h (1 Bft) NO 53 2,4 C 9,4 km/h (2 Bft) 100 %
13.01.2018 13:39 3,9 C 89 % 1025,8 hPa 0,0 l/m 3,7 km/h (1 Bft) O-NO 60 2,3 C 9,4 km/h (2 Bft) 100 %
13.01.2018 13:40 3,9 C 90 % 1025,8 hPa 0,0 l/m 2,9 km/h (1 Bft) O 101 2,4 C 6,3 km/h (2 Bft) 100 %
13.01.2018 13:41 3,9 C 90 % 1025,8 hPa 0,0 l/m 0,0 km/h (0 Bft) O 101 2,4 C 0,0 km/h (0 Bft) 100 %
13.01.2018 13:42 3,9 C 90 % 1025,8 hPa 0,0 l/m 2,3 km/h (1 Bft) SO 125 2,4 C 6,3 km/h (2 Bft) 100 %
13.01.2018 13:43 3,9 C 90 % 1025,8 hPa 0,0 l/m 0,3 km/h (0 Bft) O-SO 122 2,4 C 3,1 km/h (1 Bft) 100 %
13.01.2018 13:44 3,9 C 90 % 1025,8 hPa 0,0 l/m 0,8 km/h (0 Bft) O 93 2,4 C 6,3 km/h (2 Bft) 100 %
13.01.2018 13:45 3,9 C 90 % 1025,8 hPa 0,0 l/m 0,8 km/h (0 Bft) O-SO 116 2,4 C 6,3 km/h (2 Bft) 100 %
13.01.2018 13:46 3,9 C 90 % 1025,8 hPa 0,0 l/m 1,7 km/h (1 Bft) O-SO 103 2,4 C 6,3 km/h (2 Bft) 100 %
13.01.2018 13:47 3,9 C 90 % 1025,8 hPa 0,0 l/m 0,6 km/h (0 Bft) SO 126 2,4 C 3,1 km/h (1 Bft) 100 %
13.01.2018 13:48 3,9 C 90 % 1025,8 hPa 0,0 l/m 0,0 km/h (0 Bft) SO 126 2,4 C 0,0 km/h (0 Bft) 100 %
13.01.2018 13:49 3,9 C 90 % 1025,8 hPa 0,0 l/m 0,9 km/h (0 Bft) O-SO 102 2,4 C 3,1 km/h (1 Bft) 100 %
13.01.2018 13:50 3,9 C 90 % 1025,8 hPa 0,0 l/m 0,1 km/h (0 Bft) SO 133 2,4 C 3,1 km/h (1 Bft) 100 %
13.01.2018 13:51 3,9 C 90 % 1025,8 hPa 0,0 l/m 0,9 km/h (0 Bft) O 96 2,4 C 3,1 km/h (1 Bft) 100 %
13.01.2018 13:52 3,9 C 90 % 1025,8 hPa 0,0 l/m 0,1 km/h (0 Bft) O 94 2,4 C 3,1 km/h (1 Bft) 100 %
13.01.2018 13:53 3,9 C 90 % 1025,8 hPa 0,0 l/m 0,1 km/h (0 Bft) SO 124 2,4 C 3,1 km/h (1 Bft) 100 %
13.01.2018 13:54 3,8 C 90 % 1025,8 hPa 0,0 l/m 0,3 km/h (0 Bft) SO 124 2,3 C 3,1 km/h (1 Bft) 100 %
13.01.2018 13:55 3,8 C 90 % 1025,8 hPa 0,0 l/m 3,9 km/h (1 Bft) O 83 2,3 C 9,4 km/h (2 Bft) 100 %
13.01.2018 13:56 3,8 C 90 % 1025,8 hPa 0,0 l/m 0,1 km/h (0 Bft) O 83 2,3 C 3,1 km/h (1 Bft) 100 %
13.01.2018 13:57 3,8 C 90 % 1025,8 hPa 0,0 l/m 2,6 km/h (1 Bft) O-SO 108 2,3 C 9,4 km/h (2 Bft) 100 %
13.01.2018 13:58 3,8 C 90 % 1025,8 hPa 0,0 l/m 4,3 km/h (1 Bft) O 89 2,3 C 15,7 km/h (3 Bft) 100 %
13.01.2018 13:59 3,8 C 90 % 1025,8 hPa 0,0 l/m 3,5 km/h (1 Bft) O 94 2,3 C 18,8 km/h (3 Bft) 100 %
13.01.2018 14:00 3,8 C 90 % 1025,8 hPa 0,0 l/m 7,5 km/h (2 Bft) S-SO 167 2,3 C 12,6 km/h (3 Bft) 100 %
13.01.2018 14:01 3,8 C 90 % 1025,8 hPa 0,0 l/m 4,4 km/h (1 Bft) NO 56 2,3 C 15,7 km/h (3 Bft) 100 %
13.01.2018 14:02 3,8 C 90 % 1025,8 hPa 0,0 l/m 3,9 km/h (1 Bft) O 84 2,3 C 9,4 km/h (2 Bft) 100 %
13.01.2018 14:03 3,8 C 90 % 1025,8 hPa 0,0 l/m 2,6 km/h (1 Bft) O-SO 110 2,3 C 9,4 km/h (2 Bft) 100 %
13.01.2018 14:04 3,8 C 90 % 1025,8 hPa 0,0 l/m 1,1 km/h (1 Bft) O-NO 59 2,3 C 6,3 km/h (2 Bft) 100 %
13.01.2018 14:05 3,8 C 90 % 1025,8 hPa 0,0 l/m 1,2 km/h (1 Bft) O 89 2,3 C 3,1 km/h (1 Bft) 100 %
13.01.2018 14:06 3,7 C 90 % 1025,8 hPa 0,0 l/m 0,3 km/h (0 Bft) S 182 2,2 C 3,1 km/h (1 Bft) 100 %
13.01.2018 14:07 3,8 C 90 % 1025,8 hPa 0,0 l/m 6,3 km/h (2 Bft) NO 56 2,3 C 15,7 km/h (3 Bft) 100 %
13.01.2018 14:08 3,7 C 90 % 1025,8 hPa 0,0 l/m 2,7 km/h (1 Bft) O-NO 75 2,2 C 6,3 km/h (2 Bft) 100 %
13.01.2018 14:09 3,7 C 90 % 1025,8 hPa 0,0 l/m 2,9 km/h (1 Bft) O 79 2,2 C 12,6 km/h (3 Bft) 100 %
13.01.2018 14:10 3,7 C 90 % 1025,8 hPa 0,0 l/m 5,4 km/h (1 Bft) N 354 2,2 C 15,7 km/h (3 Bft) 100 %
13.01.2018 14:11 3,7 C 90 % 1025,8 hPa 0,0 l/m 1,4 km/h (1 Bft) O 100 2,2 C 6,3 km/h (2 Bft) 100 %
13.01.2018 14:12 3,7 C 90 % 1025,7 hPa 0,0 l/m 2,3 km/h (1 Bft) O 80 2,2 C 6,3 km/h (2 Bft) 100 %
13.01.2018 14:13 3,7 C 90 % 1025,7 hPa 0,0 l/m 1,4 km/h (1 Bft) SO 127 2,2 C 6,3 km/h (2 Bft) 100 %
13.01.2018 14:14 3,7 C 90 % 1025,7 hPa 0,0 l/m 2,4 km/h (1 Bft) O-SO 103 2,2 C 6,3 km/h (2 Bft) 100 %
13.01.2018 14:15 3,7 C 90 % 1025,7 hPa 0,0 l/m 0,0 km/h (0 Bft) SW 231 2,2 C 0,0 km/h (0 Bft) 100 %
13.01.2018 14:16 3,7 C 90 % 1025,7 hPa 0,0 l/m 2,6 km/h (1 Bft) O-NO 67 2,2 C 9,4 km/h (2 Bft) 100 %
13.01.2018 14:17 3,7 C 90 % 1025,6 hPa 0,0 l/m 1,7 km/h (1 Bft) O 82 2,2 C 9,4 km/h (2 Bft) 100 %
13.01.2018 14:18 3,7 C 90 % 1025,7 hPa 0,0 l/m 0,7 km/h (0 Bft) O-NO 76 2,2 C 3,1 km/h (1 Bft) 100 %
13.01.2018 14:19 3,7 C 90 % 1025,7 hPa 0,0 l/m 0,5 km/h (0 Bft) O-SO 113 2,2 C 3,1 km/h (1 Bft) 100 %
13.01.2018 14:20 3,7 C 90 % 1025,6 hPa 0,0 l/m 0,8 km/h (0 Bft) O 81 2,2 C 3,1 km/h (1 Bft) 100 %
13.01.2018 14:21 3,7 C 90 % 1025,6 hPa 0,0 l/m 4,3 km/h (1 Bft) O-SO 115 2,2 C 15,7 km/h (3 Bft) 100 %
13.01.2018 14:22 3,7 C 89 % 1025,6 hPa 0,0 l/m 3,0 km/h (1 Bft) O 83 2,1 C 12,6 km/h (3 Bft) 100 %
13.01.2018 14:23 3,7 C 89 % 1025,6 hPa 0,0 l/m 1,1 km/h (1 Bft) O-NO 65 2,1 C 9,4 km/h (2 Bft) 100 %
13.01.2018 14:24 3,6 C 89 % 1025,5 hPa 0,0 l/m 3,5 km/h (1 Bft) SO 139 2,0 C 9,4 km/h (2 Bft) 100 %
13.01.2018 14:25 3,6 C 89 % 1025,5 hPa 0,0 l/m 5,6 km/h (1 Bft) S-SO 147 2,0 C 12,6 km/h (3 Bft) 100 %
13.01.2018 14:26 3,6 C 89 % 1025,5 hPa 0,0 l/m 2,1 km/h (1 Bft) O-SO 123 2,0 C 9,4 km/h (2 Bft) 100 %
13.01.2018 14:27 3,6 C 89 % 1025,5 hPa 0,0 l/m 2,5 km/h (1 Bft) O-SO 108 2,0 C 9,4 km/h (2 Bft) 100 %
13.01.2018 14:28 3,6 C 89 % 1025,5 hPa 0,0 l/m 6,5 km/h (2 Bft) O 98 2,0 C 12,6 km/h (3 Bft) 100 %
13.01.2018 14:29 3,6 C 89 % 1025,5 hPa 0,0 l/m 4,5 km/h (1 Bft) O-NO 74 2,0 C 9,4 km/h (2 Bft) 100 %
13.01.2018 14:30 3,6 C 89 % 1025,5 hPa 0,0 l/m 2,1 km/h (1 Bft) O-SO 120 2,0 C 6,3 km/h (2 Bft) 100 %
13.01.2018 14:31 3,6 C 89 % 1025,5 hPa 0,0 l/m 2,8 km/h (1 Bft) O-NO 65 2,0 C 9,4 km/h (2 Bft) 100 %
13.01.2018 14:32 3,6 C 89 % 1025,5 hPa 0,0 l/m 0,1 km/h (0 Bft) O-NO 67 2,0 C 3,1 km/h (1 Bft) 100 %
13.01.2018 14:33 3,6 C 89 % 1025,5 hPa 0,0 l/m 0,7 km/h (0 Bft) O-SO 105 2,0 C 3,1 km/h (1 Bft) 100 %
13.01.2018 14:34 3,6 C 89 % 1025,5 hPa 0,0 l/m 1,7 km/h (1 Bft) O 79 2,0 C 6,3 km/h (2 Bft) 100 %
13.01.2018 14:35 3,6 C 89 % 1025,4 hPa 0,0 l/m 0,0 km/h (0 Bft) O 80 2,0 C 0,0 km/h (0 Bft) 100 %
13.01.2018 14:36 3,6 C 89 % 1025,4 hPa 0,0 l/m 1,7 km/h (1 Bft) O 94 2,0 C 9,4 km/h (2 Bft) 100 %
13.01.2018 14:37 3,6 C 89 % 1025,4 hPa 0,0 l/m 6,5 km/h (2 Bft) W-SW 258 2,0 C 18,8 km/h (3 Bft) 100 %
13.01.2018 14:38 3,6 C 89 % 1025,4 hPa 0,0 l/m 0,4 km/h (0 Bft) N-NW 338 2,0 C 3,1 km/h (1 Bft) 100 %
13.01.2018 14:39 3,6 C 89 % 1025,5 hPa 0,0 l/m 2,1 km/h (1 Bft) O-NO 74 2,0 C 6,3 km/h (2 Bft) 100 %
13.01.2018 14:40 3,6 C 89 % 1025,5 hPa 0,0 l/m 5,3 km/h (1 Bft) O-SO 120 2,0 C 15,7 km/h (3 Bft) 100 %
13.01.2018 14:41 3,6 C 89 % 1025,5 hPa 0,0 l/m 0,0 km/h (0 Bft) O 83 2,0 C 0,0 km/h (0 Bft) 100 %
13.01.2018 14:42 3,6 C 89 % 1025,4 hPa 0,0 l/m 4,5 km/h (1 Bft) SW 218 2,0 C 9,4 km/h (2 Bft) 100 %
13.01.2018 14:43 3,6 C 89 % 1025,4 hPa 0,0 l/m 7,1 km/h (2 Bft) SO 139 2,0 C 15,7 km/h (3 Bft) 100 %
13.01.2018 14:44 3,6 C 89 % 1025,4 hPa 0,0 l/m 4,6 km/h (1 Bft) O 97 2,0 C 9,4 km/h (2 Bft) 100 %
13.01.2018 14:45 3,6 C 89 % 1025,4 hPa 0,0 l/m 4,8 km/h (1 Bft) N 5 2,0 C 12,6 km/h (3 Bft) 100 %
13.01.2018 14:46 3,6 C 89 % 1025,4 hPa 0,0 l/m 7,3 km/h (2 Bft) O 79 2,0 C 15,7 km/h (3 Bft) 100 %
13.01.2018 14:47 3,6 C 89 % 1025,4 hPa 0,0 l/m 0,6 km/h (0 Bft) O 82 2,0 C 3,1 km/h (1 Bft) 100 %
13.01.2018 14:48 3,5 C 89 % 1025,4 hPa 0,0 l/m 2,5 km/h (1 Bft) O-NO 68 1,9 C 6,3 km/h (2 Bft) 100 %
13.01.2018 14:49 3,6 C 89 % 1025,4 hPa 0,0 l/m 4,1 km/h (1 Bft) O-SO 122 2,0 C 6,3 km/h (2 Bft) 100 %
13.01.2018 14:50 3,6 C 89 % 1025,4 hPa 0,0 l/m 3,4 km/h (1 Bft) NO 51 2,0 C 9,4 km/h (2 Bft) 100 %
13.01.2018 14:51 3,5 C 89 % 1025,4 hPa 0,0 l/m 4,4 km/h (1 Bft) O 93 1,9 C 15,7 km/h (3 Bft) 100 %
13.01.2018 14:52 3,5 C 89 % 1025,4 hPa 0,0 l/m 0,7 km/h (0 Bft) O 79 1,9 C 6,3 km/h (2 Bft) 100 %
13.01.2018 14:53 3,5 C 89 % 1025,3 hPa 0,0 l/m 3,3 km/h (1 Bft) O 96 1,9 C 9,4 km/h (2 Bft) 100 %
13.01.2018 14:54 3,5 C 89 % 1025,3 hPa 0,0 l/m 0,1 km/h (0 Bft) O 96 1,9 C 3,1 km/h (1 Bft) 100 %
13.01.2018 14:55 3,5 C 89 % 1025,3 hPa 0,0 l/m 1,3 km/h (1 Bft) O-SO 123 1,9 C 6,3 km/h (2 Bft) 100 %
13.01.2018 14:56 3,5 C 89 % 1025,3 hPa 0,0 l/m 0,1 km/h (0 Bft) O-SO 123 1,9 C 3,1 km/h (1 Bft) 100 %
13.01.2018 14:57 3,5 C 89 % 1025,3 hPa 0,0 l/m 0,1 km/h (0 Bft) O-SO 114 1,9 C 3,1 km/h (1 Bft) 100 %
13.01.2018 14:58 3,5 C 89 % 1025,3 hPa 0,0 l/m 2,8 km/h (1 Bft) O-SO 103 1,9 C 6,3 km/h (2 Bft) 100 %
13.01.2018 14:59 3,5 C 89 % 1025,3 hPa 0,0 l/m 2,3 km/h (1 Bft) O 99 1,9 C 6,3 km/h (2 Bft) 100 %
13.01.2018 15:00 3,5 C 89 % 1025,3 hPa 0,0 l/m 1,0 km/h (0 Bft) O-NO 75 1,9 C 3,1 km/h (1 Bft) 100 %
13.01.2018 15:01 3,5 C 89 % 1025,3 hPa 0,0 l/m 0,2 km/h (0 Bft) O-NO 75 1,9 C 3,1 km/h (1 Bft) 100 %
13.01.2018 15:02 3,5 C 89 % 1025,3 hPa 0,0 l/m 0,0 km/h (0 Bft) O-NO 75 1,9 C 0,0 km/h (0 Bft) 100 %
13.01.2018 15:03 3,5 C 89 % 1025,3 hPa 0,0 l/m 0,0 km/h (0 Bft) O-SO 110 1,9 C 0,0 km/h (0 Bft) 100 %
13.01.2018 15:04 3,5 C 89 % 1025,3 hPa 0,0 l/m 1,2 km/h (1 Bft) O-NO 75 1,9 C 3,1 km/h (1 Bft) 100 %
13.01.2018 15:05 3,5 C 89 % 1025,2 hPa 0,0 l/m 4,5 km/h (1 Bft) O-NO 71 1,9 C 9,4 km/h (2 Bft) 100 %
13.01.2018 15:06 3,5 C 89 % 1025,3 hPa 0,0 l/m 1,2 km/h (1 Bft) O-NO 78 1,9 C 6,3 km/h (2 Bft) 100 %
13.01.2018 15:07 3,6 C 89 % 1025,3 hPa 0,0 l/m 0,3 km/h (0 Bft) O 101 2,0 C 3,1 km/h (1 Bft) 100 %
13.01.2018 15:08 3,5 C 89 % 1025,3 hPa 0,0 l/m 4,4 km/h (1 Bft) SO 139 1,9 C 9,4 km/h (2 Bft) 99 %
13.01.2018 15:09 3,5 C 89 % 1025,3 hPa 0,0 l/m 2,2 km/h (1 Bft) O-SO 117 1,9 C 9,4 km/h (2 Bft) 100 %
13.01.2018 15:10 3,5 C 89 % 1025,3 hPa 0,0 l/m 1,2 km/h (1 Bft) O-NO 69 1,9 C 3,1 km/h (1 Bft) 100 %
13.01.2018 15:11 3,5 C 89 % 1025,3 hPa 0,0 l/m 1,7 km/h (1 Bft) O-SO 110 1,9 C 6,3 km/h (2 Bft) 100 %
13.01.2018 15:12 3,5 C 89 % 1025,3 hPa 0,0 l/m 3,3 km/h (1 Bft) O-SO 102 1,9 C 9,4 km/h (2 Bft) 100 %
13.01.2018 15:13 3,5 C 89 % 1025,3 hPa 0,0 l/m 0,3 km/h (0 Bft) O-SO 103 1,9 C 3,1 km/h (1 Bft) 100 %
13.01.2018 15:14 3,5 C 89 % 1025,3 hPa 0,0 l/m 0,0 km/h (0 Bft) O 101 1,9 C 0,0 km/h (0 Bft) 96 %
13.01.2018 15:15 3,5 C 89 % 1025,3 hPa 0,0 l/m 0,0 km/h (0 Bft) NO 56 1,9 C 0,0 km/h (0 Bft) 100 %
13.01.2018 15:16 3,5 C 89 % 1025,3 hPa 0,0 l/m 0,8 km/h (0 Bft) O 101 1,9 C 3,1 km/h (1 Bft) 100 %
13.01.2018 15:17 3,5 C 88 % 1025,2 hPa 0,0 l/m 0,0 km/h (0 Bft) O 101 1,7 C 0,0 km/h (0 Bft) 100 %
13.01.2018 15:18 3,5 C 88 % 1025,2 hPa 0,0 l/m 2,1 km/h (1 Bft) NO 48 1,7 C 6,3 km/h (2 Bft) 100 %
13.01.2018 15:19 3,5 C 88 % 1025,2 hPa 0,0 l/m 6,0 km/h (2 Bft) O-NO 58 1,7 C 12,6 km/h (3 Bft) 100 %
13.01.2018 15:20 3,5 C 88 % 1025,2 hPa 0,0 l/m 3,5 km/h (1 Bft) O-NO 75 1,7 C 12,6 km/h (3 Bft) 96 %
13.01.2018 15:21 3,5 C 88 % 1025,2 hPa 0,0 l/m 3,5 km/h (1 Bft) O 101 1,7 C 12,6 km/h (3 Bft) 100 %
13.01.2018 15:22 3,5 C 88 % 1025,2 hPa 0,0 l/m 1,4 km/h (1 Bft) O-NO 73 1,7 C 6,3 km/h (2 Bft) 100 %
13.01.2018 15:23 3,5 C 88 % 1025,2 hPa 0,0 l/m 4,5 km/h (1 Bft) O 85 1,7 C 12,6 km/h (3 Bft) 100 %
13.01.2018 15:24 3,5 C 88 % 1025,3 hPa 0,0 l/m 0,4 km/h (0 Bft) O 101 1,7 C 3,1 km/h (1 Bft) 100 %
13.01.2018 15:25 3,5 C 88 % 1025,3 hPa 0,0 l/m 3,1 km/h (1 Bft) O-SO 113 1,7 C 9,4 km/h (2 Bft) 100 %
13.01.2018 15:26 3,5 C 88 % 1025,2 hPa 0,0 l/m 0,6 km/h (0 Bft) NO 50 1,7 C 3,1 km/h (1 Bft) 100 %
13.01.2018 15:27 3,5 C 88 % 1025,2 hPa 0,0 l/m 0,5 km/h (0 Bft) O-SO 107 1,7 C 3,1 km/h (1 Bft) 100 %
13.01.2018 15:28 3,5 C 88 % 1025,2 hPa 0,0 l/m 2,2 km/h (1 Bft) NO 48 1,7 C 6,3 km/h (2 Bft) 96 %
13.01.2018 15:29 3,5 C 88 % 1025,3 hPa 0,0 l/m 4,9 km/h (1 Bft) NO 54 1,7 C 9,4 km/h (2 Bft) 96 %
13.01.2018 15:30 3,5 C 88 % 1025,3 hPa 0,0 l/m 3,0 km/h (1 Bft) S-SO 155 1,7 C 9,4 km/h (2 Bft) 100 %
13.01.2018 15:31 3,5 C 88 % 1025,3 hPa 0,0 l/m 2,1 km/h (1 Bft) SO 127 1,7 C 9,4 km/h (2 Bft) 96 %
13.01.2018 15:32 3,5 C 88 % 1025,3 hPa 0,0 l/m 0,1 km/h (0 Bft) SW 219 1,7 C 3,1 km/h (1 Bft) 100 %
13.01.2018 15:33 3,5 C 88 % 1025,3 hPa 0,0 l/m 2,9 km/h (1 Bft) O 86 1,7 C 6,3 km/h (2 Bft) 96 %
13.01.2018 15:34 3,5 C 88 % 1025,3 hPa 0,0 l/m 1,0 km/h (0 Bft) O-NO 70 1,7 C 6,3 km/h (2 Bft) 100 %
13.01.2018 15:35 3,5 C 88 % 1025,3 hPa 0,0 l/m 2,7 km/h (1 Bft) O-SO 105 1,7 C 9,4 km/h (2 Bft) 96 %
13.01.2018 15:36 3,5 C 88 % 1025,3 hPa 0,0 l/m 2,2 km/h (1 Bft) O 101 1,7 C 9,4 km/h (2 Bft) 96 %
13.01.2018 15:37 3,5 C 88 % 1025,3 hPa 0,0 l/m 1,0 km/h (0 Bft) O-NO 68 1,7 C 3,1 km/h (1 Bft) 100 %
13.01.2018 15:38 3,5 C 88 % 1025,3 hPa 0,0 l/m 2,4 km/h (1 Bft) O 81 1,7 C 6,3 km/h (2 Bft) 96 %
13.01.2018 15:39 3,5 C 88 % 1025,2 hPa 0,0 l/m 1,6 km/h (1 Bft) O-NO 71 1,7 C 6,3 km/h (2 Bft) 100 %
13.01.2018 15:40 3,5 C 88 % 1025,2 hPa 0,0 l/m 0,7 km/h (0 Bft) O 91 1,7 C 3,1 km/h (1 Bft) 96 %
13.01.2018 15:41 3,4 C 88 % 1025,2 hPa 0,0 l/m 0,0 km/h (0 Bft) O 91 1,6 C 0,0 km/h (0 Bft) 100 %
13.01.2018 15:42 3,4 C 88 % 1025,2 hPa 0,0 l/m 2,8 km/h (1 Bft) SO 131 1,6 C 9,4 km/h (2 Bft) 96 %
13.01.2018 15:43 3,4 C 88 % 1025,2 hPa 0,0 l/m 0,1 km/h (0 Bft) S-SO 156 1,6 C 3,1 km/h (1 Bft) 96 %
13.01.2018 15:44 3,4 C 88 % 1025,2 hPa 0,0 l/m 1,2 km/h (1 Bft) O 99 1,6 C 3,1 km/h (1 Bft) 100 %
13.01.2018 15:45 3,4 C 89 % 1025,2 hPa 0,0 l/m 0,0 km/h (0 Bft) O 99 1,8 C 0,0 km/h (0 Bft) 96 %
13.01.2018 15:46 3,4 C 89 % 1025,2 hPa 0,0 l/m 0,3 km/h (0 Bft) O-NO 69 1,8 C 3,1 km/h (1 Bft) 100 %
13.01.2018 15:47 3,4 C 89 % 1025,2 hPa 0,0 l/m 0,0 km/h (0 Bft) O-NO 69 1,8 C 0,0 km/h (0 Bft) 96 %
13.01.2018 15:48 3,4 C 89 % 1025,2 hPa 0,0 l/m 0,0 km/h (0 Bft) O-NO 70 1,8 C 0,0 km/h (0 Bft) 100 %
13.01.2018 15:49 3,4 C 89 % 1025,1 hPa 0,0 l/m 0,0 km/h (0 Bft) O-NO 70 1,8 C 0,0 km/h (0 Bft) 96 %
13.01.2018 15:50 3,4 C 89 % 1025,1 hPa 0,0 l/m 0,0 km/h (0 Bft) O-NO 70 1,8 C 0,0 km/h (0 Bft) 100 %
13.01.2018 15:51 3,4 C 89 % 1025,1 hPa 0,0 l/m 0,0 km/h (0 Bft) O-NO 70 1,8 C 0,0 km/h (0 Bft) 96 %
13.01.2018 15:52 3,4 C 89 % 1025,1 hPa 0,0 l/m 0,1 km/h (0 Bft) O-NO 70 1,8 C 3,1 km/h (1 Bft) 100 %
13.01.2018 15:53 3,4 C 89 % 1025,1 hPa 0,0 l/m 1,4 km/h (1 Bft) O-SO 103 1,8 C 6,3 km/h (2 Bft) 96 %
13.01.2018 15:54 3,4 C 89 % 1025,1 hPa 0,0 l/m 0,1 km/h (0 Bft) O-SO 102 1,8 C 3,1 km/h (1 Bft) 96 %
13.01.2018 15:55 3,4 C 89 % 1025,1 hPa 0,0 l/m 0,1 km/h (0 Bft) O-SO 102 1,8 C 3,1 km/h (1 Bft) 100 %
13.01.2018 15:56 3,4 C 89 % 1025,1 hPa 0,0 l/m 0,0 km/h (0 Bft) O-SO 102 1,8 C 0,0 km/h (0 Bft) 96 %
13.01.2018 15:57 3,4 C 89 % 1025,1 hPa 0,0 l/m 0,1 km/h (0 Bft) O 100 1,8 C 3,1 km/h (1 Bft) 100 %
13.01.2018 15:58 3,4 C 89 % 1025,1 hPa 0,0 l/m 0,0 km/h (0 Bft) O 100 1,8 C 0,0 km/h (0 Bft) 96 %
13.01.2018 15:59 3,3 C 89 % 1025,0 hPa 0,0 l/m 0,0 km/h (0 Bft) O 98 1,7 C 0,0 km/h (0 Bft) 100 %
13.01.2018 16:00 3,3 C 89 % 1025,1 hPa 0,0 l/m 0,3 km/h (0 Bft) O 79 1,7 C 3,1 km/h (1 Bft) 96 %
13.01.2018 16:01 3,3 C 89 % 1025,0 hPa 0,0 l/m 0,8 km/h (0 Bft) O 89 1,7 C 3,1 km/h (1 Bft) 100 %
13.01.2018 16:02 3,3 C 89 % 1025,0 hPa 0,0 l/m 4,9 km/h (1 Bft) O 88 1,7 C 9,4 km/h (2 Bft) 100 %
13.01.2018 16:03 3,3 C 88 % 1025,0 hPa 0,0 l/m 2,6 km/h (1 Bft) O 98 1,5 C 6,3 km/h (2 Bft) 100 %
13.01.2018 16:04 3,3 C 88 % 1025,0 hPa 0,0 l/m 0,0 km/h (0 Bft) O 98 1,5 C 0,0 km/h (0 Bft) 100 %
13.01.2018 16:05 3,3 C 89 % 1025,0 hPa 0,0 l/m 2,1 km/h (1 Bft) O-NO 76 1,7 C 9,4 km/h (2 Bft) 100 %
13.01.2018 16:06 3,3 C 88 % 1025,0 hPa 0,0 l/m 0,3 km/h (0 Bft) O 82 1,5 C 3,1 km/h (1 Bft) 100 %
13.01.2018 16:07 3,3 C 88 % 1025,0 hPa 0,0 l/m 4,4 km/h (1 Bft) O 94 1,5 C 6,3 km/h (2 Bft) 100 %
13.01.2018 16:08 3,3 C 88 % 1025,1 hPa 0,0 l/m 0,0 km/h (0 Bft) O 94 1,5 C 0,0 km/h (0 Bft) 100 %
13.01.2018 16:09 3,3 C 89 % 1025,0 hPa 0,0 l/m 2,2 km/h (1 Bft) N 3 1,7 C 9,4 km/h (2 Bft) 100 %
13.01.2018 16:10 3,3 C 89 % 1025,0 hPa 0,0 l/m 0,0 km/h (0 Bft) N 3 1,7 C 0,0 km/h (0 Bft) 100 %
13.01.2018 16:11 3,3 C 89 % 1024,9 hPa 0,0 l/m 0,4 km/h (0 Bft) N 4 1,7 C 3,1 km/h (1 Bft) 100 %
13.01.2018 16:12 3,3 C 89 % 1024,9 hPa 0,0 l/m 0,3 km/h (0 Bft) N 4 1,7 C 3,1 km/h (1 Bft) 100 %
13.01.2018 16:13 3,3 C 89 % 1024,9 hPa 0,0 l/m 0,0 km/h (0 Bft) N-NO 23 1,7 C 0,0 km/h (0 Bft) 100 %
13.01.2018 16:14 3,3 C 89 % 1024,9 hPa 0,0 l/m 2,1 km/h (1 Bft) SO 141 1,7 C 6,3 km/h (2 Bft) 100 %
13.01.2018 16:15 3,3 C 89 % 1024,9 hPa 0,0 l/m 0,0 km/h (0 Bft) SO 141 1,7 C 0,0 km/h (0 Bft) 100 %
13.01.2018 16:16 3,3 C 88 % 1024,9 hPa 0,0 l/m 2,2 km/h (1 Bft) O-NO 67 1,5 C 6,3 km/h (2 Bft) 100 %
13.01.2018 16:17 3,3 C 88 % 1024,9 hPa 0,0 l/m 1,4 km/h (1 Bft) N-NO 25 1,5 C 6,3 km/h (2 Bft) 100 %
13.01.2018 16:18 3,3 C 88 % 1024,9 hPa 0,0 l/m 2,6 km/h (1 Bft) O-SO 106 1,5 C 6,3 km/h (2 Bft) 100 %
13.01.2018 16:19 3,3 C 88 % 1024,9 hPa 0,0 l/m 1,4 km/h (1 Bft) O-SO 103 1,5 C 6,3 km/h (2 Bft) 100 %
13.01.2018 16:20 3,3 C 88 % 1024,9 hPa 0,0 l/m 0,7 km/h (0 Bft) O 82 1,5 C 6,3 km/h (2 Bft) 100 %
13.01.2018 16:21 3,2 C 88 % 1024,9 hPa 0,0 l/m 4,3 km/h (1 Bft) O-NO 78 1,4 C 12,6 km/h (3 Bft) 100 %
13.01.2018 16:22 3,2 C 88 % 1024,9 hPa 0,0 l/m 3,3 km/h (1 Bft) O-SO 121 1,4 C 12,6 km/h (3 Bft) 100 %
13.01.2018 16:23 3,2 C 88 % 1025,0 hPa 0,0 l/m 0,8 km/h (0 Bft) O-SO 109 1,4 C 3,1 km/h (1 Bft) 100 %
13.01.2018 16:24 3,2 C 88 % 1025,0 hPa 0,0 l/m 2,0 km/h (1 Bft) O 98 1,4 C 9,4 km/h (2 Bft) 100 %
13.01.2018 16:25 3,2 C 88 % 1024,9 hPa 0,0 l/m 0,6 km/h (0 Bft) O 86 1,4 C 3,1 km/h (1 Bft) 100 %
13.01.2018 16:26 3,2 C 88 % 1025,0 hPa 0,0 l/m 0,4 km/h (0 Bft) O-NO 75 1,4 C 3,1 km/h (1 Bft) 100 %
13.01.2018 16:27 3,2 C 88 % 1025,0 hPa 0,0 l/m 0,8 km/h (0 Bft) O 101 1,4 C 3,1 km/h (1 Bft) 100 %
13.01.2018 16:28 3,2 C 88 % 1025,0 hPa 0,0 l/m 5,1 km/h (1 Bft) O 91 1,4 C 15,7 km/h (3 Bft) 100 %
13.01.2018 16:29 3,2 C 87 % 1025,0 hPa 0,0 l/m 0,8 km/h (0 Bft) NO 41 1,2 C 6,3 km/h (2 Bft) 100 %
13.01.2018 16:30 3,2 C 87 % 1025,0 hPa 0,0 l/m 2,7 km/h (1 Bft) O-NO 71 1,2 C 6,3 km/h (2 Bft) 100 %
13.01.2018 16:31 3,2 C 87 % 1025,0 hPa 0,0 l/m 2,7 km/h (1 Bft) O-SO 110 1,2 C 9,4 km/h (2 Bft) 100 %
13.01.2018 16:32 3,2 C 87 % 1025,0 hPa 0,0 l/m 0,3 km/h (0 Bft) SO 141 1,2 C 3,1 km/h (1 Bft) 100 %
13.01.2018 16:33 3,3 C 87 % 1025,0 hPa 0,0 l/m 1,6 km/h (1 Bft) O 82 1,3 C 6,3 km/h (2 Bft) 100 %
13.01.2018 16:34 3,2 C 87 % 1025,0 hPa 0,0 l/m 2,2 km/h (1 Bft) O-NO 68 1,2 C 6,3 km/h (2 Bft) 100 %
13.01.2018 16:35 3,2 C 87 % 1025,0 hPa 0,0 l/m 2,4 km/h (1 Bft) NO 42 1,2 C 9,4 km/h (2 Bft) 100 %
13.01.2018 16:36 3,3 C 87 % 1025,0 hPa 0,0 l/m 1,0 km/h (0 Bft) SO 146 1,3 C 3,1 km/h (1 Bft) 100 %
13.01.2018 16:37 3,2 C 87 % 1025,0 hPa 0,0 l/m 4,6 km/h (1 Bft) NO 56 1,2 C 12,6 km/h (3 Bft) 100 %
13.01.2018 16:38 3,2 C 87 % 1025,0 hPa 0,0 l/m 1,8 km/h (1 Bft) NO 48 1,2 C 9,4 km/h (2 Bft) 100 %
13.01.2018 16:39 3,2 C 87 % 1025,0 hPa 0,0 l/m 1,6 km/h (1 Bft) O-SO 115 1,2 C 12,6 km/h (3 Bft) 100 %
13.01.2018 16:40 3,2 C 87 % 1025,0 hPa 0,0 l/m 0,1 km/h (0 Bft) O-SO 115 1,2 C 3,1 km/h (1 Bft) 100 %
13.01.2018 16:41 3,2 C 87 % 1025,0 hPa 0,0 l/m 0,4 km/h (0 Bft) O-SO 123 1,2 C 3,1 km/h (1 Bft) 100 %
13.01.2018 16:42 3,2 C 87 % 1025,0 hPa 0,0 l/m 0,0 km/h (0 Bft) SO 124 1,2 C 0,0 km/h (0 Bft) 100 %
13.01.2018 16:43 3,2 C 87 % 1025,0 hPa 0,0 l/m 0,1 km/h (0 Bft) O 79 1,2 C 3,1 km/h (1 Bft) 100 %
13.01.2018 16:44 3,2 C 87 % 1025,0 hPa 0,0 l/m 4,6 km/h (1 Bft) O-SO 110 1,2 C 9,4 km/h (2 Bft) 100 %
13.01.2018 16:45 3,2 C 87 % 1025,0 hPa 0,0 l/m 3,0 km/h (1 Bft) O 99 1,2 C 9,4 km/h (2 Bft) 100 %
13.01.2018 16:46 3,2 C 87 % 1025,0 hPa 0,0 l/m 0,6 km/h (0 Bft) O-SO 106 1,2 C 6,3 km/h (2 Bft) 100 %
13.01.2018 16:47 3,2 C 87 % 1025,0 hPa 0,0 l/m 0,3 km/h (0 Bft) W 259 1,2 C 3,1 km/h (1 Bft) 100 %
13.01.2018 16:48 3,2 C 87 % 1025,0 hPa 0,0 l/m 3,8 km/h (1 Bft) O 84 1,2 C 12,6 km/h (3 Bft) 100 %
13.01.2018 16:49 3,2 C 87 % 1024,9 hPa 0,0 l/m 0,7 km/h (0 Bft) O-NO 66 1,2 C 3,1 km/h (1 Bft) 100 %
13.01.2018 16:50 3,2 C 87 % 1024,9 hPa 0,0 l/m 0,0 km/h (0 Bft) O-NO 75 1,2 C 0,0 km/h (0 Bft) 100 %
13.01.2018 16:51 3,2 C 87 % 1025,0 hPa 0,0 l/m 1,3 km/h (1 Bft) O-NO 60 1,2 C 3,1 km/h (1 Bft) 100 %
13.01.2018 16:52 3,2 C 87 % 1025,1 hPa 0,0 l/m 2,7 km/h (1 Bft) O 87 1,2 C 12,6 km/h (3 Bft) 100 %
13.01.2018 16:53 3,2 C 87 % 1025,1 hPa 0,0 l/m 4,1 km/h (1 Bft) SO 141 1,2 C 12,6 km/h (3 Bft) 100 %
13.01.2018 16:54 3,2 C 87 % 1025,0 hPa 0,0 l/m 2,8 km/h (1 Bft) SO 145 1,2 C 9,4 km/h (2 Bft) 100 %
13.01.2018 16:55 3,2 C 87 % 1025,0 hPa 0,0 l/m 0,8 km/h (0 Bft) O-SO 108 1,2 C 3,1 km/h (1 Bft) 100 %
13.01.2018 16:56 3,2 C 87 % 1025,1 hPa 0,0 l/m 3,4 km/h (1 Bft) O-SO 119 1,2 C 15,7 km/h (3 Bft) 100 %
13.01.2018 16:57 3,2 C 86 % 1025,1 hPa 0,0 l/m 2,3 km/h (1 Bft) N-NO 33 1,1 C 12,6 km/h (3 Bft) 100 %
13.01.2018 16:58 3,2 C 86 % 1025,0 hPa 0,0 l/m 13,5 km/h (3 Bft) NO 56 1,1 C 22,0 km/h (4 Bft) 100 %
13.01.2018 16:59 3,2 C 86 % 1025,1 hPa 0,0 l/m 3,5 km/h (1 Bft) O 94 1,1 C 12,6 km/h (3 Bft) 100 %
13.01.2018 17:00 3,2 C 86 % 1025,1 hPa 0,0 l/m 6,0 km/h (2 Bft) O-NO 72 1,1 C 18,8 km/h (3 Bft) 100 %
13.01.2018 17:01 3,2 C 85 % 1025,1 hPa 0,0 l/m 6,3 km/h (2 Bft) O 93 0,9 C 12,6 km/h (3 Bft) 100 %
13.01.2018 17:02 3,2 C 85 % 1025,1 hPa 0,0 l/m 3,3 km/h (1 Bft) O 82 0,9 C 9,4 km/h (2 Bft) 100 %
13.01.2018 17:03 3,2 C 85 % 1025,1 hPa 0,0 l/m 6,1 km/h (2 Bft) O-SO 110 0,9 C 12,6 km/h (3 Bft) 100 %
13.01.2018 17:04 3,2 C 85 % 1025,0 hPa 0,0 l/m 1,7 km/h (1 Bft) O-NO 74 0,9 C 12,6 km/h (3 Bft) 100 %
13.01.2018 17:05 3,2 C 85 % 1025,0 hPa 0,0 l/m 13,2 km/h (3 Bft) O-SO 103 0,9 C 25,1 km/h (4 Bft) 100 %
13.01.2018 17:06 3,2 C 85 % 1025,0 hPa 0,0 l/m 4,0 km/h (1 Bft) NO 52 0,9 C 9,4 km/h (2 Bft) 100 %
13.01.2018 17:07 3,2 C 85 % 1025,0 hPa 0,0 l/m 3,7 km/h (1 Bft) O-NO 60 0,9 C 9,4 km/h (2 Bft) 100 %
13.01.2018 17:08 3,2 C 85 % 1025,0 hPa 0,0 l/m 4,4 km/h (1 Bft) O-SO 123 0,9 C 12,6 km/h (3 Bft) 100 %
13.01.2018 17:09 3,2 C 85 % 1025,0 hPa 0,0 l/m 5,4 km/h (1 Bft) W 262 0,9 C 12,6 km/h (3 Bft) 100 %
13.01.2018 17:10 3,2 C 85 % 1024,9 hPa 0,0 l/m 5,4 km/h (1 Bft) O 79 0,9 C 9,4 km/h (2 Bft) 100 %
13.01.2018 17:11 3,2 C 85 % 1024,9 hPa 0,0 l/m 2,4 km/h (1 Bft) O 98 0,9 C 9,4 km/h (2 Bft) 99 %
13.01.2018 17:12 3,2 C 85 % 1024,9 hPa 0,0 l/m 7,0 km/h (2 Bft) O 85 0,9 C 18,8 km/h (3 Bft) 100 %
13.01.2018 17:13 3,2 C 85 % 1024,9 hPa 0,0 l/m 0,2 km/h (0 Bft) W-SW 244 0,9 C 3,1 km/h (1 Bft) 100 %
13.01.2018 17:14 3,1 C 85 % 1024,9 hPa 0,0 l/m 0,5 km/h (0 Bft) S-SO 165 0,8 C 3,1 km/h (1 Bft) 100 %
13.01.2018 17:15 3,1 C 85 % 1024,9 hPa 0,0 l/m 1,0 km/h (0 Bft) O 94 0,8 C 3,1 km/h (1 Bft) 100 %
13.01.2018 17:16 3,1 C 85 % 1025,0 hPa 0,0 l/m 4,4 km/h (1 Bft) SO 136 0,8 C 9,4 km/h (2 Bft) 100 %
13.01.2018 17:17 3,1 C 85 % 1025,0 hPa 0,0 l/m 7,9 km/h (2 Bft) O-NO 67 0,8 C 15,7 km/h (3 Bft) 100 %
13.01.2018 17:18 3,1 C 85 % 1024,9 hPa 0,0 l/m 2,4 km/h (1 Bft) O 79 0,8 C 6,3 km/h (2 Bft) 100 %
13.01.2018 17:19 3,1 C 86 % 1024,9 hPa 0,0 l/m 0,9 km/h (0 Bft) O-SO 106 1,0 C 3,1 km/h (1 Bft) 100 %
13.01.2018 17:20 3,1 C 86 % 1024,9 hPa 0,0 l/m 0,1 km/h (0 Bft) O-SO 106 1,0 C 3,1 km/h (1 Bft) 100 %
13.01.2018 17:21 3,1 C 86 % 1024,9 hPa 0,0 l/m 3,3 km/h (1 Bft) O-NO 71 1,0 C 6,3 km/h (2 Bft) 100 %
13.01.2018 17:22 3,1 C 86 % 1024,9 hPa 0,0 l/m 0,7 km/h (0 Bft) O-NO 72 1,0 C 3,1 km/h (1 Bft) 100 %
13.01.2018 17:23 3,1 C 86 % 1024,9 hPa 0,0 l/m 2,0 km/h (1 Bft) O-SO 105 1,0 C 6,3 km/h (2 Bft) 100 %
13.01.2018 17:24 3,1 C 86 % 1024,8 hPa 0,0 l/m 2,5 km/h (1 Bft) O-SO 108 1,0 C 9,4 km/h (2 Bft) 100 %
13.01.2018 17:25 3,1 C 86 % 1024,9 hPa 0,0 l/m 5,6 km/h (1 Bft) O-SO 105 1,0 C 12,6 km/h (3 Bft) 100 %
13.01.2018 17:26 3,1 C 86 % 1024,8 hPa 0,0 l/m 3,0 km/h (1 Bft) O-SO 113 1,0 C 6,3 km/h (2 Bft) 100 %
13.01.2018 17:27 3,1 C 86 % 1024,9 hPa 0,0 l/m 2,2 km/h (1 Bft) O-SO 113 1,0 C 6,3 km/h (2 Bft) 100 %
13.01.2018 17:28 3,1 C 86 % 1024,9 hPa 0,0 l/m 1,7 km/h (1 Bft) SO 127 1,0 C 6,3 km/h (2 Bft) 100 %
13.01.2018 17:29 3,1 C 86 % 1024,9 hPa 0,0 l/m 1,6 km/h (1 Bft) SO 140 1,0 C 6,3 km/h (2 Bft) 100 %
13.01.2018 17:30 3,1 C 86 % 1024,9 hPa 0,0 l/m 0,0 km/h (0 Bft) SO 140 1,0 C 0,0 km/h (0 Bft) 100 %
13.01.2018 17:31 3,1 C 86 % 1024,9 hPa 0,0 l/m 2,4 km/h (1 Bft) O 94 1,0 C 12,6 km/h (3 Bft) 100 %
13.01.2018 17:32 3,1 C 86 % 1024,9 hPa 0,0 l/m 4,9 km/h (1 Bft) O 91 1,0 C 15,7 km/h (3 Bft) 100 %
13.01.2018 17:33 3,1 C 86 % 1024,9 hPa 0,0 l/m 0,0 km/h (0 Bft) O 91 1,0 C 0,0 km/h (0 Bft) 100 %
13.01.2018 17:34 3,1 C 86 % 1024,9 hPa 0,0 l/m 0,6 km/h (0 Bft) O-NO 64 1,0 C 3,1 km/h (1 Bft) 100 %
13.01.2018 17:35 3,1 C 86 % 1024,9 hPa 0,0 l/m 0,4 km/h (0 Bft) SO 142 1,0 C 3,1 km/h (1 Bft) 100 %
13.01.2018 17:36 3,1 C 86 % 1024,9 hPa 0,0 l/m 2,5 km/h (1 Bft) O 98 1,0 C 15,7 km/h (3 Bft) 100 %
13.01.2018 17:37 3,1 C 86 % 1024,9 hPa 0,0 l/m 5,0 km/h (1 Bft) O-NO 74 1,0 C 15,7 km/h (3 Bft) 100 %
13.01.2018 17:38 3,1 C 86 % 1024,9 hPa 0,0 l/m 2,7 km/h (1 Bft) SO 142 1,0 C 9,4 km/h (2 Bft) 100 %
13.01.2018 17:39 3,1 C 86 % 1024,8 hPa 0,0 l/m 10,0 km/h (2 Bft) O 86 1,0 C 28,2 km/h (4 Bft) 100 %
13.01.2018 17:40 3,1 C 86 % 1024,8 hPa 0,0 l/m 3,0 km/h (1 Bft) O 101 1,0 C 9,4 km/h (2 Bft) 100 %
13.01.2018 17:41 3,1 C 86 % 1024,9 hPa 0,0 l/m 2,1 km/h (1 Bft) NW 310 1,0 C 9,4 km/h (2 Bft) 100 %
13.01.2018 17:42 3,1 C 86 % 1024,9 hPa 0,0 l/m 5,3 km/h (1 Bft) NO 36 1,0 C 15,7 km/h (3 Bft) 100 %
13.01.2018 17:43 3,0 C 86 % 1024,8 hPa 0,0 l/m 2,6 km/h (1 Bft) O-NO 73 0,9 C 12,6 km/h (3 Bft) 100 %
13.01.2018 17:44 3,0 C 86 % 1024,8 hPa 0,0 l/m 4,4 km/h (1 Bft) O-NO 78 0,9 C 9,4 km/h (2 Bft) 100 %
13.01.2018 17:45 3,0 C 86 % 1024,8 hPa 0,0 l/m 0,0 km/h (0 Bft) O 89 0,9 C 0,0 km/h (0 Bft) 100 %
13.01.2018 17:46 2,9 C 86 % 1024,8 hPa 0,0 l/m 5,1 km/h (1 Bft) O-SO 111 0,8 C 18,8 km/h (3 Bft) 100 %
13.01.2018 17:47 2,9 C 86 % 1024,9 hPa 0,0 l/m 7,4 km/h (2 Bft) SO 128 0,8 C 15,7 km/h (3 Bft) 100 %
13.01.2018 17:48 2,9 C 86 % 1024,9 hPa 0,0 l/m 2,4 km/h (1 Bft) O 96 0,8 C 6,3 km/h (2 Bft) 100 %
13.01.2018 17:49 2,9 C 86 % 1024,8 hPa 0,0 l/m 1,3 km/h (1 Bft) O 100 0,8 C 3,1 km/h (1 Bft) 100 %
13.01.2018 17:50 2,9 C 86 % 1024,9 hPa 0,0 l/m 0,8 km/h (0 Bft) O 96 0,8 C 3,1 km/h (1 Bft) 100 %
13.01.2018 17:51 2,9 C 86 % 1024,9 hPa 0,0 l/m 5,5 km/h (1 Bft) O-NO 72 0,8 C 15,7 km/h (3 Bft) 100 %
13.01.2018 17:52 2,9 C 86 % 1024,9 hPa 0,0 l/m 1,0 km/h (0 Bft) O-NO 60 0,8 C 6,3 km/h (2 Bft) 100 %
13.01.2018 17:53 2,9 C 86 % 1024,9 hPa 0,0 l/m 6,2 km/h (2 Bft) NO 56 0,8 C 15,7 km/h (3 Bft) 100 %
13.01.2018 17:54 2,9 C 85 % 1024,9 hPa 0,0 l/m 8,9 km/h (2 Bft) O-NO 59 0,6 C 15,7 km/h (3 Bft) 100 %
13.01.2018 17:55 2,9 C 85 % 1024,9 hPa 0,0 l/m 5,8 km/h (2 Bft) O-SO 111 0,6 C 18,8 km/h (3 Bft) 100 %
13.01.2018 17:56 2,9 C 85 % 1024,9 hPa 0,0 l/m 4,5 km/h (1 Bft) O-NO 57 0,6 C 15,7 km/h (3 Bft) 100 %
13.01.2018 17:57 2,9 C 85 % 1024,8 hPa 0,0 l/m 5,8 km/h (2 Bft) O 82 0,6 C 18,8 km/h (3 Bft) 100 %
13.01.2018 17:58 2,9 C 85 % 1024,8 hPa 0,0 l/m 6,8 km/h (2 Bft) O 98 0,6 C 12,6 km/h (3 Bft) 100 %
13.01.2018 17:59 2,9 C 85 % 1024,8 hPa 0,0 l/m 3,3 km/h (1 Bft) O 95 0,6 C 15,7 km/h (3 Bft) 100 %
13.01.2018 18:00 2,9 C 85 % 1024,8 hPa 0,0 l/m 3,1 km/h (1 Bft) O-SO 120 0,6 C 9,4 km/h (2 Bft) 100 %
13.01.2018 18:01 2,9 C 85 % 1024,8 hPa 0,0 l/m 6,3 km/h (2 Bft) O-SO 104 0,6 C 12,6 km/h (3 Bft) 100 %
13.01.2018 18:02 2,9 C 85 % 1024,8 hPa 0,0 l/m 2,9 km/h (1 Bft) N-NW 339 0,6 C 6,3 km/h (2 Bft) 100 %
13.01.2018 18:03 2,9 C 85 % 1024,8 hPa 0,0 l/m 5,4 km/h (1 Bft) O-SO 112 0,6 C 15,7 km/h (3 Bft) 100 %
13.01.2018 18:04 2,9 C 85 % 1024,8 hPa 0,0 l/m 0,1 km/h (0 Bft) O-SO 114 0,6 C 3,1 km/h (1 Bft) 100 %
13.01.2018 18:05 2,9 C 85 % 1024,7 hPa 0,0 l/m 2,4 km/h (1 Bft) NO 35 0,6 C 9,4 km/h (2 Bft) 100 %
13.01.2018 18:06 2,9 C 85 % 1024,7 hPa 0,0 l/m 7,9 km/h (2 Bft) O-NO 61 0,6 C 22,0 km/h (4 Bft) 100 %
13.01.2018 18:07 2,9 C 84 % 1024,8 hPa 0,0 l/m 5,9 km/h (2 Bft) O 79 0,5 C 9,4 km/h (2 Bft) 100 %
13.01.2018 18:08 2,9 C 84 % 1024,8 hPa 0,0 l/m 3,8 km/h (1 Bft) O-NO 63 0,5 C 9,4 km/h (2 Bft) 100 %
13.01.2018 18:09 2,9 C 84 % 1024,8 hPa 0,0 l/m 2,7 km/h (1 Bft) NO 56 0,5 C 6,3 km/h (2 Bft) 100 %
13.01.2018 18:10 2,9 C 84 % 1024,8 hPa 0,0 l/m 6,3 km/h (2 Bft) O-SO 108 0,5 C 18,8 km/h (3 Bft) 100 %
13.01.2018 18:11 2,9 C 84 % 1024,9 hPa 0,0 l/m 8,2 km/h (2 Bft) O 94 0,5 C 18,8 km/h (3 Bft) 100 %
13.01.2018 18:12 2,8 C 84 % 1024,9 hPa 0,0 l/m 2,0 km/h (1 Bft) O-SO 108 0,4 C 12,6 km/h (3 Bft) 100 %
13.01.2018 18:13 2,9 C 84 % 1024,9 hPa 0,0 l/m 2,3 km/h (1 Bft) S-SW 195 0,5 C 12,6 km/h (3 Bft) 100 %
13.01.2018 18:14 2,9 C 84 % 1024,9 hPa 0,0 l/m 2,7 km/h (1 Bft) O 91 0,5 C 9,4 km/h (2 Bft) 100 %
13.01.2018 18:15 2,9 C 84 % 1024,9 hPa 0,0 l/m 1,2 km/h (1 Bft) N 8 0,5 C 3,1 km/h (1 Bft) 100 %
13.01.2018 18:16 2,9 C 84 % 1025,0 hPa 0,0 l/m 7,7 km/h (2 Bft) O 87 0,5 C 15,7 km/h (3 Bft) 100 %
13.01.2018 18:17 2,9 C 84 % 1024,9 hPa 0,0 l/m 1,0 km/h (0 Bft) SW 224 0,5 C 6,3 km/h (2 Bft) 100 %
13.01.2018 18:18 2,8 C 84 % 1024,9 hPa 0,0 l/m 4,6 km/h (1 Bft) O 92 0,4 C 12,6 km/h (3 Bft) 100 %
13.01.2018 18:19 2,8 C 84 % 1024,9 hPa 0,0 l/m 2,1 km/h (1 Bft) O 88 0,4 C 6,3 km/h (2 Bft) 100 %
13.01.2018 18:20 2,8 C 84 % 1024,9 hPa 0,0 l/m 4,4 km/h (1 Bft) O 91 0,4 C 15,7 km/h (3 Bft) 100 %
13.01.2018 18:21 2,8 C 83 % 1024,9 hPa 0,0 l/m 2,4 km/h (1 Bft) S-SO 150 0,2 C 12,6 km/h (3 Bft) 100 %
13.01.2018 18:22 2,8 C 83 % 1024,9 hPa 0,0 l/m 5,5 km/h (1 Bft) SW 218 0,2 C 15,7 km/h (3 Bft) 100 %
13.01.2018 18:23 2,8 C 83 % 1024,9 hPa 0,0 l/m 0,9 km/h (0 Bft) SO 129 0,2 C 3,1 km/h (1 Bft) 100 %
13.01.2018 18:24 2,8 C 84 % 1025,0 hPa 0,0 l/m 0,7 km/h (0 Bft) O 94 0,4 C 6,3 km/h (2 Bft) 100 %
13.01.2018 18:25 2,8 C 84 % 1024,9 hPa 0,0 l/m 0,3 km/h (0 Bft) O-NO 72 0,4 C 3,1 km/h (1 Bft) 100 %
13.01.2018 18:26 2,8 C 83 % 1024,9 hPa 0,0 l/m 1,2 km/h (1 Bft) O-SO 103 0,2 C 6,3 km/h (2 Bft) 100 %
13.01.2018 18:27 2,8 C 83 % 1024,9 hPa 0,0 l/m 0,7 km/h (0 Bft) O 93 0,2 C 3,1 km/h (1 Bft) 100 %
13.01.2018 18:28 2,8 C 84 % 1024,9 hPa 0,0 l/m 4,7 km/h (1 Bft) O 82 0,4 C 9,4 km/h (2 Bft) 100 %
13.01.2018 18:29 2,8 C 83 % 1024,9 hPa 0,0 l/m 2,6 km/h (1 Bft) O-SO 113 0,2 C 6,3 km/h (2 Bft) 100 %
13.01.2018 18:30 2,8 C 83 % 1024,9 hPa 0,0 l/m 1,3 km/h (1 Bft) O 84 0,2 C 6,3 km/h (2 Bft) 100 %
13.01.2018 18:31 2,8 C 84 % 1024,8 hPa 0,0 l/m 2,5 km/h (1 Bft) O 84 0,4 C 6,3 km/h (2 Bft) 100 %
13.01.2018 18:32 2,8 C 84 % 1024,8 hPa 0,0 l/m 1,6 km/h (1 Bft) O-NO 69 0,4 C 3,1 km/h (1 Bft) 100 %
13.01.2018 18:33 2,8 C 84 % 1024,8 hPa 0,0 l/m 0,1 km/h (0 Bft) O-NO 68 0,4 C 3,1 km/h (1 Bft) 100 %
13.01.2018 18:34 2,8 C 84 % 1024,9 hPa 0,0 l/m 0,0 km/h (0 Bft) O-NO 68 0,4 C 0,0 km/h (0 Bft) 100 %
13.01.2018 18:35 2,8 C 84 % 1024,9 hPa 0,0 l/m 0,6 km/h (0 Bft) O 87 0,4 C 3,1 km/h (1 Bft) 100 %
13.01.2018 18:36 2,8 C 84 % 1024,8 hPa 0,0 l/m 0,0 km/h (0 Bft) O 87 0,4 C 0,0 km/h (0 Bft) 100 %
13.01.2018 18:37 2,8 C 85 % 1024,8 hPa 0,0 l/m 0,1 km/h (0 Bft) O 87 0,5 C 3,1 km/h (1 Bft) 100 %
13.01.2018 18:38 2,8 C 85 % 1024,8 hPa 0,0 l/m 2,5 km/h (1 Bft) O-SO 111 0,5 C 6,3 km/h (2 Bft) 100 %
13.01.2018 18:39 2,8 C 85 % 1024,8 hPa 0,0 l/m 2,2 km/h (1 Bft) O-SO 103 0,5 C 6,3 km/h (2 Bft) 100 %
13.01.2018 18:40 2,8 C 85 % 1024,8 hPa 0,0 l/m 0,4 km/h (0 Bft) O-SO 110 0,5 C 3,1 km/h (1 Bft) 100 %
13.01.2018 18:41 2,8 C 85 % 1024,8 hPa 0,0 l/m 0,6 km/h (0 Bft) O 90 0,5 C 3,1 km/h (1 Bft) 100 %
13.01.2018 18:42 2,8 C 86 % 1024,8 hPa 0,0 l/m 0,0 km/h (0 Bft) O 90 0,7 C 0,0 km/h (0 Bft) 100 %
13.01.2018 18:43 2,8 C 86 % 1024,8 hPa 0,0 l/m 5,5 km/h (1 Bft) O-NO 66 0,7 C 15,7 km/h (3 Bft) 100 %
13.01.2018 18:44 2,8 C 86 % 1024,8 hPa 0,0 l/m 5,7 km/h (1 Bft) O-SO 108 0,7 C 15,7 km/h (3 Bft) 100 %
13.01.2018 18:45 2,8 C 86 % 1024,8 hPa 0,0 l/m 0,9 km/h (0 Bft) NO 39 0,7 C 3,1 km/h (1 Bft) 100 %
13.01.2018 18:46 2,8 C 86 % 1024,8 hPa 0,0 l/m 3,0 km/h (1 Bft) S 171 0,7 C 6,3 km/h (2 Bft) 100 %
13.01.2018 18:47 2,7 C 87 % 1024,8 hPa 0,0 l/m 1,9 km/h (1 Bft) SO 138 0,8 C 3,1 km/h (1 Bft) 100 %
13.01.2018 18:48 2,8 C 87 % 1024,8 hPa 0,0 l/m 0,0 km/h (0 Bft) SO 137 0,9 C 0,0 km/h (0 Bft) 100 %
13.01.2018 18:49 2,7 C 87 % 1024,8 hPa 0,0 l/m 1,5 km/h (1 Bft) O-NO 78 0,8 C 3,1 km/h (1 Bft) 100 %
13.01.2018 18:50 2,7 C 87 % 1024,8 hPa 0,0 l/m 0,6 km/h (0 Bft) O-SO 102 0,8 C 3,1 km/h (1 Bft) 100 %
13.01.2018 18:51 2,7 C 87 % 1024,8 hPa 0,0 l/m 1,5 km/h (1 Bft) SO 135 0,8 C 6,3 km/h (2 Bft) 100 %
13.01.2018 18:52 2,7 C 87 % 1024,8 hPa 0,0 l/m 1,2 km/h (1 Bft) SO 139 0,8 C 6,3 km/h (2 Bft) 100 %
13.01.2018 18:53 2,7 C 87 % 1024,8 hPa 0,0 l/m 0,1 km/h (0 Bft) O-SO 117 0,8 C 3,1 km/h (1 Bft) 100 %
13.01.2018 18:54 2,7 C 87 % 1024,8 hPa 0,0 l/m 1,0 km/h (0 Bft) O 86 0,8 C 3,1 km/h (1 Bft) 100 %
13.01.2018 18:55 2,7 C 87 % 1024,8 hPa 0,0 l/m 2,5 km/h (1 Bft) O-SO 114 0,8 C 6,3 km/h (2 Bft) 100 %
13.01.2018 18:56 2,7 C 87 % 1024,8 hPa 0,0 l/m 2,1 km/h (1 Bft) O-SO 110 0,8 C 6,3 km/h (2 Bft) 100 %
13.01.2018 18:57 2,7 C 88 % 1024,8 hPa 0,0 l/m 0,7 km/h (0 Bft) O-SO 103 0,9 C 6,3 km/h (2 Bft) 100 %
13.01.2018 18:58 2,7 C 88 % 1024,8 hPa 0,0 l/m 1,3 km/h (1 Bft) SO 135 0,9 C 3,1 km/h (1 Bft) 100 %
13.01.2018 18:59 2,6 C 88 % 1024,8 hPa 0,0 l/m 2,7 km/h (1 Bft) O-SO 105 0,8 C 9,4 km/h (2 Bft) 100 %
13.01.2018 19:00 2,6 C 88 % 1024,8 hPa 0,0 l/m 3,6 km/h (1 Bft) O-NO 74 0,8 C 6,3 km/h (2 Bft) 100 %
13.01.2018 19:01 2,7 C 88 % 1024,8 hPa 0,0 l/m 1,7 km/h (1 Bft) O 90 0,9 C 6,3 km/h (2 Bft) 96 %
13.01.2018 19:02 2,6 C 88 % 1024,8 hPa 0,0 l/m 0,9 km/h (0 Bft) O-SO 111 0,8 C 6,3 km/h (2 Bft) 100 %
13.01.2018 19:03 2,6 C 88 % 1024,8 hPa 0,0 l/m 0,0 km/h (0 Bft) O-SO 111 0,8 C 0,0 km/h (0 Bft) 100 %
13.01.2018 19:04 2,6 C 88 % 1024,8 hPa 0,0 l/m 0,0 km/h (0 Bft) O-SO 111 0,8 C 0,0 km/h (0 Bft) 100 %
13.01.2018 19:05 2,6 C 88 % 1024,8 hPa 0,0 l/m 1,4 km/h (1 Bft) NO 53 0,8 C 3,1 km/h (1 Bft) 92 %
13.01.2018 19:06 2,6 C 88 % 1024,8 hPa 0,0 l/m 0,0 km/h (0 Bft) O-NO 60 0,8 C 0,0 km/h (0 Bft) 100 %
13.01.2018 19:07 2,6 C 88 % 1024,7 hPa 0,0 l/m 4,4 km/h (1 Bft) O-NO 62 0,8 C 12,6 km/h (3 Bft) 100 %
13.01.2018 19:08 2,6 C 88 % 1024,7 hPa 0,0 l/m 0,4 km/h (0 Bft) NO 51 0,8 C 3,1 km/h (1 Bft) 100 %
13.01.2018 19:09 2,6 C 88 % 1024,7 hPa 0,0 l/m 0,0 km/h (0 Bft) O-NO 60 0,8 C 0,0 km/h (0 Bft) 100 %
13.01.2018 19:10 2,6 C 88 % 1024,7 hPa 0,0 l/m 0,9 km/h (0 Bft) O 95 0,8 C 3,1 km/h (1 Bft) 96 %
13.01.2018 19:11 2,6 C 88 % 1024,7 hPa 0,0 l/m 0,0 km/h (0 Bft) O 95 0,8 C 0,0 km/h (0 Bft) 100 %
13.01.2018 19:12 2,6 C 88 % 1024,7 hPa 0,0 l/m 0,0 km/h (0 Bft) O 95 0,8 C 0,0 km/h (0 Bft) 100 %
13.01.2018 19:13 2,6 C 88 % 1024,7 hPa 0,0 l/m 0,1 km/h (0 Bft) O 95 0,8 C 3,1 km/h (1 Bft) 100 %
13.01.2018 19:14 2,6 C 89 % 1024,7 hPa 0,0 l/m 5,8 km/h (2 Bft) S-SO 154 1,0 C 12,6 km/h (3 Bft) 89 %
13.01.2018 19:15 2,6 C 89 % 1024,7 hPa 0,0 l/m 4,3 km/h (1 Bft) NO 44 1,0 C 9,4 km/h (2 Bft) 100 %
13.01.2018 19:16 2,5 C 89 % 1024,7 hPa 0,0 l/m 1,6 km/h (1 Bft) NO 44 0,9 C 6,3 km/h (2 Bft) 100 %
13.01.2018 19:17 2,5 C 89 % 1024,8 hPa 0,0 l/m 4,2 km/h (1 Bft) O-NO 70 0,9 C 15,7 km/h (3 Bft) 100 %
13.01.2018 19:18 2,5 C 89 % 1024,8 hPa 0,0 l/m 5,3 km/h (1 Bft) NO 48 0,9 C 15,7 km/h (3 Bft) 96 %
13.01.2018 19:19 2,4 C 89 % 1024,8 hPa 0,0 l/m 4,7 km/h (1 Bft) O-SO 118 0,8 C 12,6 km/h (3 Bft) 100 %
13.01.2018 19:20 2,4 C 89 % 1024,7 hPa 0,0 l/m 0,6 km/h (0 Bft) SO 134 0,8 C 3,1 km/h (1 Bft) 100 %
13.01.2018 19:21 2,4 C 89 % 1024,7 hPa 0,0 l/m 0,3 km/h (0 Bft) NO 54 0,8 C 3,1 km/h (1 Bft) 100 %
13.01.2018 19:22 2,4 C 89 % 1024,7 hPa 0,0 l/m 0,3 km/h (0 Bft) O-NO 58 0,8 C 3,1 km/h (1 Bft) 96 %
13.01.2018 19:23 2,4 C 89 % 1024,7 hPa 0,0 l/m 3,0 km/h (1 Bft) NO 43 0,8 C 6,3 km/h (2 Bft) 100 %
13.01.2018 19:24 2,4 C 90 % 1024,7 hPa 0,0 l/m 2,0 km/h (1 Bft) O 98 0,9 C 3,1 km/h (1 Bft) 96 %
13.01.2018 19:25 2,4 C 90 % 1024,8 hPa 0,0 l/m 1,2 km/h (1 Bft) NO 53 0,9 C 6,3 km/h (2 Bft) 100 %
13.01.2018 19:26 2,3 C 90 % 1024,8 hPa 0,0 l/m 6,5 km/h (2 Bft) N-NO 27 0,8 C 12,6 km/h (3 Bft) 96 %
13.01.2018 19:27 2,3 C 90 % 1024,7 hPa 0,0 l/m 6,1 km/h (2 Bft) N-NO 20 0,8 C 15,7 km/h (3 Bft) 100 %
13.01.2018 19:28 2,3 C 90 % 1024,8 hPa 0,0 l/m 2,2 km/h (1 Bft) O 86 0,8 C 6,3 km/h (2 Bft) 96 %
13.01.2018 19:29 2,3 C 90 % 1024,8 hPa 0,0 l/m 1,3 km/h (1 Bft) NO 35 0,8 C 3,1 km/h (1 Bft) 100 %
13.01.2018 19:30 2,3 C 90 % 1024,7 hPa 0,0 l/m 4,1 km/h (1 Bft) O-NO 63 0,8 C 9,4 km/h (2 Bft) 96 %
13.01.2018 19:31 2,3 C 90 % 1024,7 hPa 0,0 l/m 4,8 km/h (1 Bft) O 90 0,8 C 9,4 km/h (2 Bft) 96 %
13.01.2018 19:32 2,3 C 90 % 1024,8 hPa 0,0 l/m 1,1 km/h (1 Bft) O 82 0,8 C 6,3 km/h (2 Bft) 100 %
13.01.2018 19:33 2,2 C 90 % 1024,8 hPa 0,0 l/m 5,0 km/h (1 Bft) NO 38 0,7 C 12,6 km/h (3 Bft) 96 %
13.01.2018 19:34 2,2 C 90 % 1024,8 hPa 0,0 l/m 2,7 km/h (1 Bft) O-NO 74 0,7 C 6,3 km/h (2 Bft) 100 %
13.01.2018 19:35 2,2 C 90 % 1024,8 hPa 0,0 l/m 1,0 km/h (0 Bft) O 99 0,7 C 3,1 km/h (1 Bft) 95 %
13.01.2018 19:36 2,2 C 90 % 1024,8 hPa 0,0 l/m 7,8 km/h (2 Bft) O-NO 68 0,7 C 9,4 km/h (2 Bft) 100 %
13.01.2018 19:37 2,2 C 90 % 1024,8 hPa 0,0 l/m 6,0 km/h (2 Bft) O-NO 74 0,7 C 12,6 km/h (3 Bft) 94 %
13.01.2018 19:38 2,2 C 90 % 1024,8 hPa 0,0 l/m 4,9 km/h (1 Bft) O-SO 107 0,7 C 9,4 km/h (2 Bft) 100 %
13.01.2018 19:39 2,2 C 90 % 1024,8 hPa 0,0 l/m 2,1 km/h (1 Bft) O-NO 64 0,7 C 6,3 km/h (2 Bft) 96 %
13.01.2018 19:40 2,2 C 90 % 1024,8 hPa 0,0 l/m 1,6 km/h (1 Bft) O-NO 60 0,7 C 6,3 km/h (2 Bft) 100 %
13.01.2018 19:41 2,1 C 91 % 1024,8 hPa 0,0 l/m 2,8 km/h (1 Bft) SO 125 0,8 C 9,4 km/h (2 Bft) 97 %
13.01.2018 19:42 2,1 C 91 % 1024,8 hPa 0,0 l/m 1,3 km/h (1 Bft) O 84 0,8 C 3,1 km/h (1 Bft) 93 %
13.01.2018 19:43 2,1 C 91 % 1024,8 hPa 0,0 l/m 7,2 km/h (2 Bft) O-SO 103 0,8 C 18,8 km/h (3 Bft) 100 %
13.01.2018 19:44 2,1 C 91 % 1024,8 hPa 0,0 l/m 1,3 km/h (1 Bft) O-NO 75 0,8 C 6,3 km/h (2 Bft) 96 %
13.01.2018 19:45 2,1 C 91 % 1024,8 hPa 0,0 l/m 7,2 km/h (2 Bft) O-SO 117 0,8 C 15,7 km/h (3 Bft) 100 %
13.01.2018 19:46 2,1 C 91 % 1024,8 hPa 0,0 l/m 3,0 km/h (1 Bft) O-NO 66 0,8 C 9,4 km/h (2 Bft) 96 %
13.01.2018 19:47 2,1 C 91 % 1024,8 hPa 0,0 l/m 0,7 km/h (0 Bft) O-NO 77 0,8 C 3,1 km/h (1 Bft) 100 %
13.01.2018 19:48 2,0 C 91 % 1024,8 hPa 0,0 l/m 2,9 km/h (1 Bft) O-NO 62 0,7 C 15,7 km/h (3 Bft) 96 %
13.01.2018 19:49 2,0 C 91 % 1024,8 hPa 0,0 l/m 5,2 km/h (1 Bft) O 81 0,7 C 12,6 km/h (3 Bft) 96 %
13.01.2018 19:50 2,0 C 91 % 1024,8 hPa 0,0 l/m 5,3 km/h (1 Bft) O-NO 77 0,7 C 9,4 km/h (2 Bft) 100 %
13.01.2018 19:51 1,9 C 91 % 1024,8 hPa 0,0 l/m 3,9 km/h (1 Bft) O-SO 120 0,6 C 9,4 km/h (2 Bft) 93 %
13.01.2018 19:52 1,9 C 91 % 1024,7 hPa 0,0 l/m 1,0 km/h (0 Bft) NO 56 0,6 C 3,1 km/h (1 Bft) 100 %
13.01.2018 19:53 1,9 C 91 % 1024,7 hPa 0,0 l/m 1,6 km/h (1 Bft) O-NO 77 0,6 C 6,3 km/h (2 Bft) 96 %
13.01.2018 19:54 1,9 C 91 % 1024,8 hPa 0,0 l/m 0,5 km/h (0 Bft) O-NO 77 0,6 C 3,1 km/h (1 Bft) 100 %
13.01.2018 19:55 1,9 C 91 % 1024,8 hPa 0,0 l/m 1,6 km/h (1 Bft) S-SO 158 0,6 C 6,3 km/h (2 Bft) 96 %
13.01.2018 19:56 1,9 C 91 % 1024,7 hPa 0,0 l/m 2,0 km/h (1 Bft) O-NO 75 0,6 C 6,3 km/h (2 Bft) 100 %
13.01.2018 19:57 1,9 C 91 % 1024,7 hPa 0,0 l/m 5,4 km/h (1 Bft) NO 49 0,6 C 12,6 km/h (3 Bft) 96 %
13.01.2018 19:58 1,9 C 91 % 1024,8 hPa 0,0 l/m 5,6 km/h (1 Bft) NO 56 0,6 C 9,4 km/h (2 Bft) 96 %
13.01.2018 19:59 1,9 C 91 % 1024,8 hPa 0,0 l/m 3,1 km/h (1 Bft) O-NO 75 0,6 C 6,3 km/h (2 Bft) 100 %
13.01.2018 20:00 1,9 C 91 % 1024,8 hPa 0,0 l/m 2,2 km/h (1 Bft) O 90 0,6 C 6,3 km/h (2 Bft) 96 %
13.01.2018 20:01 1,8 C 91 % 1024,8 hPa 0,0 l/m 0,8 km/h (0 Bft) O 89 0,5 C 3,1 km/h (1 Bft) 100 %
13.01.2018 20:02 1,8 C 91 % 1024,8 hPa 0,0 l/m 0,5 km/h (0 Bft) O-SO 115 0,5 C 3,1 km/h (1 Bft) 96 %
13.01.2018 20:03 1,8 C 91 % 1024,8 hPa 0,0 l/m 1,3 km/h (1 Bft) N 8 0,5 C 6,3 km/h (2 Bft) 91 %
13.01.2018 20:04 1,8 C 91 % 1024,8 hPa 0,0 l/m 0,5 km/h (0 Bft) O 100 0,5 C 3,1 km/h (1 Bft) 100 %
13.01.2018 20:05 1,8 C 91 % 1024,8 hPa 0,0 l/m 0,5 km/h (0 Bft) O 100 0,5 C 3,1 km/h (1 Bft) 96 %
13.01.2018 20:06 1,8 C 91 % 1024,8 hPa 0,0 l/m 0,5 km/h (0 Bft) O-NO 68 0,5 C 3,1 km/h (1 Bft) 100 %
13.01.2018 20:07 1,8 C 91 % 1024,8 hPa 0,0 l/m 0,0 km/h (0 Bft) O-NO 68 0,5 C 0,0 km/h (0 Bft) 96 %
13.01.2018 20:08 1,8 C 91 % 1024,8 hPa 0,0 l/m 1,9 km/h (1 Bft) O-SO 111 0,5 C 15,7 km/h (3 Bft) 100 %
13.01.2018 20:09 1,8 C 91 % 1024,8 hPa 0,0 l/m 6,8 km/h (2 Bft) O 92 0,5 C 9,4 km/h (2 Bft) 96 %
13.01.2018 20:10 1,8 C 91 % 1024,8 hPa 0,0 l/m 4,2 km/h (1 Bft) SO 131 0,5 C 9,4 km/h (2 Bft) 100 %
13.01.2018 20:11 1,8 C 91 % 1024,8 hPa 0,0 l/m 0,0 km/h (0 Bft) O-SO 121 0,5 C 0,0 km/h (0 Bft) 96 %
13.01.2018 20:12 1,8 C 91 % 1024,7 hPa 0,0 l/m 1,8 km/h (1 Bft) N-NO 33 0,5 C 6,3 km/h (2 Bft) 100 %
13.01.2018 20:13 1,8 C 92 % 1024,8 hPa 0,0 l/m 0,2 km/h (0 Bft) N-NO 33 0,6 C 3,1 km/h (1 Bft) 96 %
13.01.2018 20:14 1,8 C 92 % 1024,7 hPa 0,0 l/m 3,1 km/h (1 Bft) O-SO 120 0,6 C 9,4 km/h (2 Bft) 96 %
13.01.2018 20:15 1,8 C 92 % 1024,7 hPa 0,0 l/m 0,2 km/h (0 Bft) O-SO 110 0,6 C 3,1 km/h (1 Bft) 100 %
13.01.2018 20:16 1,8 C 92 % 1024,7 hPa 0,0 l/m 5,0 km/h (1 Bft) NO 56 0,6 C 15,7 km/h (3 Bft) 96 %
13.01.2018 20:17 1,8 C 92 % 1024,7 hPa 0,0 l/m 0,8 km/h (0 Bft) S-SO 153 0,6 C 3,1 km/h (1 Bft) 100 %
13.01.2018 20:18 1,7 C 92 % 1024,7 hPa 0,0 l/m 0,0 km/h (0 Bft) SO 140 0,5 C 0,0 km/h (0 Bft) 96 %
13.01.2018 20:19 1,7 C 92 % 1024,7 hPa 0,0 l/m 1,4 km/h (1 Bft) O-NO 70 0,5 C 6,3 km/h (2 Bft) 100 %
13.01.2018 20:20 1,7 C 92 % 1024,7 hPa 0,0 l/m 0,0 km/h (0 Bft) O-NO 71 0,5 C 0,0 km/h (0 Bft) 100 %
13.01.2018 20:21 1,7 C 92 % 1024,7 hPa 0,0 l/m 0,5 km/h (0 Bft) SO 139 0,5 C 3,1 km/h (1 Bft) 100 %
13.01.2018 20:22 1,7 C 92 % 1024,7 hPa 0,0 l/m 1,7 km/h (1 Bft) O-SO 104 0,5 C 6,3 km/h (2 Bft) 100 %
13.01.2018 20:23 1,7 C 92 % 1024,7 hPa 0,0 l/m 2,4 km/h (1 Bft) O 89 0,5 C 6,3 km/h (2 Bft) 100 %
13.01.2018 20:24 1,7 C 92 % 1024,7 hPa 0,0 l/m 0,1 km/h (0 Bft) O 89 0,5 C 3,1 km/h (1 Bft) 96 %
13.01.2018 20:25 1,7 C 92 % 1024,7 hPa 0,0 l/m 0,8 km/h (0 Bft) S-SO 149 0,5 C 3,1 km/h (1 Bft) 100 %
13.01.2018 20:26 1,7 C 92 % 1024,7 hPa 0,0 l/m 0,0 km/h (0 Bft) S-SO 149 0,5 C 0,0 km/h (0 Bft) 100 %
13.01.2018 20:27 1,7 C 92 % 1024,7 hPa 0,0 l/m 0,0 km/h (0 Bft) S-SO 149 0,5 C 0,0 km/h (0 Bft) 100 %
13.01.2018 20:28 1,7 C 92 % 1024,7 hPa 0,0 l/m 0,0 km/h (0 Bft) S-SO 149 0,5 C 0,0 km/h (0 Bft) 100 %
13.01.2018 20:29 1,7 C 92 % 1024,7 hPa 0,0 l/m 3,4 km/h (1 Bft) NO 39 0,5 C 9,4 km/h (2 Bft) 100 %
13.01.2018 20:30 1,7 C 92 % 1024,7 hPa 0,0 l/m 0,3 km/h (0 Bft) NO 40 0,5 C 3,1 km/h (1 Bft) 100 %
13.01.2018 20:31 1,7 C 92 % 1024,7 hPa 0,0 l/m 0,9 km/h (0 Bft) O 84 0,5 C 3,1 km/h (1 Bft) 100 %
13.01.2018 20:32 1,7 C 92 % 1024,7 hPa 0,0 l/m 1,6 km/h (1 Bft) O 82 0,5 C 9,4 km/h (2 Bft) 100 %
13.01.2018 20:33 1,7 C 92 % 1024,7 hPa 0,0 l/m 0,0 km/h (0 Bft) O 80 0,5 C 0,0 km/h (0 Bft) 100 %
13.01.2018 20:34 1,7 C 92 % 1024,7 hPa 0,0 l/m 4,4 km/h (1 Bft) O-SO 115 0,5 C 9,4 km/h (2 Bft) 100 %
13.01.2018 20:35 1,7 C 92 % 1024,7 hPa 0,0 l/m 3,7 km/h (1 Bft) O 95 0,5 C 9,4 km/h (2 Bft) 100 %
13.01.2018 20:36 1,7 C 92 % 1024,6 hPa 0,0 l/m 1,3 km/h (1 Bft) NO 55 0,5 C 3,1 km/h (1 Bft) 100 %
13.01.2018 20:37 1,7 C 92 % 1024,6 hPa 0,0 l/m 5,1 km/h (1 Bft) NO 46 0,5 C 12,6 km/h (3 Bft) 100 %
13.01.2018 20:38 1,7 C 92 % 1024,6 hPa 0,0 l/m 0,0 km/h (0 Bft) W-NW 293 0,5 C 0,0 km/h (0 Bft) 100 %
13.01.2018 20:39 1,7 C 92 % 1024,6 hPa 0,0 l/m 0,8 km/h (0 Bft) SO 124 0,5 C 6,3 km/h (2 Bft) 100 %
13.01.2018 20:40 1,6 C 92 % 1024,6 hPa 0,0 l/m 2,2 km/h (1 Bft) O 101 0,4 C 6,3 km/h (2 Bft) 100 %
13.01.2018 20:41 1,7 C 92 % 1024,6 hPa 0,0 l/m 2,4 km/h (1 Bft) O-NO 75 0,5 C 6,3 km/h (2 Bft) 99 %
13.01.2018 20:42 1,6 C 92 % 1024,6 hPa 0,0 l/m 8,5 km/h (2 Bft) O 94 0,4 C 22,0 km/h (4 Bft) 100 %
13.01.2018 20:43 1,6 C 92 % 1024,6 hPa 0,0 l/m 1,6 km/h (1 Bft) SO 139 0,4 C 6,3 km/h (2 Bft) 100 %
13.01.2018 20:44 1,6 C 92 % 1024,6 hPa 0,0 l/m 2,0 km/h (1 Bft) O-SO 113 0,4 C 6,3 km/h (2 Bft) 100 %
13.01.2018 20:45 1,6 C 92 % 1024,6 hPa 0,0 l/m 3,3 km/h (1 Bft) SO 144 0,4 C 15,7 km/h (3 Bft) 100 %
13.01.2018 20:46 1,6 C 92 % 1024,6 hPa 0,0 l/m 5,1 km/h (1 Bft) S-SO 162 0,4 C 18,8 km/h (3 Bft) 100 %
13.01.2018 20:47 1,6 C 92 % 1024,6 hPa 0,0 l/m 0,7 km/h (0 Bft) O-NO 63 0,4 C 3,1 km/h (1 Bft) 100 %
13.01.2018 20:48 1,6 C 92 % 1024,6 hPa 0,0 l/m 0,3 km/h (0 Bft) SO 124 0,4 C 3,1 km/h (1 Bft) 100 %
13.01.2018 20:49 1,6 C 92 % 1024,6 hPa 0,0 l/m 1,6 km/h (1 Bft) SO 133 0,4 C 3,1 km/h (1 Bft) 100 %
13.01.2018 20:50 1,6 C 91 % 1024,6 hPa 0,0 l/m 4,7 km/h (1 Bft) O-NO 77 0,3 C 9,4 km/h (2 Bft) 100 %
13.01.2018 20:51 1,6 C 91 % 1024,6 hPa 0,0 l/m 5,4 km/h (1 Bft) O 88 0,3 C 9,4 km/h (2 Bft) 100 %
13.01.2018 20:52 1,5 C 91 % 1024,6 hPa 0,0 l/m 0,3 km/h (0 Bft) SO 145 0,2 C 3,1 km/h (1 Bft) 100 %
13.01.2018 20:53 1,5 C 91 % 1024,6 hPa 0,0 l/m 0,0 km/h (0 Bft) O 94 0,2 C 0,0 km/h (0 Bft) 100 %
13.01.2018 20:54 1,5 C 91 % 1024,7 hPa 0,0 l/m 0,7 km/h (0 Bft) O-SO 110 0,2 C 3,1 km/h (1 Bft) 100 %
13.01.2018 20:55 1,5 C 91 % 1024,7 hPa 0,0 l/m 0,0 km/h (0 Bft) O-SO 110 0,2 C 0,0 km/h (0 Bft) 100 %
13.01.2018 20:56 1,5 C 91 % 1024,7 hPa 0,0 l/m 5,5 km/h (1 Bft) O-NO 65 0,2 C 15,7 km/h (3 Bft) 100 %
13.01.2018 20:57 1,5 C 91 % 1024,7 hPa 0,0 l/m 3,3 km/h (1 Bft) O 91 0,2 C 6,3 km/h (2 Bft) 100 %
13.01.2018 20:58 1,5 C 91 % 1024,7 hPa 0,0 l/m 2,5 km/h (1 Bft) O-NO 77 0,2 C 9,4 km/h (2 Bft) 100 %
13.01.2018 20:59 1,5 C 91 % 1024,7 hPa 0,0 l/m 1,2 km/h (1 Bft) NO 52 0,2 C 3,1 km/h (1 Bft) 100 %
13.01.2018 21:00 1,5 C 91 % 1024,7 hPa 0,0 l/m 1,2 km/h (1 Bft) O-NO 72 0,2 C 6,3 km/h (2 Bft) 100 %
13.01.2018 21:01 1,4 C 91 % 1024,7 hPa 0,0 l/m 0,2 km/h (0 Bft) N-NW 332 0,1 C 3,1 km/h (1 Bft) 100 %
13.01.2018 21:02 1,4 C 91 % 1024,7 hPa 0,0 l/m 0,3 km/h (0 Bft) O-NO 72 0,1 C 3,1 km/h (1 Bft) 100 %
13.01.2018 21:03 1,4 C 91 % 1024,7 hPa 0,0 l/m 3,1 km/h (1 Bft) O-SO 114 0,1 C 12,6 km/h (3 Bft) 100 %
13.01.2018 21:04 1,4 C 91 % 1024,7 hPa 0,0 l/m 2,4 km/h (1 Bft) O-NO 72 0,1 C 6,3 km/h (2 Bft) 100 %
13.01.2018 21:05 1,4 C 91 % 1024,7 hPa 0,0 l/m 1,7 km/h (1 Bft) SO 139 0,1 C 9,4 km/h (2 Bft) 100 %
13.01.2018 21:06 1,4 C 91 % 1024,7 hPa 0,0 l/m 3,1 km/h (1 Bft) O 101 0,1 C 12,6 km/h (3 Bft) 100 %
13.01.2018 21:07 1,4 C 91 % 1024,7 hPa 0,0 l/m 4,5 km/h (1 Bft) O-NO 76 0,1 C 15,7 km/h (3 Bft) 100 %
13.01.2018 21:08 1,4 C 91 % 1024,6 hPa 0,0 l/m 8,0 km/h (2 Bft) S 186 0,1 C 12,6 km/h (3 Bft) 100 %
13.01.2018 21:09 1,4 C 91 % 1024,6 hPa 0,0 l/m 5,2 km/h (1 Bft) O-SO 117 0,1 C 22,0 km/h (4 Bft) 100 %
13.01.2018 21:10 1,4 C 91 % 1024,7 hPa 0,0 l/m 5,2 km/h (1 Bft) O-NO 64 0,1 C 9,4 km/h (2 Bft) 100 %
13.01.2018 21:11 1,4 C 91 % 1024,7 hPa 0,0 l/m 5,6 km/h (1 Bft) O 89 0,1 C 12,6 km/h (3 Bft) 100 %
13.01.2018 21:12 1,4 C 91 % 1024,7 hPa 0,0 l/m 0,9 km/h (0 Bft) O-SO 112 0,1 C 6,3 km/h (2 Bft) 100 %
13.01.2018 21:13 1,4 C 91 % 1024,7 hPa 0,0 l/m 2,7 km/h (1 Bft) O-SO 121 0,1 C 6,3 km/h (2 Bft) 100 %
13.01.2018 21:14 1,4 C 91 % 1024,7 hPa 0,0 l/m 1,7 km/h (1 Bft) SO 136 0,1 C 9,4 km/h (2 Bft) 100 %
13.01.2018 21:15 1,4 C 91 % 1024,7 hPa 0,0 l/m 3,9 km/h (1 Bft) O-SO 103 0,1 C 18,8 km/h (3 Bft) 100 %
13.01.2018 21:16 1,3 C 91 % 1024,7 hPa 0,0 l/m 5,2 km/h (1 Bft) S-SO 160 -0,0 C 15,7 km/h (3 Bft) 100 %
13.01.2018 21:17 1,4 C 91 % 1024,7 hPa 0,0 l/m 0,5 km/h (0 Bft) O-NO 68 0,1 C 6,3 km/h (2 Bft) 100 %
13.01.2018 21:18 1,3 C 91 % 1024,6 hPa 0,0 l/m 8,8 km/h (2 Bft) S-SW 198 -0,0 C 15,7 km/h (3 Bft) 100 %
13.01.2018 21:19 1,3 C 91 % 1024,6 hPa 0,0 l/m 4,4 km/h (1 Bft) O-SO 122 -0,0 C 9,4 km/h (2 Bft) 100 %
13.01.2018 21:20 1,3 C 91 % 1024,6 hPa 0,0 l/m 8,9 km/h (2 Bft) O 82 -0,0 C 12,6 km/h (3 Bft) 100 %
13.01.2018 21:21 1,3 C 91 % 1024,6 hPa 0,0 l/m 2,4 km/h (1 Bft) SO 135 -0,0 C 6,3 km/h (2 Bft) 100 %
13.01.2018 21:22 1,3 C 91 % 1024,6 hPa 0,0 l/m 3,0 km/h (1 Bft) O 83 -0,0 C 9,4 km/h (2 Bft) 100 %
13.01.2018 21:23 1,3 C 91 % 1024,6 hPa 0,0 l/m 5,2 km/h (1 Bft) S 189 -0,0 C 12,6 km/h (3 Bft) 100 %
13.01.2018 21:24 1,3 C 91 % 1024,5 hPa 0,0 l/m 2,5 km/h (1 Bft) O-NO 71 -0,0 C 15,7 km/h (3 Bft) 100 %
13.01.2018 21:25 1,3 C 91 % 1024,4 hPa 0,0 l/m 3,4 km/h (1 Bft) SO 124 -0,0 C 15,7 km/h (3 Bft) 100 %
13.01.2018 21:26 1,3 C 91 % 1024,4 hPa 0,0 l/m 2,1 km/h (1 Bft) O-NO 75 -0,0 C 6,3 km/h (2 Bft) 100 %
13.01.2018 21:27 1,3 C 91 % 1024,4 hPa 0,0 l/m 6,7 km/h (2 Bft) SW 217 -0,0 C 15,7 km/h (3 Bft) 100 %
13.01.2018 21:28 1,3 C 91 % 1024,4 hPa 0,0 l/m 5,0 km/h (1 Bft) SO 130 -0,0 C 12,6 km/h (3 Bft) 100 %
13.01.2018 21:29 1,3 C 91 % 1024,4 hPa 0,0 l/m 2,7 km/h (1 Bft) NO 51 -0,0 C 9,4 km/h (2 Bft) 100 %
13.01.2018 21:30 1,3 C 91 % 1024,4 hPa 0,0 l/m 0,3 km/h (0 Bft) S-SO 160 -0,0 C 3,1 km/h (1 Bft) 96 %
13.01.2018 21:31 1,3 C 91 % 1024,4 hPa 0,0 l/m 0,8 km/h (0 Bft) NO 53 -0,0 C 3,1 km/h (1 Bft) 100 %
13.01.2018 21:32 1,3 C 91 % 1024,4 hPa 0,0 l/m 6,6 km/h (2 Bft) O 91 -0,0 C 18,8 km/h (3 Bft) 100 %
13.01.2018 21:33 1,3 C 91 % 1024,4 hPa 0,0 l/m 11,1 km/h (2 Bft) SO 142 -0,0 C 22,0 km/h (4 Bft) 100 %
13.01.2018 21:34 1,2 C 91 % 1024,4 hPa 0,0 l/m 4,2 km/h (1 Bft) SO 124 -0,1 C 15,7 km/h (3 Bft) 100 %
13.01.2018 21:35 1,2 C 91 % 1024,4 hPa 0,0 l/m 5,1 km/h (1 Bft) O 98 -0,1 C 15,7 km/h (3 Bft) 100 %
13.01.2018 21:36 1,2 C 91 % 1024,4 hPa 0,0 l/m 1,7 km/h (1 Bft) O-NO 62 -0,1 C 6,3 km/h (2 Bft) 100 %
13.01.2018 21:37 1,2 C 91 % 1024,4 hPa 0,0 l/m 3,5 km/h (1 Bft) SO 143 -0,1 C 12,6 km/h (3 Bft) 100 %
13.01.2018 21:38 1,2 C 91 % 1024,4 hPa 0,0 l/m 1,4 km/h (1 Bft) NO 56 -0,1 C 6,3 km/h (2 Bft) 100 %
13.01.2018 21:39 1,2 C 91 % 1024,4 hPa 0,0 l/m 1,3 km/h (1 Bft) NO 34 -0,1 C 6,3 km/h (2 Bft) 100 %
13.01.2018 21:40 1,2 C 91 % 1024,4 hPa 0,0 l/m 0,7 km/h (0 Bft) O 96 -0,1 C 6,3 km/h (2 Bft) 100 %
13.01.2018 21:41 1,2 C 91 % 1024,4 hPa 0,0 l/m 0,0 km/h (0 Bft) O 96 -0,1 C 0,0 km/h (0 Bft) 100 %
13.01.2018 21:42 1,2 C 91 % 1024,4 hPa 0,0 l/m 4,1 km/h (1 Bft) O 90 -0,1 C 15,7 km/h (3 Bft) 100 %
13.01.2018 21:43 1,2 C 91 % 1024,4 hPa 0,0 l/m 1,6 km/h (1 Bft) O-SO 118 -0,1 C 12,6 km/h (3 Bft) 100 %
13.01.2018 21:44 1,2 C 91 % 1024,4 hPa 0,0 l/m 3,7 km/h (1 Bft) O-NO 78 -0,1 C 9,4 km/h (2 Bft) 100 %
13.01.2018 21:45 1,2 C 91 % 1024,4 hPa 0,0 l/m 3,0 km/h (1 Bft) NO 44 -0,1 C 9,4 km/h (2 Bft) 100 %
13.01.2018 21:46 1,2 C 91 % 1024,4 hPa 0,0 l/m 1,0 km/h (0 Bft) NO 53 -0,1 C 6,3 km/h (2 Bft) 100 %
13.01.2018 21:47 1,2 C 91 % 1024,4 hPa 0,0 l/m 3,1 km/h (1 Bft) O-SO 103 -0,1 C 6,3 km/h (2 Bft) 100 %
13.01.2018 21:48 1,2 C 91 % 1024,4 hPa 0,0 l/m 0,5 km/h (0 Bft) O-NO 73 -0,1 C 3,1 km/h (1 Bft) 100 %
13.01.2018 21:49 1,2 C 91 % 1024,4 hPa 0,0 l/m 5,8 km/h (2 Bft) O-SO 115 -0,1 C 15,7 km/h (3 Bft) 100 %
13.01.2018 21:50 1,2 C 91 % 1024,4 hPa 0,0 l/m 3,8 km/h (1 Bft) S-SO 163 -0,1 C 12,6 km/h (3 Bft) 100 %
13.01.2018 21:51 1,2 C 91 % 1024,4 hPa 0,0 l/m 2,5 km/h (1 Bft) O 81 -0,1 C 6,3 km/h (2 Bft) 100 %
13.01.2018 21:52 1,2 C 91 % 1024,4 hPa 0,0 l/m 4,2 km/h (1 Bft) O-NO 58 -0,1 C 9,4 km/h (2 Bft) 100 %
13.01.2018 21:53 1,1 C 91 % 1024,4 hPa 0,0 l/m 4,1 km/h (1 Bft) O-NO 71 -0,2 C 9,4 km/h (2 Bft) 100 %
13.01.2018 21:54 1,1 C 91 % 1024,4 hPa 0,0 l/m 0,8 km/h (0 Bft) O-NO 77 -0,2 C 3,1 km/h (1 Bft) 100 %
13.01.2018 21:55 1,1 C 91 % 1024,4 hPa 0,0 l/m 1,8 km/h (1 Bft) N-NO 32 -0,2 C 6,3 km/h (2 Bft) 100 %
13.01.2018 21:56 1,1 C 91 % 1024,6 hPa 0,0 l/m 6,4 km/h (2 Bft) SO 124 -0,2 C 9,4 km/h (2 Bft) 100 %
13.01.2018 21:57 1,1 C 91 % 1024,5 hPa 0,0 l/m 9,1 km/h (2 Bft) O-SO 108 -0,2 C 22,0 km/h (4 Bft) 100 %
13.01.2018 21:58 1,1 C 91 % 1024,6 hPa 0,0 l/m 6,5 km/h (2 Bft) N-NO 25 -0,2 C 15,7 km/h (3 Bft) 100 %
13.01.2018 21:59 1,1 C 91 % 1024,6 hPa 0,0 l/m 3,5 km/h (1 Bft) O 79 -0,2 C 12,6 km/h (3 Bft) 100 %
13.01.2018 22:00 1,1 C 91 % 1024,5 hPa 0,0 l/m 1,0 km/h (0 Bft) O-NO 65 -0,2 C 3,1 km/h (1 Bft) 100 %
13.01.2018 22:01 1,1 C 91 % 1024,5 hPa 0,0 l/m 1,0 km/h (0 Bft) SO 142 -0,2 C 6,3 km/h (2 Bft) 100 %
13.01.2018 22:02 1,1 C 91 % 1024,4 hPa 0,0 l/m 3,1 km/h (1 Bft) NO 37 -0,2 C 9,4 km/h (2 Bft) 100 %
13.01.2018 22:03 1,1 C 91 % 1024,4 hPa 0,0 l/m 2,3 km/h (1 Bft) O-NO 63 -0,2 C 6,3 km/h (2 Bft) 100 %
13.01.2018 22:04 1,1 C 91 % 1024,4 hPa 0,0 l/m 6,0 km/h (2 Bft) O 100 -0,2 C 18,8 km/h (3 Bft) 100 %
13.01.2018 22:05 1,1 C 91 % 1024,5 hPa 0,0 l/m 3,6 km/h (1 Bft) S-SW 205 -0,2 C 6,3 km/h (2 Bft) 100 %
13.01.2018 22:06 1,1 C 91 % 1024,4 hPa 0,0 l/m 4,8 km/h (1 Bft) S 182 -0,2 C 12,6 km/h (3 Bft) 100 %
13.01.2018 22:07 1,1 C 91 % 1024,4 hPa 0,0 l/m 2,7 km/h (1 Bft) NO 41 -0,2 C 6,3 km/h (2 Bft) 100 %
13.01.2018 22:08 1,0 C 91 % 1024,5 hPa 0,0 l/m 0,7 km/h (0 Bft) O 82 -0,3 C 3,1 km/h (1 Bft) 100 %
13.01.2018 22:09 1,0 C 91 % 1024,4 hPa 0,0 l/m 2,6 km/h (1 Bft) O-NO 57 -0,3 C 15,7 km/h (3 Bft) 100 %
13.01.2018 22:10 1,0 C 91 % 1024,4 hPa 0,0 l/m 4,7 km/h (1 Bft) O 81 -0,3 C 12,6 km/h (3 Bft) 100 %
13.01.2018 22:11 1,0 C 91 % 1024,4 hPa 0,0 l/m 1,5 km/h (1 Bft) O-NO 68 -0,3 C 6,3 km/h (2 Bft) 100 %
13.01.2018 22:12 1,0 C 91 % 1024,4 hPa 0,0 l/m 0,0 km/h (0 Bft) O-NO 68 -0,3 C 0,0 km/h (0 Bft) 100 %
13.01.2018 22:13 1,0 C 91 % 1024,4 hPa 0,0 l/m 1,4 km/h (1 Bft) O 99 -0,3 C 3,1 km/h (1 Bft) 100 %
13.01.2018 22:14 1,0 C 91 % 1024,4 hPa 0,0 l/m 0,7 km/h (0 Bft) O-SO 107 -0,3 C 3,1 km/h (1 Bft) 100 %
13.01.2018 22:15 1,0 C 91 % 1024,4 hPa 0,0 l/m 2,9 km/h (1 Bft) SO 146 -0,3 C 9,4 km/h (2 Bft) 100 %
13.01.2018 22:16 0,9 C 91 % 1024,3 hPa 0,0 l/m 2,8 km/h (1 Bft) O 82 -0,4 C 12,6 km/h (3 Bft) 100 %
13.01.2018 22:17 0,9 C 91 % 1024,3 hPa 0,0 l/m 2,9 km/h (1 Bft) O 101 -0,4 C 9,4 km/h (2 Bft) 100 %
13.01.2018 22:18 0,9 C 91 % 1024,4 hPa 0,0 l/m 1,3 km/h (1 Bft) O-NO 58 -0,4 C 6,3 km/h (2 Bft) 100 %
13.01.2018 22:19 0,9 C 91 % 1024,4 hPa 0,0 l/m 0,8 km/h (0 Bft) NO 45 -0,4 C 6,3 km/h (2 Bft) 100 %
13.01.2018 22:20 0,9 C 91 % 1024,4 hPa 0,0 l/m 3,3 km/h (1 Bft) O-SO 103 -0,4 C 9,4 km/h (2 Bft) 100 %
13.01.2018 22:21 0,9 C 91 % 1024,4 hPa 0,0 l/m 0,1 km/h (0 Bft) O 101 -0,4 C 3,1 km/h (1 Bft) 100 %
13.01.2018 22:22 0,9 C 91 % 1024,4 hPa 0,0 l/m 2,4 km/h (1 Bft) O-NO 68 -0,4 C 6,3 km/h (2 Bft) 100 %
13.01.2018 22:23 0,9 C 91 % 1024,4 hPa 0,0 l/m 6,6 km/h (2 Bft) O-SO 114 -0,4 C 9,4 km/h (2 Bft) 100 %
13.01.2018 22:24 0,9 C 91 % 1024,4 hPa 0,0 l/m 2,4 km/h (1 Bft) O-SO 120 -0,4 C 9,4 km/h (2 Bft) 100 %
13.01.2018 22:25 0,9 C 91 % 1024,4 hPa 0,0 l/m 1,4 km/h (1 Bft) NO 46 -0,4 C 6,3 km/h (2 Bft) 100 %
13.01.2018 22:26 0,9 C 91 % 1024,4 hPa 0,0 l/m 3,6 km/h (1 Bft) O-NO 75 -0,4 C 9,4 km/h (2 Bft) 100 %
13.01.2018 22:27 0,9 C 91 % 1024,4 hPa 0,0 l/m 2,7 km/h (1 Bft) O-SO 120 -0,4 C 15,7 km/h (3 Bft) 100 %
13.01.2018 22:28 0,9 C 91 % 1024,4 hPa 0,0 l/m 1,6 km/h (1 Bft) O 100 -0,4 C 3,1 km/h (1 Bft) 100 %
13.01.2018 22:29 0,9 C 91 % 1024,3 hPa 0,0 l/m 2,0 km/h (1 Bft) O 98 -0,4 C 6,3 km/h (2 Bft) 100 %
13.01.2018 22:30 0,9 C 91 % 1024,4 hPa 0,0 l/m 0,1 km/h (0 Bft) O-NO 63 -0,4 C 3,1 km/h (1 Bft) 100 %
13.01.2018 22:31 0,9 C 91 % 1024,3 hPa 0,0 l/m 2,2 km/h (1 Bft) O 99 -0,4 C 3,1 km/h (1 Bft) 100 %
13.01.2018 22:32 0,9 C 91 % 1024,4 hPa 0,0 l/m 1,6 km/h (1 Bft) NO 43 -0,4 C 6,3 km/h (2 Bft) 100 %
13.01.2018 22:33 0,9 C 91 % 1024,4 hPa 0,0 l/m 2,9 km/h (1 Bft) O 98 -0,4 C 9,4 km/h (2 Bft) 100 %
13.01.2018 22:34 0,9 C 91 % 1024,4 hPa 0,0 l/m 0,6 km/h (0 Bft) O 82 -0,4 C 6,3 km/h (2 Bft) 100 %
13.01.2018 22:35 0,9 C 91 % 1024,3 hPa 0,0 l/m 0,5 km/h (0 Bft) N-NO 30 -0,4 C 6,3 km/h (2 Bft) 100 %
13.01.2018 22:36 0,9 C 91 % 1024,3 hPa 0,0 l/m 1,4 km/h (1 Bft) O-NO 67 -0,4 C 6,3 km/h (2 Bft) 100 %
13.01.2018 22:37 0,9 C 91 % 1024,3 hPa 0,0 l/m 0,0 km/h (0 Bft) O-NO 67 -0,4 C 0,0 km/h (0 Bft) 100 %
13.01.2018 22:38 0,9 C 91 % 1024,3 hPa 0,0 l/m 1,4 km/h (1 Bft) O 83 -0,4 C 6,3 km/h (2 Bft) 100 %
13.01.2018 22:39 0,9 C 91 % 1024,3 hPa 0,0 l/m 0,9 km/h (0 Bft) S 172 -0,4 C 6,3 km/h (2 Bft) 100 %
13.01.2018 22:40 0,9 C 91 % 1024,3 hPa 0,0 l/m 0,0 km/h (0 Bft) SO 131 -0,4 C 0,0 km/h (0 Bft) 100 %
13.01.2018 22:41 0,9 C 91 % 1024,3 hPa 0,0 l/m 2,4 km/h (1 Bft) S-SO 158 -0,4 C 6,3 km/h (2 Bft) 100 %
13.01.2018 22:42 0,8 C 91 % 1024,3 hPa 0,0 l/m 4,7 km/h (1 Bft) O-SO 114 -0,5 C 12,6 km/h (3 Bft) 100 %
13.01.2018 22:43 0,8 C 91 % 1024,3 hPa 0,0 l/m 0,3 km/h (0 Bft) W 264 -0,5 C 3,1 km/h (1 Bft) 100 %
13.01.2018 22:44 0,8 C 91 % 1024,3 hPa 0,0 l/m 2,5 km/h (1 Bft) O-NO 77 -0,5 C 6,3 km/h (2 Bft) 100 %
13.01.2018 22:45 0,8 C 91 % 1024,3 hPa 0,0 l/m 5,3 km/h (1 Bft) O 79 -0,5 C 9,4 km/h (2 Bft) 100 %
13.01.2018 22:46 0,8 C 91 % 1024,3 hPa 0,0 l/m 1,9 km/h (1 Bft) SO 127 -0,5 C 6,3 km/h (2 Bft) 100 %
13.01.2018 22:47 0,8 C 91 % 1024,3 hPa 0,0 l/m 0,0 km/h (0 Bft) SO 127 -0,5 C 0,0 km/h (0 Bft) 100 %
13.01.2018 22:48 0,8 C 91 % 1024,3 hPa 0,0 l/m 1,7 km/h (1 Bft) NO 55 -0,5 C 3,1 km/h (1 Bft) 100 %
13.01.2018 22:49 0,8 C 91 % 1024,3 hPa 0,0 l/m 3,0 km/h (1 Bft) O-SO 104 -0,5 C 9,4 km/h (2 Bft) 100 %
13.01.2018 22:50 0,8 C 92 % 1024,4 hPa 0,0 l/m 0,5 km/h (0 Bft) N-NO 26 -0,3 C 3,1 km/h (1 Bft) 100 %
13.01.2018 22:51 0,8 C 92 % 1024,4 hPa 0,0 l/m 0,8 km/h (0 Bft) O-SO 107 -0,3 C 3,1 km/h (1 Bft) 100 %
13.01.2018 22:52 0,8 C 92 % 1024,3 hPa 0,0 l/m 0,8 km/h (0 Bft) S-SO 149 -0,3 C 3,1 km/h (1 Bft) 100 %
13.01.2018 22:53 0,8 C 92 % 1024,4 hPa 0,0 l/m 0,5 km/h (0 Bft) O-NO 78 -0,3 C 6,3 km/h (2 Bft) 100 %
13.01.2018 22:54 0,8 C 92 % 1024,4 hPa 0,0 l/m 3,1 km/h (1 Bft) S-SO 149 -0,3 C 12,6 km/h (3 Bft) 100 %
13.01.2018 22:55 0,8 C 92 % 1024,4 hPa 0,0 l/m 4,2 km/h (1 Bft) O-SO 105 -0,3 C 12,6 km/h (3 Bft) 100 %
13.01.2018 22:56 0,8 C 92 % 1024,4 hPa 0,0 l/m 5,6 km/h (1 Bft) O-SO 110 -0,3 C 15,7 km/h (3 Bft) 100 %
13.01.2018 22:57 0,8 C 91 % 1024,5 hPa 0,0 l/m 9,8 km/h (2 Bft) W-SW 240 -0,5 C 15,7 km/h (3 Bft) 100 %
13.01.2018 22:58 0,8 C 91 % 1024,5 hPa 0,0 l/m 0,3 km/h (0 Bft) NO 55 -0,5 C 3,1 km/h (1 Bft) 100 %
13.01.2018 22:59 0,8 C 92 % 1024,5 hPa 0,0 l/m 2,6 km/h (1 Bft) NO 51 -0,3 C 9,4 km/h (2 Bft) 100 %
13.01.2018 23:00 0,8 C 92 % 1024,4 hPa 0,0 l/m 4,7 km/h (1 Bft) O-SO 120 -0,3 C 9,4 km/h (2 Bft) 100 %
13.01.2018 23:01 0,8 C 92 % 1024,4 hPa 0,0 l/m 2,1 km/h (1 Bft) O-SO 107 -0,3 C 12,6 km/h (3 Bft) 100 %
13.01.2018 23:02 0,8 C 92 % 1024,4 hPa 0,0 l/m 0,1 km/h (0 Bft) O-NO 69 -0,3 C 3,1 km/h (1 Bft) 100 %
13.01.2018 23:03 0,8 C 92 % 1024,5 hPa 0,0 l/m 3,4 km/h (1 Bft) O 88 -0,3 C 9,4 km/h (2 Bft) 100 %
13.01.2018 23:04 0,8 C 92 % 1024,5 hPa 0,0 l/m 1,8 km/h (1 Bft) O-SO 106 -0,3 C 15,7 km/h (3 Bft) 100 %
13.01.2018 23:05 0,8 C 92 % 1024,5 hPa 0,0 l/m 2,4 km/h (1 Bft) O-SO 117 -0,3 C 6,3 km/h (2 Bft) 100 %
13.01.2018 23:06 0,8 C 92 % 1024,5 hPa 0,0 l/m 0,0 km/h (0 Bft) O-SO 117 -0,3 C 0,0 km/h (0 Bft) 100 %
13.01.2018 23:07 0,8 C 92 % 1024,4 hPa 0,0 l/m 2,1 km/h (1 Bft) SO 134 -0,3 C 9,4 km/h (2 Bft) 100 %
13.01.2018 23:08 0,8 C 92 % 1024,4 hPa 0,0 l/m 0,3 km/h (0 Bft) S-SO 167 -0,3 C 3,1 km/h (1 Bft) 100 %
13.01.2018 23:09 0,8 C 92 % 1024,4 hPa 0,0 l/m 2,0 km/h (1 Bft) O-SO 117 -0,3 C 9,4 km/h (2 Bft) 100 %
13.01.2018 23:10 0,8 C 92 % 1024,4 hPa 0,0 l/m 5,1 km/h (1 Bft) S-SO 149 -0,3 C 18,8 km/h (3 Bft) 100 %
13.01.2018 23:11 0,7 C 92 % 1024,4 hPa 0,0 l/m 2,5 km/h (1 Bft) NO 43 -0,4 C 6,3 km/h (2 Bft) 100 %
13.01.2018 23:12 0,8 C 92 % 1024,4 hPa 0,0 l/m 0,6 km/h (0 Bft) S-SO 154 -0,3 C 6,3 km/h (2 Bft) 100 %
13.01.2018 23:13 0,8 C 92 % 1024,4 hPa 0,0 l/m 0,0 km/h (0 Bft) O 91 -0,3 C 0,0 km/h (0 Bft) 100 %
13.01.2018 23:14 0,8 C 92 % 1024,4 hPa 0,0 l/m 1,6 km/h (1 Bft) O-NO 78 -0,3 C 9,4 km/h (2 Bft) 100 %
13.01.2018 23:15 0,7 C 92 % 1024,4 hPa 0,0 l/m 2,8 km/h (1 Bft) N-NO 28 -0,4 C 9,4 km/h (2 Bft) 100 %
13.01.2018 23:16 0,7 C 92 % 1024,4 hPa 0,0 l/m 1,9 km/h (1 Bft) O 96 -0,4 C 6,3 km/h (2 Bft) 100 %
13.01.2018 23:17 0,7 C 92 % 1024,4 hPa 0,0 l/m 0,0 km/h (0 Bft) O 96 -0,4 C 0,0 km/h (0 Bft) 100 %
13.01.2018 23:18 0,7 C 92 % 1024,4 hPa 0,0 l/m 0,3 km/h (0 Bft) O 94 -0,4 C 3,1 km/h (1 Bft) 100 %
13.01.2018 23:19 0,7 C 92 % 1024,4 hPa 0,0 l/m 0,8 km/h (0 Bft) O 94 -0,4 C 3,1 km/h (1 Bft) 100 %
13.01.2018 23:20 0,7 C 92 % 1024,4 hPa 0,0 l/m 0,4 km/h (0 Bft) NO 56 -0,4 C 3,1 km/h (1 Bft) 100 %
13.01.2018 23:21 0,7 C 92 % 1024,4 hPa 0,0 l/m 0,8 km/h (0 Bft) O 101 -0,4 C 3,1 km/h (1 Bft) 100 %
13.01.2018 23:22 0,7 C 92 % 1024,4 hPa 0,0 l/m 0,7 km/h (0 Bft) SO 141 -0,4 C 6,3 km/h (2 Bft) 100 %
13.01.2018 23:23 0,7 C 92 % 1024,4 hPa 0,0 l/m 0,4 km/h (0 Bft) O-NO 60 -0,4 C 3,1 km/h (1 Bft) 100 %
13.01.2018 23:24 0,7 C 92 % 1024,4 hPa 0,0 l/m 3,0 km/h (1 Bft) O-NO 70 -0,4 C 9,4 km/h (2 Bft) 100 %
13.01.2018 23:25 0,7 C 92 % 1024,4 hPa 0,0 l/m 4,1 km/h (1 Bft) O-SO 107 -0,4 C 12,6 km/h (3 Bft) 100 %
13.01.2018 23:26 0,7 C 92 % 1024,3 hPa 0,0 l/m 0,6 km/h (0 Bft) O-NO 58 -0,4 C 3,1 km/h (1 Bft) 100 %
13.01.2018 23:27 0,7 C 92 % 1024,3 hPa 0,0 l/m 0,3 km/h (0 Bft) W-SW 250 -0,4 C 3,1 km/h (1 Bft) 100 %
13.01.2018 23:28 0,7 C 92 % 1024,3 hPa 0,0 l/m 0,5 km/h (0 Bft) O-NO 66 -0,4 C 3,1 km/h (1 Bft) 100 %
13.01.2018 23:29 0,7 C 92 % 1024,3 hPa 0,0 l/m 0,0 km/h (0 Bft) O-NO 65 -0,4 C 0,0 km/h (0 Bft) 100 %
13.01.2018 23:30 0,7 C 92 % 1024,3 hPa 0,0 l/m 0,1 km/h (0 Bft) O-NO 74 -0,4 C 3,1 km/h (1 Bft) 100 %
13.01.2018 23:31 0,7 C 92 % 1024,4 hPa 0,0 l/m 3,1 km/h (1 Bft) O 89 -0,4 C 6,3 km/h (2 Bft) 100 %
13.01.2018 23:32 0,7 C 92 % 1024,4 hPa 0,0 l/m 1,8 km/h (1 Bft) O 101 -0,4 C 6,3 km/h (2 Bft) 100 %
13.01.2018 23:33 0,7 C 92 % 1024,4 hPa 0,0 l/m 2,8 km/h (1 Bft) O-SO 107 -0,4 C 6,3 km/h (2 Bft) 100 %
13.01.2018 23:34 0,7 C 92 % 1024,4 hPa 0,0 l/m 4,2 km/h (1 Bft) O 93 -0,4 C 9,4 km/h (2 Bft) 100 %
13.01.2018 23:35 0,7 C 92 % 1024,3 hPa 0,0 l/m 2,4 km/h (1 Bft) SO 124 -0,4 C 6,3 km/h (2 Bft) 100 %
13.01.2018 23:36 0,7 C 92 % 1024,4 hPa 0,0 l/m 0,3 km/h (0 Bft) N-NO 20 -0,4 C 3,1 km/h (1 Bft) 100 %
13.01.2018 23:37 0,7 C 92 % 1024,3 hPa 0,0 l/m 1,0 km/h (0 Bft) N-NO 20 -0,4 C 6,3 km/h (2 Bft) 100 %
13.01.2018 23:38 0,7 C 92 % 1024,3 hPa 0,0 l/m 3,3 km/h (1 Bft) O 96 -0,4 C 9,4 km/h (2 Bft) 100 %
13.01.2018 23:39 0,7 C 92 % 1024,3 hPa 0,0 l/m 0,4 km/h (0 Bft) NO 51 -0,4 C 3,1 km/h (1 Bft) 100 %
13.01.2018 23:40 0,7 C 92 % 1024,2 hPa 0,0 l/m 1,0 km/h (0 Bft) O-NO 61 -0,4 C 6,3 km/h (2 Bft) 100 %
13.01.2018 23:41 0,7 C 92 % 1024,3 hPa 0,0 l/m 3,6 km/h (1 Bft) SO 128 -0,4 C 9,4 km/h (2 Bft) 100 %
13.01.2018 23:42 0,7 C 92 % 1024,3 hPa 0,0 l/m 0,0 km/h (0 Bft) S 169 -0,4 C 0,0 km/h (0 Bft) 100 %
13.01.2018 23:43 0,7 C 92 % 1024,3 hPa 0,0 l/m 0,0 km/h (0 Bft) SO 134 -0,4 C 0,0 km/h (0 Bft) 100 %
13.01.2018 23:44 0,7 C 92 % 1024,2 hPa 0,0 l/m 4,4 km/h (1 Bft) O 96 -0,4 C 12,6 km/h (3 Bft) 100 %
13.01.2018 23:45 0,7 C 92 % 1024,2 hPa 0,0 l/m 3,7 km/h (1 Bft) O-SO 105 -0,4 C 12,6 km/h (3 Bft) 100 %
13.01.2018 23:46 0,7 C 91 % 1024,2 hPa 0,0 l/m 6,8 km/h (2 Bft) O-NO 72 -0,6 C 18,8 km/h (3 Bft) 100 %
13.01.2018 23:47 0,7 C 91 % 1024,2 hPa 0,0 l/m 2,1 km/h (1 Bft) O-NO 62 -0,6 C 6,3 km/h (2 Bft) 96 %
13.01.2018 23:48 0,7 C 92 % 1024,2 hPa 0,0 l/m 1,8 km/h (1 Bft) O-SO 112 -0,4 C 9,4 km/h (2 Bft) 100 %
13.01.2018 23:49 0,7 C 92 % 1024,2 hPa 0,0 l/m 0,0 km/h (0 Bft) O-SO 112 -0,4 C 0,0 km/h (0 Bft) 100 %
13.01.2018 23:50 0,7 C 92 % 1024,1 hPa 0,0 l/m 0,3 km/h (0 Bft) O-SO 112 -0,4 C 3,1 km/h (1 Bft) 100 %
13.01.2018 23:51 0,7 C 92 % 1024,1 hPa 0,0 l/m 0,1 km/h (0 Bft) W 270 -0,4 C 3,1 km/h (1 Bft) 100 %
13.01.2018 23:52 0,7 C 92 % 1024,1 hPa 0,0 l/m 2,2 km/h (1 Bft) SO 143 -0,4 C 9,4 km/h (2 Bft) 100 %
13.01.2018 23:53 0,7 C 92 % 1024,1 hPa 0,0 l/m 0,0 km/h (0 Bft) SO 143 -0,4 C 0,0 km/h (0 Bft) 100 %
13.01.2018 23:54 0,7 C 92 % 1024,1 hPa 0,0 l/m 2,5 km/h (1 Bft) NO 54 -0,4 C 6,3 km/h (2 Bft) 100 %
13.01.2018 23:55 0,7 C 92 % 1024,1 hPa 0,0 l/m 0,3 km/h (0 Bft) O-NO 75 -0,4 C 3,1 km/h (1 Bft) 100 %
13.01.2018 23:56 0,7 C 92 % 1024,0 hPa 0,0 l/m 0,4 km/h (0 Bft) O-SO 123 -0,4 C 3,1 km/h (1 Bft) 100 %
13.01.2018 23:57 0,7 C 92 % 1024,0 hPa 0,0 l/m 4,7 km/h (1 Bft) O-NO 60 -0,4 C 15,7 km/h (3 Bft) 100 %
13.01.2018 23:58 0,7 C 91 % 1024,0 hPa 0,0 l/m 6,1 km/h (2 Bft) O-NO 60 -0,6 C 15,7 km/h (3 Bft) 100 %
13.01.2018 23:59 0,7 C 91 % 1024,0 hPa 0,0 l/m 0,0 km/h (0 Bft) S-SW 205 -0,6 C 0,0 km/h (0 Bft) 100 %
_ Min-Zeit 23:10 18:21 23:56 - 00:00 - - 23:46 00:00 02:36
Minimum _ 0,7 C 83 % 1024,0 hPa - 0,0 km/h (0 Bft) - - -0,6 C 0,0 km/h (0 Bft) 89 %
_ Max-Zeit 13:00 00:00 00:07 00:00 16:58 - - 00:00 17:39 00:00
Maximum _ 4,4 C 98 % 1026,8 hPa 0,0 l/m 13,5 km/h
NO (3 Bft)
- - 3,4 C 28,2 km/h
O (4 Bft)
100 %
Durchschnitt _ 3,1 C 93 % 1025,7 hPa #0,0 l/m 1,7 km/h (1 Bft) O - 2,0 C 5,4 km/h (1 Bft) 100 %